[[{"header":{"parameterUnit":"m.s-1","parameterCategory":1,"la1":31.0,"la2":29.5877,"lo1":-88.7671,"lo2":-86.6584,"dy":0.0162,"dx":0.0185,"nx":115,"ny":88,"refTime":"2023-09-14T18:00:00:Z","depth":0,"parameterNumber":2,"parameterNumberName":"U-component_of_WINDS"},"data":[0.0,0.0,0.0,0.0,0.0,0.0,0.0,0.0,0.0,0.0,0.0,0.0,0.0,0.0,0.0,0.0,0.0,0.0,0.0,0.0,0.0,0.0,0.0,0.0,0.0,0.0,0.0,0.0,0.0,0.0,0.0,0.0,0.0,0.0,0.0,0.0,0.0,0.0,0.0,0.0,0.0,0.0,0.0,0.0,0.0,0.0,0.0,0.0,0.0,0.0,0.0,0.0,0.0,0.0,0.0,0.0,0.0,0.0,0.0,0.0,0.0,0.0,0.0,0.0,0.0,0.0,0.0,0.0,0.0,0.0,0.0,0.0,0.0,0.0,0.0,0.0,0.0,0.0,0.0,0.0,0.0,0.0,0.0,0.0,0.0,0.0,0.0,0.0,0.0,0.0,0.0,0.0,0.0,0.0,0.0,0.0,0.0,0.0,0.0,0.0,0.0,0.0,0.0,0.0,0.0,0.0,0.0,0.0,0.0,0.0,0.0,0.0,0.0,0.0,0.0,0.0,0.0,0.0,0.0,0.0,0.0,0.0,0.0,0.0,0.0,0.0,0.0,0.0,0.0,0.0,0.0,0.0,0.0,0.0,0.0,0.0,0.0,0.0,0.0,0.0,0.0,0.0,0.0,0.0,0.0,0.0,0.0,0.0,0.0,0.0,0.0,0.0,0.0,0.0,0.0,0.0,0.0,0.0,0.0,0.0,0.0,0.0,0.0,0.0,0.0,0.0,0.0,0.0,0.0,0.0,0.0,0.0,0.0,0.0,0.0,0.0,0.0,0.0,0.0,0.0,0.0,0.0,0.0,0.0,0.0,0.0,0.0,0.0,0.0,0.0,0.0,0.0,0.0,0.0,0.0,0.0,0.0,0.0,0.0,0.0,0.0,0.0,0.0,0.0,0.0,0.0,0.0,0.0,0.0,0.0,0.0,0.0,0.0,0.0,0.0,0.0,0.0,0.0,0.0,0.0,0.0,0.0,0.0,0.0,0.0,0.0,0.0,0.0,0.0,0.0,0.0,0.0,0.0,0.0,0.0,0.0,0.0,0.0,0.0,0.0,0.0,0.0,0.0,0.0,0.0,0.0,0.0,0.0,0.0,0.0,0.0,0.0,0.0,0.0,0.0,0.0,0.0,0.0,0.0,0.0,0.0,0.0,0.0,0.0,0.0,0.0,0.0,0.0,0.0,0.0,0.0,0.0,0.0,0.0,0.0,0.0,0.0,0.0,0.0,0.0,0.0,0.0,0.0,0.0,0.0,0.0,0.0,0.0,0.0,0.0,0.0,0.0,0.0,0.0,0.0,0.0,0.0,0.0,0.0,0.0,0.0,0.0,0.0,0.0,0.0,0.0,0.0,0.0,0.0,0.0,0.0,0.0,0.0,0.0,0.0,0.0,0.0,0.0,0.0,0.0,0.0,0.0,0.0,0.0,0.0,0.0,0.0,0.0,0.0,0.0,0.0,0.0,0.0,0.0,0.0,0.0,0.0,0.0,0.0,0.0,0.0,0.0,0.0,0.0,0.0,0.0,0.0,0.0,0.0,0.0,0.0,0.0,0.0,0.0,0.0,0.0,0.0,0.0,0.0,0.0,0.0,0.0,0.0,0.0,0.0,0.0,0.0,0.0,0.0,0.0,0.0,0.0,0.0,0.0,0.0,0.0,0.0,0.0,0.0,0.0,0.0,0.0,0.0,0.0,0.0,0.0,0.0,0.0,0.0,0.0,0.0,0.0,0.0,0.0,0.0,0.0,0.0,0.0,0.0,0.0,0.0,0.0,0.0,0.0,0.0,0.0,0.0,0.0,0.0,0.0,0.0,0.0,0.0,0.0,0.0,0.0,0.0,0.0,0.0,0.0,0.0,0.0,0.0,0.0,0.0,0.0,0.0,0.0,0.0,0.0,0.0,0.0,0.0,0.0,0.0,0.0,0.0,0.0,0.0,0.0,0.0,0.0,0.0,0.0,0.0,0.0,0.0,0.0,0.0,0.0,0.0,0.0,0.0,0.0,0.0,0.0,0.0,0.0,0.0,0.0,0.0,0.0,0.0,0.0,0.0,0.0,0.0,0.0,0.0,0.0,0.0,0.0,0.0,0.0,0.0,0.0,0.0,0.0,0.0,0.0,0.0,0.0,0.0,0.0,0.0,0.0,0.0,0.0,0.0,0.0,0.0,0.0,0.0,0.0,0.0,0.0,0.0,0.0,0.0,0.0,0.0,0.0,0.0,0.0,0.0,0.0,0.0,0.0,0.0,0.0,0.0,0.0,0.0,0.0,0.0,0.0,0.0,0.0,0.0,0.0,0.0,0.0,0.0,0.0,0.0,0.0,0.0,0.0,0.0,0.0,0.0,0.0,0.0,0.0,0.0,0.0,0.0,0.0,0.0,0.0,0.0,0.0,0.0,0.0,0.0,0.0,0.0,0.0,0.0,0.0,0.0,0.0,0.0,0.0,0.0,0.0,0.0,0.0,0.0,0.0,0.0,0.0,0.0,0.0,0.0,0.0,0.0,0.0,0.0,0.0,0.0,0.0,0.0,0.0,0.0,0.0,0.0,0.0,0.0,0.0,0.0,0.0,0.0,0.0,0.0,0.0,0.0,0.0,0.0,0.0,0.0,0.0,0.0,0.0,0.0,0.0,0.0,0.0,0.0,0.0,0.0,0.0,0.0,0.0,0.0,0.0,0.0,0.0,0.0,0.0,0.0,0.0,0.0,0.0,0.0,0.0,0.0,0.0,0.0,0.0,0.0,0.0,0.0,0.0,0.0,0.0,0.0,0.0,0.0,0.0,0.0,0.0,0.0,0.0,0.0,0.0,0.0,0.0,0.0,0.0,0.0,0.0,0.0,0.0,0.0,0.0,0.0,0.0,0.0,0.0,0.0,0.0,0.0,0.0,0.0,0.0,0.0,0.0,0.0,0.0,0.0,0.0,0.0,0.0,0.0,0.0,0.0,0.0,0.0,0.0,0.0,0.0,0.0,0.0,0.0,0.0,0.0,0.0,0.0,0.0,0.0,0.0,0.0,0.0,0.0,0.0,0.0,0.0,0.0,0.0,0.0,0.0,0.0,0.0,0.0,0.0,0.0,0.0,0.0,0.0,0.0,0.0,0.0,0.0,0.0,0.0,0.0,0.0,0.0,0.0,0.0,0.0,0.0,0.0,0.0,0.0,0.0,0.0,0.0,0.0,0.0,0.0,0.0,0.0,0.0,0.0,0.0,0.0,0.0,0.0,0.0,0.0,0.0,0.0,0.0,0.0,0.0,0.0,0.0,0.0,0.0,0.0,0.0,0.0,0.0,0.0,0.0,0.0,0.0,0.0,0.0,0.0,0.0,0.0,0.0,0.0,0.0,0.0,0.0,0.0,0.0,0.0,0.0,0.0,0.0,0.0,0.0,0.0,0.0,0.0,0.0,0.0,0.0,0.0,0.0,0.0,0.0,0.0,0.0,0.0,0.0,0.0,0.0,0.0,0.0,0.0,0.0,0.0,0.0,0.0,0.0,0.0,0.0,0.0,0.0,0.0,0.0,0.0,0.0,0.0,0.0,0.0,0.0,0.0,0.0,0.0,0.0,0.0,0.0,0.0,0.0,0.0,0.0,0.0,0.0,0.0,0.0,0.0,0.0,0.0,0.0,0.0,0.0,0.0,0.0,0.0,0.0,0.0,0.0,0.0,0.0,0.0,0.0,0.0,0.0,0.0,0.0,0.0,0.0,0.0,0.0,0.0,0.0,0.0,0.0,0.0,0.0,0.0,0.0,0.0,0.0,0.0,0.0,0.0,0.0,0.0,0.0,0.0,0.0,0.0,0.0,0.0,0.0,0.0,0.0,0.0,0.0,0.0,0.0,0.0,0.0,0.0,0.0,0.0,0.0,0.0,0.0,0.0,0.0,0.0,0.0,0.0,0.0,0.0,0.0,0.0,0.0,0.0,0.0,0.0,0.0,0.0,0.0,0.0,0.0,0.0,0.0,0.0,0.0,0.0,0.0,0.0,0.0,0.0,0.0,0.0,0.0,0.0,0.0,0.0,0.0,0.0,0.0,0.0,0.0,0.0,0.0,0.0,0.0,0.0,0.0,0.0,0.0,0.0,0.0,0.0,0.0,0.0,0.0,0.0,0.0,0.0,0.0,0.0,0.0,0.0,0.0,0.0,0.0,0.0,0.0,0.0,0.0,0.0,0.0,0.0,0.0,0.0,0.0,0.0,0.0,0.0,0.0,0.0,0.0,0.0,0.0,0.0,0.0,0.0,0.0,0.0,0.0,0.0,0.0,0.0,0.8075,0.0,0.0,0.0,0.0,0.0,0.0,0.0,0.0,0.0,0.0,0.0,0.0,0.0,0.0,0.0,0.0,0.0,0.0,0.0,0.0,0.0,0.0,0.0,0.0,0.0,0.0,0.0,0.0,0.0,0.0,0.0,0.0,0.0,0.0,0.0,0.0,0.0,0.0,0.0,0.0,0.0,0.0,0.0,0.0,0.0,0.0,0.0,0.0,0.0,0.0,0.0,0.0,0.0,0.0,0.0,0.0,0.0,0.0,0.0,0.0,0.0,0.0,0.0,0.0,0.0,0.0,0.0,0.0,0.0,0.0,0.0,0.0,0.0,0.0,0.0,0.0,0.0,0.0,0.0,0.0,0.0,0.0,0.0,0.0,0.0,0.0,0.0,0.0,0.0,0.0,0.0,0.0,0.0,0.0,0.0,0.0,0.0,0.0,0.0,0.0,0.0,0.0,0.0,0.0,0.0,0.0,0.0,0.0,0.0,0.0,0.7564,0.6929,0.6579,0.644,0.6464,0.0,0.0,0.0,0.0,0.0,0.0,0.0,0.0,0.0,0.0,0.0,0.0,0.0,0.0,0.0,0.0,0.0,0.0,0.0,0.0,0.0,0.0,0.0,0.0,0.0,0.0,0.0,0.0,0.0,0.0,0.0,0.0,0.0,0.0,0.0,0.0,0.0,0.0,0.0,0.0,0.0,0.0,0.0,0.0,0.0,0.0,0.0,0.0,0.0,0.0,0.0,0.0,0.0,0.0,0.0,0.0,0.0,0.0,0.0,0.0,0.0,0.0,0.0,0.0,0.0,0.0,0.0,0.0,0.0,0.0,0.0,0.0,0.0,0.0,0.0,0.0,0.0,0.0,0.0,0.0,0.0,0.0,0.0,0.0,0.0,0.0,0.0,0.0,0.0,0.0,0.0,0.0,0.0,0.0,0.0,0.0,0.0,0.0,0.0,0.0,0.0,0.0,0.0,0.0,0.0,0.0,0.0,0.0,0.0,0.0,0.0,0.0,0.458,0.4761,0.5062,0.0,0.0,0.0,0.0,0.0,0.0,0.0,0.0,0.0,0.0,0.0,0.0,0.0,0.0,0.0,0.0,0.0,0.0,0.0,0.0,0.0,0.0,0.0,0.0,0.0,0.0,0.0,0.0,0.0,0.0,0.0,0.0,0.0,0.0,0.0,0.0,0.0,0.0,0.0,0.0,0.0,0.0,0.0,0.0,0.0,0.0,0.0,0.0,0.0,0.0,0.0,0.0,0.0,0.0,0.0,0.0,0.0,0.0,0.0,0.0,0.0,0.0,0.0,0.0,0.0,0.0,0.0,0.0,0.0,0.0,0.0,0.0,0.0,0.0,0.0,0.0,0.0,0.0,0.0,0.0,0.0,0.0,0.0,0.0,0.0,0.0,0.0,0.0,0.0,0.0,0.0,0.0,0.0,0.0,0.0,0.0,0.0,0.0,0.0,0.0,0.0,0.0,0.0,0.0,0.0,0.0,0.0,0.0,0.0,0.0,0.2194,0.1329,0.2089,0.0,0.3465,0.0,0.0,0.0,0.0,0.0,0.0,0.0,0.0,0.0,0.0,0.0,0.0,0.0,0.0,0.0,0.0,0.0,0.0,0.0,0.0,0.0,0.0,0.0,0.0,0.0,0.0,0.0,0.0,0.0,0.0,0.0,0.0,0.0,0.0,0.0,0.0,0.0,0.0,0.0,0.0,0.0,0.0,0.0,0.0,0.0,0.0,0.0,0.0,0.0,0.0,0.0,0.0,0.0,0.0,0.0,0.0,0.0,0.0,0.0,0.0,0.0,0.0,0.0,0.0,0.0,0.0,0.0,0.0,0.0,0.0,0.0,0.0,0.0,0.0,0.0,0.0,0.0,0.0,0.0,0.0,0.0,0.0,0.0,0.0,0.0,0.0,0.0,0.0,0.0,0.0,0.0,0.0,0.0,0.0,0.0,0.0,0.0,0.0,0.0,0.0,0.0,0.0,0.0,0.0,0.0,0.0,0.0,0.0,0.0,0.0,-0.1955,-0.2483,-0.1272,-0.0229,0.0,0.0,0.0,0.0,0.0,0.0,0.0,0.0,0.0,0.0,0.0,0.0,0.0,0.0,0.0,0.0,0.0,0.0,0.0,0.0,0.0,0.0,0.0,0.0,0.0,0.0,0.0,0.0,0.0,0.0,0.0,0.0,0.0,0.0,0.0,0.0,0.0,0.0,0.0,0.0,0.0,0.0,0.0,0.0,0.0,0.0,0.0,0.0,0.0,0.0,0.0,0.0,0.0,0.0,0.0,0.0,0.0,0.0,0.0,0.0,0.0,0.0,0.0,0.0,0.0,0.0,0.0,0.0,0.0,0.0,0.0,0.0,0.0,0.0,0.0,0.0,0.0,0.0,0.0,0.0,0.0,0.0,0.0,0.0,0.0,0.0,0.0,0.0,0.0,0.0,0.0,0.0,0.0,0.0,0.0,0.0,0.0,0.0,0.0,0.0,0.0,0.0,0.0,0.0,0.0,0.0,0.0,0.0,0.0,0.0,-0.5452,-0.5398,-0.557,-0.4589,-0.3452,-0.2281,0.0,0.0,0.0,0.0,0.0,0.0,0.0,0.0,0.0,0.0,0.0,0.0,0.0,0.0,0.0,0.0,0.0,0.0,0.0,0.0,0.0,0.0,0.0,0.0,0.0,0.0,0.0,0.0,0.0,0.0,0.0,0.0,0.0,0.0,0.0,0.0,0.0,0.0,0.0,0.0,0.0,0.0,0.0,0.0,0.0,0.0,0.0,0.0,0.0,0.0,0.0,0.0,0.0,0.0,0.0,0.0,0.0,0.0,0.0,0.0,0.0,0.0,0.0,0.0,0.0,0.0,0.0,0.0,0.0,0.0,0.0,0.0,0.0,0.0,0.0,0.0,0.0,0.0,0.0,0.0,0.0,0.0,0.0,0.0,0.0,0.0,0.0,0.0,0.0,0.0,0.0,0.0,0.0,0.0,0.0,0.0,0.0,0.0,0.0,0.0,0.0,0.0,0.0,0.0,0.0,0.0,0.0,0.0,-0.8883,-0.8086,-0.7607,-0.7687,-0.7507,-0.6749,0.0,0.0,0.0,0.0,0.0,0.0,0.0,0.0,0.0,0.0,0.0,0.0,0.0,0.0,0.0,0.0,0.0,0.0,0.0,0.0,0.0,0.0,0.0,0.0,0.0,0.0,0.0,0.0,0.0,0.0,0.0,0.0,0.0,0.0,0.0,0.0,0.0,0.0,0.0,0.0,0.0,0.0,0.0,0.0,0.0,0.0,0.0,0.0,0.0,0.0,0.0,0.0,0.0,0.0,0.0,0.0,0.0,0.0,0.0,0.0,0.0,0.0,0.0,0.0,0.0,0.0,0.0,0.0,0.0,0.0,0.0,0.0,0.0,0.0,0.0,0.0,0.0,0.0,0.0,0.0,0.0,0.0,0.0,0.0,0.0,0.0,0.0,0.0,0.0,0.0,0.0,0.0,0.0,0.0,0.0,0.0,0.0,0.0,0.0,0.0,0.0,0.0,0.0,0.0,0.0,0.0,0.0,0.0,0.0,-1.4106,-1.4328,-1.4154,-1.3649,-1.2573,-1.1185,0.0,0.0,0.0,0.0,0.0,0.0,0.0,0.0,0.0,0.0,0.0,0.0,0.0,0.0,0.0,0.0,0.0,0.0,0.0,0.0,0.0,0.0,0.0,0.0,0.0,0.0,0.0,0.0,0.0,0.0,0.0,0.0,0.0,0.0,0.0,0.0,0.0,0.0,0.0,0.0,0.0,0.0,0.0,0.0,0.0,0.0,0.0,0.0,0.0,0.0,0.0,0.0,0.0,0.0,0.0,0.0,0.0,0.0,0.0,0.0,0.0,0.0,0.0,0.0,0.0,0.0,0.0,0.0,0.0,0.0,0.0,0.0,0.0,0.0,0.0,0.0,0.0,0.0,0.0,0.0,0.0,0.0,0.0,0.0,0.0,0.0,0.0,0.0,0.0,0.0,0.0,0.0,0.0,0.0,0.0,0.0,0.0,0.0,0.0,0.0,0.0,0.0,0.0,0.0,0.0,0.0,0.0,0.0,0.0,-1.8327,0.0,-1.8852,-1.8298,-1.6959,-1.5515,0.0,0.0,0.0,0.0,0.0,0.0,0.0,0.0,0.0,0.0,0.0,0.0,0.0,0.0,0.0,0.0,0.0,0.0,0.0,0.0,0.0,0.0,0.0,0.0,0.0,0.0,0.0,0.0,0.0,0.0,0.0,0.0,0.0,0.0,0.0,0.0,0.0,0.0,0.0,0.0,0.0,0.0,0.0,0.0,0.0,0.0,0.0,0.0,0.0,0.0,0.0,0.0,0.0,0.0,0.0,0.0,0.0,0.0,0.0,0.0,0.0,0.0,0.0,0.0,0.0,0.0,0.0,0.0,0.0,0.0,0.0,0.0,0.0,0.0,0.0,0.0,0.0,0.0,0.0,0.0,0.0,0.0,0.0,0.0,0.0,0.0,0.0,0.0,0.0,0.0,0.0,0.0,0.0,0.0,0.0,0.0,0.0,0.0,0.0,0.0,0.0,0.0,0.0,0.0,0.0,0.0,0.0,0.0,-2.0629,-2.1153,-2.1199,-2.1234,-2.1121,-2.057,-1.949,0.0,0.0,0.0,0.0,0.0,0.0,0.0,0.0,0.0,0.0,0.0,0.0,0.0,0.0,0.0,0.0,0.0,0.0,0.0,0.0,0.0,0.0,0.0,0.0,0.0,0.0,0.0,0.0,0.0,0.0,0.0,0.0,0.0,0.0,0.0,0.0,0.0,0.0,0.0,0.0,0.0,0.0,0.0,0.0,0.0,0.0,0.0,0.0,0.0,0.0,0.0,0.0,0.0,0.0,0.0,0.0,0.0,0.0,0.0,0.0,0.0,0.0,0.0,0.0,0.0,0.0,0.0,0.0,0.0,0.0,0.0,0.0,0.0,0.0,0.0,0.0,0.0,0.0,0.0,0.0,0.0,0.0,0.0,0.0,0.0,0.0,0.0,0.0,0.0,0.0,0.0,0.0,0.0,0.0,0.0,0.0,0.0,0.0,0.0,0.0,0.0,0.0,0.0,0.0,0.0,0.0,0.0,0.0,0.0,-2.5248,-2.5346,-2.5199,-2.4815,-2.3386,-2.2106,0.0,0.0,0.0,0.0,0.0,0.0,0.0,0.0,0.0,0.0,0.0,0.0,0.0,0.0,0.0,0.0,0.0,0.0,0.0,0.0,0.0,0.0,0.0,0.0,0.0,0.0,0.0,0.0,0.0,0.0,0.0,0.0,0.0,0.0,0.0,0.0,0.0,0.0,0.0,0.0,0.0,0.0,0.0,0.0,0.0,0.0,0.0,0.0,0.0,0.0,0.0,0.0,0.0,0.0,0.0,0.0,0.0,0.0,0.0,0.0,0.0,0.0,0.0,0.0,0.0,0.0,0.0,0.0,0.0,0.0,0.0,0.0,0.0,0.0,0.0,0.0,0.0,0.0,0.0,0.0,0.0,0.0,0.0,0.0,0.0,0.0,0.0,0.0,0.0,0.0,0.0,0.0,0.0,0.0,0.0,0.0,0.0,0.0,0.0,0.0,0.0,0.0,0.0,0.0,0.0,0.0,0.0,0.0,0.0,-2.7784,-2.7625,-2.7282,-2.6819,-2.5464,-2.4319,-2.3423,0.0,0.0,0.0,0.0,0.0,0.0,0.0,0.0,0.0,0.0,0.0,0.0,0.0,0.0,0.0,0.0,0.0,0.0,0.0,0.0,0.0,0.0,0.0,0.0,0.0,0.0,0.0,0.0,0.0,0.0,0.0,0.0,0.0,0.0,0.0,0.0,0.0,0.0,0.0,0.0,0.0,0.0,0.0,0.0,0.0,0.0,0.0,0.0,0.0,0.0,0.0,0.0,0.0,0.0,0.0,0.0,0.0,0.0,0.0,0.0,0.0,0.0,0.0,0.0,0.0,0.0,0.0,0.0,0.0,0.0,0.0,0.0,0.0,0.0,0.0,0.0,0.0,0.0,0.0,0.0,0.0,0.0,0.0,0.0,0.0,0.0,0.0,0.0,0.0,0.0,0.0,0.0,0.0,0.0,0.0,0.0,0.0,0.0,0.0,0.0,0.0,0.0,0.0,0.0,0.0,0.0,0.0,0.0,-2.9021,-2.836,-2.7805,-2.7361,-2.6835,-2.6165,0.0,0.0,0.0,0.0,0.0,0.0,0.0,0.0,0.0,0.0,0.0,0.0,0.0,0.0,0.0,0.0,0.0,0.0,0.0,0.0,0.0,0.0,0.0,0.0,0.0,0.0,0.0,0.0,0.0,0.0,0.0,0.0,0.0,0.0,0.0,0.0,0.0,0.0,0.0,0.0,0.0,0.0,0.0,0.0,0.0,0.0,0.0,0.0,0.0,0.0,0.0,0.0,0.0,0.0,0.0,0.0,0.0,0.0,0.0,0.0,0.0,0.0,0.0,0.0,0.0,0.0,0.0,0.0,0.0,0.0,0.0,0.0,0.0,0.0,0.0,0.0,0.0,0.0,0.0,0.0,0.0,0.0,0.0,0.0,0.0,0.0,0.0,0.0,0.0,0.0,0.0,0.0,0.0,0.0,0.0,0.0,0.0,0.0,0.0,0.0,0.0,0.0,0.0,0.0,0.0,0.0,0.0,0.0,0.0,-2.9532,-2.9322,-2.8883,-2.8148,-2.7653,-2.7002,0.0,0.0,0.0,0.0,0.0,0.0,0.0,0.0,0.0,0.0,0.0,0.0,0.0,0.0,0.0,0.0,0.0,0.0,0.0,0.0,0.0,0.0,0.0,0.0,0.0,0.0,0.0,0.0,0.0,0.0,0.0,0.0,0.0,0.0,0.0,0.0,0.0,0.0,0.0,0.0,0.0,0.0,0.0,0.0,0.0,0.0,0.0,0.0,0.0,0.0,0.0,0.0,0.0,0.0,0.0,0.0,0.0,0.0,0.0,0.0,0.0,0.0,0.0,0.0,0.0,0.0,0.0,0.0,0.0,0.0,0.0,0.0,0.0,0.0,0.0,0.0,0.0,0.0,0.0,0.0,0.0,0.0,0.0,0.0,0.0,0.0,0.0,0.0,0.0,0.0,0.0,0.0,0.0,0.0,0.0,0.0,0.0,0.0,0.0,0.0,0.0,0.0,0.0,0.0,0.0,0.0,0.0,0.0,-3.0415,-2.9715,-2.9696,-2.9457,-2.8946,-2.8433,-2.7723,0.0,0.0,0.0,0.0,0.0,0.0,0.0,0.0,0.0,0.0,0.0,0.0,0.0,0.0,0.0,0.0,0.0,0.0,0.0,0.0,0.0,0.0,0.0,0.0,0.0,0.0,0.0,0.0,0.0,0.0,0.0,0.0,0.0,0.0,0.0,0.0,0.0,0.0,0.0,0.0,0.0,0.0,0.0,0.0,0.0,0.0,0.0,0.0,0.0,0.0,0.0,0.0,0.0,0.0,0.0,0.0,0.0,0.0,0.0,0.0,0.0,0.0,0.0,0.0,0.0,0.0,0.0,0.0,0.0,0.0,0.0,0.0,0.0,0.0,0.0,0.0,0.0,0.0,0.0,0.0,0.0,0.0,0.0,0.0,0.0,0.0,0.0,0.0,0.0,0.0,0.0,0.0,0.0,0.0,0.0,0.0,0.0,0.0,0.0,0.0,0.0,0.0,0.0,0.0,0.0,0.0,0.0,0.0,-3.0879,-3.0065,-3.0028,-3.0011,-2.9976,-2.9275,-2.8341,0.0,0.0,0.0,0.0,0.0,0.0,0.0,0.0,0.0,0.0,0.0,0.0,0.0,0.0,0.0,0.0,0.0,0.0,0.0,0.0,0.0,0.0,0.0,0.0,0.0,0.0,0.0,0.0,0.0,0.0,0.0,0.0,0.0,0.0,0.0,0.0,0.0,0.0,0.0,0.0,0.0,0.0,0.0,0.0,0.0,0.0,0.0,0.0,0.0,0.0,0.0,0.0,0.0,0.0,0.0,0.0,0.0,0.0,0.0,0.0,0.0,0.0,0.0,0.0,0.0,0.0,0.0,0.0,0.0,0.0,0.0,0.0,0.0,0.0,0.0,0.0,0.0,0.0,0.0,0.0,0.0,0.0,0.0,0.0,0.0,0.0,0.0,0.0,0.0,0.0,0.0,0.0,0.0,0.0,0.0,0.0,0.0,0.0,0.0,0.0,0.0,0.0,0.0,0.0,0.0,0.0,0.0,0.0,-3.287,-3.2248,-3.2229,-3.2139,-3.1968,-3.0227,-2.9005,0.0,0.0,0.0,0.0,0.0,0.0,0.0,0.0,0.0,0.0,0.0,0.0,0.0,0.0,0.0,0.0,0.0,0.0,0.0,0.0,0.0,0.0,0.0,0.0,0.0,0.0,0.0,0.0,0.0,0.0,0.0,0.0,0.0,0.0,0.0,0.0,0.0,0.0,0.0,0.0,0.0,0.0,0.0,0.0,0.0,0.0,0.0,0.0,-3.307,0.0,0.0,0.0,0.0,0.0,0.0,0.0,0.0,0.0,0.0,0.0,0.0,0.0,0.0,0.0,0.0,0.0,0.0,0.0,0.0,0.0,0.0,0.0,0.0,0.0,0.0,0.0,0.0,0.0,0.0,0.0,0.0,0.0,0.0,0.0,0.0,0.0,0.0,0.0,0.0,0.0,0.0,0.0,0.0,0.0,0.0,0.0,0.0,0.0,0.0,0.0,0.0,0.0,0.0,0.0,0.0,0.0,0.0,0.0,-3.3643,-3.2929,-3.2891,-3.2852,-3.2718,-3.1547,-3.0565,0.0,0.0,0.0,0.0,0.0,0.0,0.0,0.0,0.0,0.0,0.0,0.0,0.0,0.0,0.0,0.0,0.0,0.0,0.0,0.0,0.0,0.0,0.0,0.0,0.0,0.0,0.0,0.0,0.0,0.0,0.0,0.0,0.0,0.0,0.0,0.0,0.0,0.0,0.0,0.0,0.0,0.0,0.0,0.0,0.0,0.0,0.0,0.0,0.0,0.0,0.0,0.0,0.0,0.0,0.0,0.0,0.0,0.0,0.0,0.0,0.0,0.0,0.0,0.0,0.0,0.0,0.0,0.0,0.0,0.0,0.0,0.0,0.0,0.0,0.0,0.0,0.0,0.0,0.0,0.0,0.0,0.0,0.0,0.0,0.0,0.0,0.0,0.0,0.0,0.0,0.0,0.0,0.0,0.0,0.0,0.0,0.0,0.0,0.0,0.0,0.0,0.0,0.0,0.0,0.0,0.0,0.0,-3.4271,-3.4026,-3.3333,-3.3314,-3.3295,-3.3295,-3.2958,-3.2365,-3.1497,0.0,0.0,0.0,0.0,0.0,0.0,0.0,0.0,0.0,0.0,0.0,0.0,0.0,0.0,0.0,0.0,0.0,0.0,0.0,0.0,0.0,0.0,0.0,0.0,0.0,0.0,0.0,0.0,0.0,0.0,0.0,0.0,0.0,0.0,0.0,0.0,0.0,0.0,-3.5577,-3.5601,0.0,0.0,0.0,0.0,0.0,0.0,0.0,0.0,-3.4109,0.0,0.0,0.0,0.0,0.0,0.0,0.0,0.0,0.0,0.0,0.0,0.0,0.0,0.0,0.0,0.0,0.0,0.0,0.0,0.0,0.0,0.0,0.0,0.0,0.0,0.0,0.0,0.0,0.0,0.0,0.0,0.0,0.0,0.0,0.0,0.0,0.0,0.0,0.0,0.0,0.0,0.0,0.0,0.0,0.0,0.0,0.0,0.0,0.0,0.0,0.0,0.0,0.0,0.0,0.0,0.0,-3.522,-3.5249,-3.5218,-3.507,-3.507,-3.5084,-3.5051,-3.414,-3.3616,-3.3571,0.0,0.0,0.0,0.0,0.0,0.0,0.0,0.0,0.0,0.0,0.0,0.0,0.0,0.0,0.0,0.0,0.0,0.0,0.0,0.0,0.0,0.0,0.0,0.0,0.0,0.0,0.0,0.0,0.0,0.0,0.0,0.0,0.0,0.0,0.0,0.0,0.0,0.0,0.0,-3.534,-3.5268,0.0,0.0,0.0,0.0,0.0,0.0,0.0,0.0,-3.3468,0.0,0.0,0.0,0.0,0.0,0.0,0.0,0.0,0.0,0.0,0.0,0.0,0.0,0.0,0.0,0.0,0.0,0.0,0.0,0.0,0.0,0.0,0.0,0.0,0.0,0.0,0.0,0.0,0.0,0.0,0.0,0.0,0.0,0.0,0.0,0.0,0.0,0.0,0.0,0.0,0.0,0.0,0.0,0.0,0.0,0.0,0.0,0.0,0.0,0.0,0.0,0.0,0.0,0.0,0.0,-3.5474,-3.5507,-3.5507,-3.5507,-3.5507,-3.5507,-3.5488,-3.4961,-3.452,0.0,0.0,0.0,0.0,0.0,0.0,0.0,0.0,0.0,0.0,0.0,0.0,0.0,0.0,0.0,0.0,0.0,0.0,0.0,0.0,0.0,0.0,0.0,0.0,0.0,0.0,0.0,0.0,0.0,0.0,0.0,0.0,0.0,0.0,0.0,0.0,0.0,0.0,0.0,0.0,-3.519,-3.5105,-3.5088,0.0,0.0,0.0,0.0,0.0,0.0,-3.4233,-3.403,0.0,0.0,0.0,0.0,0.0,0.0,0.0,0.0,0.0,0.0,0.0,0.0,0.0,0.0,0.0,0.0,0.0,0.0,0.0,0.0,0.0,0.0,0.0,0.0,0.0,0.0,0.0,0.0,0.0,0.0,0.0,0.0,0.0,0.0,0.0,0.0,0.0,0.0,0.0,0.0,0.0,0.0,0.0,0.0,0.0,0.0,0.0,0.0,0.0,0.0,0.0,0.0,0.0,0.0,0.0,-3.5474,-3.5446,-3.5465,-3.5493,-3.5507,-3.5507,-3.5507,-3.5507,-3.518,0.0,0.0,0.0,0.0,0.0,0.0,0.0,0.0,0.0,0.0,0.0,0.0,0.0,0.0,0.0,0.0,0.0,0.0,0.0,0.0,0.0,0.0,0.0,0.0,0.0,0.0,0.0,0.0,0.0,0.0,0.0,0.0,0.0,0.0,0.0,0.0,0.0,0.0,0.0,0.0,0.0,-3.4963,-3.4793,-3.4655,0.0,0.0,0.0,0.0,-3.4171,-3.4353,0.0,0.0,0.0,0.0,0.0,0.0,0.0,0.0,0.0,0.0,0.0,0.0,0.0,0.0,0.0,0.0,0.0,0.0,0.0,0.0,0.0,0.0,0.0,0.0,0.0,0.0,0.0,0.0,0.0,0.0,0.0,0.0,0.0,0.0,0.0,0.0,0.0,0.0,0.0,0.0,0.0,0.0,0.0,0.0,0.0,0.0,0.0,0.0,0.0,0.0,0.0,0.0,0.0,0.0,0.0,0.0,-3.5479,-3.5273,-3.5273,-3.5474,-3.5507,-3.5507,-3.5507,-3.5507,-3.5468,0.0,0.0,0.0,0.0,0.0,0.0,0.0,0.0,0.0,0.0,0.0,0.0,0.0,0.0,0.0,0.0,0.0,0.0,0.0,0.0,0.0,0.0,0.0,0.0,0.0,0.0,0.0,0.0,0.0,0.0,0.0,0.0,0.0,0.0,0.0,0.0,0.0,0.0,0.0,0.0,0.0,-3.4813,-3.5016,-3.4576,-3.4357,0.0,0.0,-3.4171,-3.3876,-3.3895,0.0,0.0,0.0,0.0,0.0,0.0,0.0,0.0,0.0,0.0,0.0,0.0,0.0,0.0,0.0,0.0,0.0,0.0,0.0,0.0,0.0,0.0,0.0,0.0,0.0,0.0,0.0,0.0,0.0,0.0,0.0,0.0,0.0,0.0,0.0,0.0,0.0,0.0,0.0,0.0,0.0,0.0,0.0,0.0,0.0,0.0,0.0,0.0,0.0,0.0,0.0,0.0,0.0,0.0,0.0,-3.4963,-3.5479,-3.5223,-3.5223,-3.5493,-3.5507,-3.5507,-3.5507,-3.5354,-3.5273,0.0,0.0,0.0,0.0,0.0,0.0,0.0,0.0,0.0,0.0,0.0,0.0,0.0,0.0,0.0,0.0,0.0,0.0,0.0,0.0,0.0,0.0,0.0,0.0,0.0,0.0,0.0,0.0,0.0,0.0,0.0,0.0,0.0,0.0,0.0,0.0,0.0,0.0,0.0,0.0,0.0,0.0,-3.4357,-3.4141,0.0,0.0,0.0,-3.3954,-3.3834,0.0,0.0,0.0,0.0,0.0,0.0,0.0,0.0,0.0,0.0,0.0,0.0,0.0,0.0,0.0,0.0,0.0,0.0,0.0,0.0,0.0,0.0,0.0,0.0,0.0,0.0,0.0,0.0,0.0,0.0,0.0,0.0,0.0,0.0,0.0,0.0,0.0,0.0,0.0,0.0,0.0,0.0,0.0,0.0,0.0,0.0,0.0,0.0,0.0,0.0,0.0,0.0,0.0,0.0,0.0,0.0,0.0,-3.5383,-3.5122,-3.5155,-3.5493,-3.5507,-3.5507,-3.5493,-3.5239,0.0,0.0,0.0,0.0,0.0,0.0,0.0,0.0,0.0,0.0,0.0,0.0,0.0,0.0,0.0,0.0,0.0,0.0,0.0,0.0,0.0,0.0,0.0,0.0,0.0,0.0,0.0,-3.1789,0.0,0.0,0.0,0.0,0.0,0.0,0.0,0.0,0.0,0.0,0.0,0.0,0.0,0.0,-3.4123,-3.3928,-3.3842,-3.3815,0.0,0.0,-3.378,-3.368,-3.3652,-3.3606,0.0,0.0,0.0,0.0,0.0,0.0,0.0,0.0,0.0,0.0,0.0,0.0,0.0,0.0,0.0,0.0,0.0,0.0,0.0,0.0,0.0,0.0,0.0,0.0,0.0,0.0,0.0,0.0,0.0,0.0,0.0,0.0,0.0,0.0,0.0,0.0,0.0,0.0,0.0,0.0,0.0,0.0,0.0,0.0,0.0,0.0,0.0,0.0,0.0,0.0,0.0,0.0,0.0,0.0,0.0,-3.5088,-3.4851,-3.4981,-3.546,-3.5507,-3.5507,-3.5493,-3.5239,-3.5207,0.0,0.0,0.0,0.0,0.0,0.0,0.0,0.0,0.0,0.0,0.0,0.0,0.0,0.0,0.0,0.0,0.0,0.0,0.0,0.0,0.0,0.0,0.0,0.0,0.0,0.0,0.0,0.0,0.0,0.0,0.0,0.0,0.0,0.0,0.0,0.0,0.0,0.0,0.0,0.0,0.0,-3.4176,-3.4195,-3.3961,-3.3876,0.0,0.0,-3.368,-3.3302,-3.3243,-3.3093,-3.2681,0.0,0.0,0.0,0.0,0.0,0.0,0.0,0.0,0.0,0.0,0.0,0.0,0.0,0.0,0.0,0.0,0.0,0.0,0.0,0.0,0.0,0.0,0.0,0.0,0.0,0.0,0.0,0.0,0.0,0.0,0.0,0.0,0.0,0.0,0.0,0.0,0.0,0.0,0.0,0.0,0.0,0.0,0.0,0.0,0.0,0.0,0.0,0.0,0.0,0.0,0.0,0.0,0.0,-3.4237,-3.5088,-3.4636,-3.4695,-3.5223,-3.5088,-3.5018,-3.4999,-3.4696,-3.4597,0.0,0.0,0.0,0.0,0.0,0.0,0.0,0.0,0.0,0.0,0.0,0.0,0.0,0.0,0.0,0.0,0.0,0.0,0.0,0.0,0.0,0.0,0.0,0.0,0.0,0.0,0.0,0.0,-3.1789,-3.2298,-3.284,0.0,0.0,0.0,0.0,0.0,0.0,0.0,0.0,0.0,0.0,-3.3961,-3.3961,-3.385,0.0,0.0,-3.3868,-3.3753,-3.3578,-3.3379,-3.3154,-3.2934,-3.284,0.0,0.0,0.0,0.0,0.0,0.0,0.0,0.0,0.0,0.0,0.0,0.0,0.0,0.0,0.0,0.0,0.0,0.0,0.0,0.0,0.0,0.0,0.0,0.0,0.0,0.0,0.0,0.0,0.0,0.0,0.0,0.0,0.0,0.0,0.0,0.0,0.0,0.0,0.0,0.0,0.0,0.0,0.0,0.0,0.0,0.0,0.0,0.0,0.0,0.0,0.0,0.0,-3.4208,-3.4963,-3.4467,-3.4449,-3.4963,-3.4812,-3.4694,-3.4694,-3.4379,-3.4246,0.0,0.0,0.0,0.0,0.0,0.0,0.0,0.0,0.0,0.0,0.0,0.0,0.0,0.0,0.0,0.0,0.0,0.0,0.0,0.0,0.0,0.0,0.0,0.0,0.0,0.0,0.0,0.0,-3.1582,-3.2057,-3.2695,0.0,0.0,0.0,0.0,0.0,0.0,0.0,0.0,0.0,0.0,-3.3807,-3.3807,-3.4009,-3.4101,-3.3972,-3.4293,-3.444,-3.4157,-3.381,-3.3545,-3.3593,0.0,0.0,0.0,0.0,0.0,0.0,0.0,0.0,0.0,0.0,0.0,0.0,0.0,0.0,0.0,0.0,0.0,0.0,0.0,0.0,0.0,0.0,0.0,0.0,0.0,0.0,0.0,0.0,0.0,0.0,-3.8573,0.0,0.0,0.0,0.0,0.0,0.0,0.0,0.0,0.0,0.0,0.0,0.0,0.0,0.0,0.0,0.0,0.0,0.0,0.0,0.0,0.0,0.0,-3.4087,-3.4694,-3.4357,-3.4357,-3.4694,-3.4694,-3.4674,-3.4674,-3.4379,-3.4357,-3.4653,0.0,0.0,0.0,0.0,0.0,0.0,0.0,0.0,0.0,0.0,0.0,0.0,0.0,0.0,0.0,0.0,0.0,0.0,0.0,0.0,0.0,0.0,0.0,0.0,0.0,0.0,-3.123,-3.1565,-3.1825,0.0,0.0,0.0,0.0,0.0,0.0,0.0,0.0,0.0,0.0,-3.3807,-3.3807,-3.3825,-3.4504,-3.484,-3.4388,-3.5381,-3.5872,-3.4955,-3.4551,-3.4388,0.0,0.0,0.0,0.0,0.0,0.0,0.0,0.0,0.0,0.0,0.0,0.0,0.0,0.0,0.0,0.0,0.0,0.0,0.0,0.0,0.0,0.0,0.0,0.0,0.0,0.0,0.0,-3.9197,-3.8826,0.0,0.0,0.0,0.0,0.0,0.0,0.0,0.0,0.0,0.0,0.0,-3.2246,-3.1933,0.0,0.0,0.0,0.0,0.0,0.0,0.0,0.0,0.0,0.0,0.0,0.0,-3.4005,-3.4334,-3.4068,-3.4068,-3.4357,-3.4208,-3.4087,-3.4105,-3.4005,-3.3986,-3.4087,0.0,0.0,0.0,0.0,0.0,0.0,0.0,0.0,0.0,0.0,0.0,0.0,0.0,0.0,0.0,0.0,0.0,0.0,0.0,0.0,0.0,0.0,0.0,0.0,0.0,-3.1312,0.0,0.0,0.0,0.0,0.0,0.0,0.0,0.0,0.0,0.0,0.0,-3.3807,-3.3807,-3.4266,-3.4614,-3.4587,-3.533,-3.5805,0.0,0.0,0.0,0.0,0.0,0.0,0.0,0.0,0.0,0.0,0.0,0.0,0.0,0.0,-3.3148,-3.24,-3.1969,-3.161,-3.1167,0.0,0.0,0.0,0.0,0.0,0.0,0.0,0.0,0.0,0.0,0.0,0.0,0.0,0.0,-3.8961,0.0,-3.8707,0.0,0.0,0.0,0.0,0.0,0.0,0.0,0.0,-3.3547,-3.2808,-3.2056,-3.1733,-3.1747,0.0,-3.2212,-3.2248,0.0,0.0,0.0,0.0,0.0,0.0,0.0,0.0,-3.3917,-3.4186,-3.3935,-3.3876,-3.4043,-3.3876,-3.3807,-3.3807,-3.3807,-3.3807,-3.3807,-3.3807,-3.3807,0.0,0.0,0.0,0.0,0.0,0.0,0.0,0.0,0.0,0.0,0.0,0.0,0.0,0.0,0.0,0.0,0.0,0.0,0.0,0.0,0.0,0.0,0.0,-3.1329,0.0,0.0,0.0,0.0,0.0,0.0,0.0,0.0,0.0,-3.3136,-3.3569,-3.3917,-3.4192,-3.453,-3.4921,-3.5394,0.0,0.0,0.0,0.0,0.0,0.0,0.0,-3.5137,-3.4947,-3.4182,-3.3547,-3.3377,-3.3346,-3.3314,-3.3214,0.0,0.0,-3.2161,-3.1754,-3.1405,-3.1184,-3.0666,-3.0251,-3.0038,-2.8963,-2.7859,0.0,0.0,0.0,0.0,0.0,0.0,0.0,0.0,-3.9053,-3.8886,0.0,-3.8627,0.0,0.0,0.0,0.0,0.0,-3.6631,0.0,0.0,-3.3009,-3.1958,-3.1297,-3.1247,-3.119,-3.123,-3.1603,-3.1789,-3.1789,-3.2248,0.0,0.0,0.0,0.0,0.0,0.0,-3.3924,-3.4162,-3.3924,-3.3807,-3.3807,-3.3807,-3.3807,-3.3807,-3.3807,-3.3807,-3.3807,-3.3807,-3.3807,-3.3807,-3.3437,0.0,0.0,0.0,0.0,0.0,0.0,0.0,0.0,0.0,0.0,0.0,0.0,0.0,0.0,0.0,0.0,0.0,0.0,0.0,0.0,-3.119,0.0,0.0,0.0,0.0,0.0,0.0,0.0,0.0,0.0,0.0,-3.3068,-3.3549,-3.4083,-3.4889,0.0,0.0,0.0,0.0,-3.5968,-3.6004,-3.6697,-3.7079,-3.6586,-3.6159,-3.595,-3.5897,0.0,0.0,-3.374,-3.3068,-3.2755,-3.3129,-3.2834,-3.2519,-3.2417,-3.1576,-3.0937,-3.0965,-3.0592,-3.0081,-2.954,-2.93,-2.9073,-3.9314,0.0,0.0,0.0,0.0,-3.9238,-3.9063,-3.8785,-3.8418,-3.8194,-3.8099,-3.7791,0.0,0.0,0.0,0.0,0.0,0.0,-3.6204,-3.4948,-3.4064,-3.3076,-3.1981,-3.1472,-3.119,-3.119,-3.1312,-3.1372,-3.1389,-3.1524,-3.2127,-3.3184,0.0,0.0,0.0,0.0,-3.3823,-3.3917,-3.385,-3.3807,-3.3807,-3.3807,-3.3807,-3.3807,-3.3807,-3.3807,-3.3807,-3.3807,-3.3807,-3.3807,-3.3437,0.0,0.0,0.0,0.0,0.0,0.0,0.0,0.0,0.0,0.0,0.0,0.0,0.0,0.0,0.0,0.0,0.0,0.0,0.0,-3.1151,-3.119,-3.119,0.0,0.0,0.0,0.0,0.0,0.0,0.0,0.0,0.0,-3.302,-3.3399,-3.3931,0.0,0.0,-3.5563,-3.5987,-3.6754,-3.7326,-3.7326,-3.7853,0.0,-3.8068,-3.7363,-3.6753,-3.6539,-3.5492,-3.4641,-3.4429,-3.42,-3.3864,-3.3213,-3.2948,-3.2628,-3.1723,-3.1215,-3.0796,-3.0517,-3.0048,-2.9629,-2.9451,-2.9104,-2.8685,-3.8933,-3.8961,-3.9063,-3.9036,-3.8933,-3.8933,-3.8855,-3.8658,-3.835,-3.8216,-3.8183,-3.7948,-3.7667,-3.747,-3.7303,0.0,0.0,0.0,-3.6185,-3.4988,-3.4558,-3.3619,-3.2332,-3.1828,-3.1461,-3.1207,-3.1351,-3.1351,-3.119,-3.1562,-3.2109,-3.2872,0.0,0.0,-3.3807,-3.3807,-3.3807,-3.3807,-3.3807,-3.3807,-3.3807,-3.3807,-3.3807,-3.3807,-3.3807,-3.3807,-3.3807,-3.3807,-3.3753,-3.355,-3.3136,-3.2822,0.0,0.0,0.0,0.0,0.0,0.0,0.0,0.0,0.0,0.0,0.0,-2.9673,-2.9406,0.0,0.0,0.0,-3.0918,-3.119,-3.119,-3.119,0.0,0.0,0.0,0.0,0.0,0.0,0.0,-3.1613,-3.2537,-3.3282,-3.3573,-3.3809,-3.4349,-3.535,-3.574,-3.6148,-3.6931,0.0,-3.7685,-3.7859,-3.7998,-3.8101,-3.8101,-3.7596,-3.7051,-3.6664,-3.5645,-3.4929,-3.4894,-3.4796,-3.4463,-3.3876,-3.3549,-3.3201,-3.2479,-3.1715,-3.094,-3.0384,-2.9805,-2.9361,-2.9104,-2.8732,-2.8431,-3.8645,-3.8658,-3.8943,-3.8905,-3.8658,-3.8627,-3.8627,-3.8578,-3.8515,-3.8533,-3.8515,-3.8483,-3.8183,-3.7702,-3.7285,0.0,-3.6333,-3.6333,-3.5736,-3.4573,-3.4523,-3.3744,-3.2423,-3.2337,-3.1901,-3.123,-3.1565,-3.1565,-3.1252,-3.1986,-3.2417,-3.2433,-3.2484,-3.2916,-3.378,-3.3807,-3.3807,-3.3807,-3.3807,-3.3807,-3.3807,-3.3807,-3.3807,-3.3807,-3.3807,-3.3807,-3.378,-3.378,-3.3578,-3.3148,-3.2695,-3.2264,-3.1808,0.0,0.0,0.0,0.0,0.0,0.0,0.0,0.0,0.0,0.0,0.0,0.0,0.0,0.0,0.0,-3.0435,0.0,-3.1151,-3.119,0.0,0.0,0.0,-3.1207,-3.1275,-3.1867,-3.2347,-3.2357,0.0,0.0,-3.4404,-3.4539,-3.5115,-3.6486,-3.6221,-3.6523,-3.8291,-3.7667,-3.7303,-3.7755,-3.747,-3.7228,-3.7303,-3.719,-3.6943,-3.651,-3.5786,-3.5336,-3.5324,-3.5077,-3.4868,-3.46,-3.4373,-3.4042,-3.3968,-3.2429,-3.1188,-3.0467,-2.9754,-2.9134,-2.8559,-2.8415,-2.8222,-3.8099,-3.8132,-3.8603,-3.8504,-3.8099,-3.8117,-3.7877,-3.7524,-3.7097,-3.696,-3.6904,-3.6504,-3.6274,-3.6147,-3.6054,-3.5898,-3.5783,-3.5783,-3.5637,-3.5318,-3.4759,-3.4021,-3.3131,-3.2538,-3.1901,-3.1224,-3.1291,-3.1291,-3.123,-3.1406,-3.1694,-3.1968,-3.2298,-3.2934,-3.378,-3.3807,-3.3807,-3.3807,-3.3807,-3.3807,-3.3807,-3.3807,-3.3807,-3.3807,-3.3807,-3.3634,-3.3379,-3.3332,-3.3135,-3.2665,-3.2227,-3.1916,-3.1812,-3.1418,0.0,0.0,0.0,0.0,0.0,0.0,0.0,0.0,0.0,-2.8873,-2.8748,0.0,-2.9406,0.0,-3.0081,-3.0518,-3.0502,-3.0918,0.0,0.0,-3.119,-3.141,-3.1952,-3.2171,-3.251,-3.3068,-3.3795,-3.4303,-3.4472,-3.4996,-3.5625,-3.6364,-3.5998,-3.6,-3.6808,-3.6764,-3.6746,-3.7248,-3.7285,-3.719,-3.719,-3.6843,-3.6563,-3.6416,-3.6219,-3.6115,-3.6098,-3.6041,-3.5711,-3.4768,-3.4499,-3.3981,-3.3088,-3.2043,-3.1293,-3.0527,-2.9515,-2.8559,-2.7944,-2.781,-2.776,-3.7578,-3.7614,-3.7895,-3.7738,-3.7268,-3.772,-3.7649,-3.7173,-3.6865,-3.6764,-3.6724,-3.6207,-3.5985,-3.5941,-3.5694,-3.5639,-3.5639,-3.5639,-3.5639,-3.5605,-3.5182,-3.4583,-3.3862,-3.3144,-3.2398,-3.1681,-3.1348,-3.119,-3.119,-3.1372,-3.1565,-3.1808,-3.2264,-3.284,-3.3522,-3.3707,-3.3807,-3.3807,-3.3807,-3.3807,-3.3807,-3.3807,-3.3807,-3.3807,-3.3606,-3.3437,-3.3214,-3.3014,-3.2656,-3.2206,-3.1934,-3.1718,-3.1537,-3.1317,-3.119,0.0,0.0,0.0,0.0,0.0,0.0,0.0,0.0,0.0,0.0,0.0,-2.9104,-2.9361,-2.9717,-2.9892,-2.9908,-3.0208,-3.0393,-3.0393,-3.0674,-3.1037,-3.1417,-3.2012,-3.2529,-3.2941,-3.3894,-3.4526,-3.4559,-3.5172,-3.5694,-3.6028,-3.5766,-3.5898,-3.6603,-3.6764,-3.6882,-3.7135,-3.719,-3.719,-3.719,-3.6764,-3.6392,-3.6392,-3.6207,-3.6071,-3.6054,-3.6071,-3.5788,-3.5169,-3.4996,-3.479,-3.3951,-3.3034,-3.2208,-3.1478,-3.0354,-2.9162,-2.8237,-2.7784,-2.7524,-3.7114,-3.7114,-3.7173,-3.6882,-3.6457,-3.7342,-3.7415,-3.6981,-3.6999,-3.6999,-3.6981,-3.6498,-3.6291,-3.6249,-3.581,-3.5639,-3.5639,-3.5639,-3.5639,-3.5639,-3.5639,-3.5183,-3.451,-3.3862,-3.3083,-3.2298,-3.1642,-3.1275,-3.1207,-3.1582,-3.1733,-3.1716,-3.2179,-3.2648,-3.3105,-3.3458,-3.3671,-3.3807,-3.3807,-3.3807,-3.3807,-3.3807,-3.3807,-3.3807,-3.339,-3.3184,-3.3105,-3.2648,-3.2213,-3.1752,-3.1716,-3.1565,-3.123,-3.119,-3.119,0.0,-3.0617,0.0,0.0,0.0,0.0,0.0,0.0,0.0,0.0,-2.8383,-2.8591,-2.9134,-2.9225,-2.9271,-2.9271,-2.9441,-2.9534,-2.9566,-3.022,-3.0715,-3.086,-3.1967,-3.2788,-3.2884,-3.3957,-3.4736,-3.4767,-3.5253,-3.5639,-3.5622,-3.5622,-3.5898,-3.6746,-3.6904,-3.6904,-3.7058,-3.702,-3.6882,-3.6882,-3.6563,-3.6308,-3.6308,-3.6071,-3.5711,-3.5783,-3.5739,-3.5694,-3.5605,-3.5571,-3.5526,-3.5515,-3.4346,-3.329,-3.262,-3.1342,-3.0088,-2.8974,-2.8203,-2.752,-3.6539,-3.6563,-3.7038,-3.6865,-3.6416,-3.6603,-3.6399,-3.5898,-3.5898,-3.5898,-3.5898,-3.581,-3.5756,-3.5722,-3.5667,-3.5639,-3.5639,-3.5639,-3.5639,-3.5639,-3.5639,-3.5183,-3.4527,-3.4368,-3.3575,-3.2366,-3.2133,-3.1765,-3.119,-3.1291,-3.1329,-3.1312,-3.1733,-3.2161,-3.2598,0.0,0.0,0.0,-3.3807,-3.3807,-3.3807,-3.3807,-3.3807,-3.3788,-3.339,0.0,-3.2648,-3.2161,-3.175,-3.1351,-3.1329,0.0,0.0,0.0,0.0,0.0,0.0,0.0,0.0,0.0,0.0,0.0,-2.9012,-2.895,-2.7894,-2.776,-2.781,-2.7944,-2.8415,-2.8701,-2.8701,-2.9611,-3.0208,-3.0286,-3.1267,-3.2256,-3.2859,-3.3603,-3.432,-3.494,-3.5232,-3.5424,-3.5316,-3.5515,-3.5577,-3.5577,-3.5639,-3.5667,-3.5898,-3.5968,-3.6079,-3.6416,-3.6249,-3.5941,-3.5881,-3.5854,-3.5941,-3.6224,-3.6333,-3.6224,-3.6182,-3.6224,-3.6054,-3.5711,-3.5639,-3.5424,-3.4941,-3.4121,-3.3409,-3.2745,-3.145,-3.0298,-2.9559,-2.8876,-2.8174,-3.637,0.0,-3.6291,-3.6249,0.0,-3.6011,-3.5871,-3.5639,-3.5639,-3.5639,-3.5639,-3.5639,-3.5639,-3.5639,-3.5639,-3.5639,-3.5639,-3.5639,-3.5639,-3.5639,-3.5639,-3.538,-3.5004,-3.4682,-3.4117,-3.3372,-3.2645,-3.2087,-3.1715,-3.1376,-3.119,-3.119,-3.1411,-3.1842,-3.2484,-3.2727,-3.2927,-3.3158,-3.3176,-3.3135,-3.3166,-3.339,-3.3494,-3.3494,-3.3302,0.0,0.0,0.0,0.0,0.0,0.0,0.0,0.0,-3.119,0.0,-3.0781,-3.0477,-3.0038,-2.9451,-2.939,-2.9042,-2.814,-2.8352,-2.8255,-2.766,-2.756,-2.756,-2.761,-2.786,-2.8179,-2.853,-2.915,-2.9673,-2.9999,-3.0857,-3.1608,-3.2041,-3.2628,-3.3182,-3.3537,-3.3887,-3.4119,-3.4119,-3.4736,-3.5081,-3.5144,-3.5424,-3.5577,-3.5639,-3.5639,-3.5739,-3.5941,-3.5827,-3.5622,-3.5639,-3.5639,-3.5667,-3.5924,-3.6028,-3.6011,-3.6011,-3.6028,-3.5915,-3.5667,-3.5639,-3.547,-3.5098,-3.4284,-3.3495,-3.3061,-3.198,-3.0998,-3.0552,-2.9774,-2.8749,-3.64,-3.5825,-3.5673,-3.5639,-3.5639,-3.5639,-3.5639,-3.5639,0.0,0.0,0.0,-3.5639,-3.5639,-3.5639,-3.5639,-3.5639,-3.5639,-3.5639,-3.5639,-3.5639,-3.5639,-3.5639,-3.5605,-3.4979,-3.4638,-3.446,-3.3136,-3.2408,-3.228,-3.1546,-3.119,-3.119,-3.119,-3.1545,-3.2248,-3.2722,-3.2739,-3.2317,-3.2406,-3.251,-3.2502,-3.289,-3.3093,-3.3075,-3.3014,-3.2777,-3.2384,-3.1933,-3.1528,-3.123,-3.119,-3.119,-3.119,-3.119,-3.0918,-3.0351,-3.0293,-2.9805,-2.8732,-2.8654,-2.8415,-2.781,-2.766,-2.756,-2.756,-2.756,-2.756,-2.756,-2.7679,-2.7993,-2.8547,-2.8831,-2.9146,-2.9699,-3.0408,-3.0895,-3.0925,-3.1475,-3.2074,-3.1951,-3.2664,-3.2949,-3.2949,-3.3937,-3.4528,-3.4528,-3.4847,-3.5316,-3.5424,-3.5532,-3.5622,-3.5667,-3.5622,-3.5639,-3.5639,-3.5639,-3.5639,-3.5622,-3.5622,-3.5639,-3.5639,-3.5639,-3.5639,-3.5622,-3.5532,-3.5407,-3.5299,-3.4301,-3.3479,-3.3443,-3.2407,-3.1467,-3.1377,-3.0574,-2.9268,-3.6721,-3.6552,-3.5893,-3.5639,-3.5639,-3.5639,-3.5639,-3.5639,-3.5639,-3.5639,-3.5639,-3.5639,-3.5639,-3.5639,-3.5639,-3.5639,-3.5639,-3.5639,-3.5639,-3.5639,-3.5639,-3.5639,-3.5605,-3.552,-3.5099,-3.4494,-3.3642,-3.2916,-3.2256,-3.1546,-3.119,-3.119,-3.119,-3.1252,-3.1406,-3.1783,-3.18,-3.1419,-3.2121,-3.251,-3.2484,-3.255,-3.2583,-3.2583,-3.223,-3.1951,-3.1897,-3.1507,-3.1252,-3.119,-3.119,-3.119,-3.119,-3.119,-3.0918,-3.0351,-3.0293,-2.9995,-2.9316,-2.9271,-2.8996,-2.8415,-2.7894,-2.756,-2.756,-2.756,-2.756,-2.759,-2.8098,-2.8487,-2.8652,-2.9579,-3.0208,-3.0443,-3.1485,-3.2283,-3.2198,-3.2732,-3.313,-3.313,-3.3871,-3.3937,-3.3443,-3.3987,-3.4284,-3.3871,-3.3987,-3.4153,-3.4688,-3.5253,-3.5577,-3.5639,-3.5639,-3.5639,-3.5639,-3.5639,-3.5639,-3.5639,-3.5639,-3.5639,-3.5639,-3.5639,-3.5639,-3.5639,-3.5207,-3.4847,-3.4736,-3.3633,-3.2933,-3.2788,-3.2064,-3.1524,-3.1409,-3.0646,-2.9645,-3.7516,-3.6772,-3.64,-3.5994,-3.5639,-3.5639,-3.5639,-3.5639,-3.5639,-3.5639,-3.5639,-3.5639,-3.5639,-3.5639,-3.5639,-3.5639,-3.5639,-3.5639,-3.5639,-3.5577,-3.5224,-3.5253,-3.5515,-3.5224,-3.509,-3.5065,-3.4344,-3.3609,-3.2882,-3.2138,-3.1579,-3.1263,-3.1428,-3.1545,-3.1528,-3.1679,-3.1696,-3.1528,-3.1723,-3.178,-3.1787,-3.2021,-3.2127,-3.2127,-3.2127,-3.2057,-3.1825,-3.164,-3.1411,-3.119,-3.119,-3.119,-3.119,-3.119,-3.0918,-3.0335,-3.0293,-2.9892,-2.8966,-2.8591,-2.8304,-2.8057,-2.8107,-2.8128,-2.8143,-2.8128,-2.8128,-2.8143,-2.8727,-2.928,-2.9594,-3.0163,-3.0642,-3.1016,-3.1615,-3.2007,-3.2007,-3.2256,-3.2446,-3.2516,-3.2703,-3.281,-3.2516,-3.3077,-3.3427,-3.3145,-3.3339,-3.3735,-3.3971,-3.4284,-3.4816,-3.5424,-3.5639,-3.5639,-3.5577,-3.5639,-3.5639,-3.5639,-3.5639,-3.5639,-3.5639,-3.5577,-3.5577,-3.5577,-3.5052,-3.4688,-3.4592,-3.3547,-3.2788,-3.2547,-3.2023,-3.1452,-3.0896,-2.9827,-2.8284,-3.8328,-3.728,-3.7094,-3.6569,-3.5876,-3.569,-3.5639,-3.5639,-3.5639,-3.5639,-3.5639,-3.5639,-3.5639,-3.5639,-3.5639,-3.5639,-3.5577,-3.5407,-3.547,-3.5515,-3.4894,-3.4961,-3.5501,-3.5071,-3.5081,-3.5476,-3.4844,-3.4117,-3.3389,-3.2645,-3.1901,-3.1297,-3.1507,-3.166,-3.166,-3.166,-3.166,-3.164,-3.1334,-3.119,-3.119,-3.1507,-3.166,-3.1696,-3.2021,-3.2039,-3.1696,-3.166,-3.1545,-3.123,-3.119,-3.119,-3.119,-3.1055,-3.074,-3.0166,-2.9978,-2.9451,-2.8431,-2.8011,-2.7799,-2.7814,-2.8442,-2.8831,-2.8831,-2.8966,-2.8951,-2.8921,-2.94,-2.9983,-3.0387,-3.0657,-3.0956,-3.1407,-3.1467,-3.1524,-3.1524,-3.1467,-3.1467,-3.1467,-3.164,-3.1796,-3.1697,-3.212,-3.2532,-3.2477,-3.2826,-3.313,-3.3339,-3.3391,-3.3887,-3.4704,-3.5161,-3.5161,-3.5316,-3.5362,-3.5362,-3.5362,-3.5345,-3.5207,-3.5161,-3.5115,-3.5115,-3.4958,-3.4544,-3.4087,-3.3987,-3.3182,-3.2422,-3.2231,-3.1667,-3.0896,-2.9752,-2.8529,-2.6742,-3.8903,-3.87,-3.8058,-3.7364,-3.6586,-3.591,-3.5639,-3.5639,-3.5639,-3.5639,-3.5639,-3.5639,-3.5639,-3.5639,-3.5639,-3.5639,-3.5577,-3.4988,-3.5052,-3.547,-3.4894,-3.4921,-3.5527,-3.5505,-3.5515,-3.5493,-3.4878,-3.4167,-3.333,-3.2611,-3.1901,-3.1275,-3.1213,-3.1252,-3.1252,-3.1252,-3.1252,-3.1252,-3.123,-3.119,-3.119,-3.123,-3.1252,-3.1252,-3.1291,-3.1291,-3.1274,-3.1252,-3.123,-3.119,-3.119,-3.119,-3.1134,-3.0716,-3.0123,-2.9569,-2.9012,-2.8367,-2.7806,-2.8195,-2.8487,-2.8547,-2.9101,-2.949,-2.952,-2.9998,-3.0073,-2.9759,-3.0073,-3.0462,-3.0537,-3.1031,-3.1347,-3.1437,-3.1467,-3.1467,-3.1467,-3.1467,-3.1467,-3.1467,-3.2007,-3.2216,-3.1682,-3.212,-3.2272,-3.1796,-3.1838,-3.212,-3.2586,-3.268,-3.2879,-3.3547,-3.3786,-3.4037,-3.4479,-3.4688,-3.4688,-3.4688,-3.4688,-3.4496,-3.4186,-3.3937,-3.3836,-3.4087,-3.3407,-3.3039,-3.2788,-3.2176,-3.1682,-3.161,-3.0999,-2.995,-2.8349,-2.7167,-2.5684,-3.9377,-3.8971,-3.8667,-3.7872,-3.6755,-3.596,-3.5639,-3.5639,-3.5639,-3.5639,-3.5639,-3.5639,-3.5639,-3.5639,-3.5639,-3.5639,-3.5577,-3.5316,-3.5098,-3.4958,-3.4333,-3.4399,-3.4908,-3.456,-3.4593,-3.5011,-3.5093,-3.4364,-3.2911,-3.2042,-3.1478,-3.1224,-3.119,-3.119,-3.119,-3.119,-3.119,-3.119,-3.119,-3.119,-3.119,-3.119,-3.119,-3.119,-3.119,-3.119,-3.119,-3.119,-3.119,-3.119,-3.119,-3.119,-3.119,-3.0975,-3.074,-3.0452,-2.9942,-2.9326,-2.8736,-2.9048,-2.919,-2.919,-2.9774,-3.0133,-3.0163,-3.0717,-3.0986,-3.0821,-3.0986,-3.1106,-3.112,-3.1302,-3.1467,-3.1467,-3.1467,-3.1467,-3.1467,-3.1467,-3.1467,-3.1524,-3.1739,-3.1853,-3.1582,-3.1739,-3.1796,-3.1524,-3.1467,-3.1697,-3.1894,-3.1951,-3.2048,-3.2312,-3.2367,-3.2879,-3.3735,-3.4037,-3.3987,-3.3971,-3.3987,-3.3836,-3.3684,-3.3582,-3.3582,-3.3582,-3.2986,-3.2586,-3.2641,-3.2007,-3.1467,-3.1146,-3.0254,-2.9129,-2.792,-2.6333,-2.4551,-3.9783,-3.9292,-3.9089,-3.8261,-3.7043,-3.6265,-3.5808,-3.5577,-3.5424,-3.5316,-3.5316,-3.5161,-3.5052,-3.5115,-3.5424,-3.5515,-3.5333,-3.5161,-3.48,-3.4284,-3.3649,-3.3675,-3.4211,-3.3825,-3.3935,-3.4562,-3.5085,-3.4301,-3.2529,-3.1834,-3.1314,-3.1049,-3.1112,-3.119,-3.119,-3.119,-3.119,-3.119,-3.119,-3.119,-3.119,-3.119,-3.119,-3.119,-3.119,-3.119,-3.119,-3.119,-3.119,-3.119,-3.119,-3.119,-3.119,-3.124,-3.1165,-3.0988,-3.0493,-2.9996,-2.9526,-2.9697,-2.9834,-2.9879,-3.0417,-3.0791,-3.0881,-3.1255,-3.1452,-3.1437,-3.1467,-3.1452,-3.1467,-3.1467,-3.1467,-3.1467,-3.1467,-3.1467,-3.1467,-3.1467,-3.1467,-3.1467,-3.1524,-3.1467,-3.1467,-3.1524,-3.1524,-3.1524,-3.1467,-3.1467,-3.1467,-3.1524,-3.1524,-3.1467,-3.1524,-3.2048,-3.3077,-3.3339,-3.3339,-3.3339,-3.3339,-3.3235,-3.313,-3.3024,-3.3024,-3.2571,-3.2422,-3.2272,-3.2104,-3.1625,-3.0837,-3.0329,-2.9476,-2.8241,-2.7117,-2.5345,-2.3236,-4.007,-3.9918,-3.9259,-3.85,-3.7739,-3.6962,-3.6236,-3.5492,-3.4894,-3.464,-3.4544,-3.4053,-3.3735,-3.3836,-3.4958,-3.5207,-3.464,-3.4087,-3.3802,-3.3598,-3.3002,-3.3024,-3.3601,-3.3633,-3.3937,-3.4415,-3.464,-3.3945,-3.2557,-3.227,-3.1607,-3.0426,-3.0878,-3.1151,-3.1112,-3.1095,-3.119,-3.1055,-3.1095,-3.1151,-3.119,-3.119,-3.119,-3.1134,-3.119,-3.119,-3.119,-3.119,-3.119,-3.1207,-3.1202,-3.1185,-3.1252,-3.1324,-3.1177,-3.0663,-3.0066,-2.9696,-2.9687,-3.0173,-3.0477,-3.0552,-3.1031,-3.1392,-3.1332,-3.1407,-3.1467,-3.1467,-3.1467,-3.1467,-3.1467,-3.1467,-3.1467,-3.1467,-3.1467,-3.1467,-3.1467,-3.1467,-3.1467,-3.1467,-3.1467,-3.1467,-3.1467,-3.1467,-3.1467,-3.1467,-3.1467,-3.1467,-3.1467,-3.1467,-3.1467,-3.1467,-3.1524,-3.1796,-3.2477,-3.2641,-3.2641,-3.2625,-3.2571,-3.2477,-3.1951,-3.1582,-3.1682,-3.1739,-3.1739,-3.1682,-3.1452,-3.0763,-2.9752,-2.9024,-2.8228,-2.7223,-2.6117,-2.4267,-2.2147,-3.9799,-3.9232,-3.855,-3.7826,-3.7028,-3.5901,-3.5215,-3.4888,-3.4232,-3.3937,-3.3937,-3.3684,-3.3582,-3.3649,-3.4103,-3.4202,-3.3987,-3.4137,-3.3802,-3.3039,-3.2695,-3.2734,-3.2933,-3.2949,-3.3039,-3.3391,-3.4153,-3.3881,-3.2517,-3.1577,-3.0635,-2.9962,-3.0335,-3.0435,-3.0166,-3.0435,-3.0435,-3.0123,-3.0377,-3.0617,-3.0658,-3.1015,-3.1015,-3.0642,-3.1015,-3.119,-3.119,-3.119,-3.1393,-3.1867,-3.1483,-3.149,-3.1878,-3.1593,-3.1118,-3.0627,-3.0683,-3.0555,-3.0293,-3.0791,-3.1165,-3.118,-3.1375,-3.1467,-3.1467,-3.1467,-3.1467,-3.1467,-3.1467,-3.1467,-3.1467,-3.1467,-3.1467,-3.1467,-3.1467,-3.1467,-3.1467,-3.1467,-3.1467,-3.1467,-3.1467,-3.1467,-3.1467,-3.1467,-3.1467,-3.1467,-3.1467,-3.1467,-3.1467,-3.1467,-3.1467,-3.1467,-3.1524,-3.1582,-3.1811,-3.191,-3.1894,-3.191,-3.1853,-3.1838,-3.1524,-3.1524,-3.1582,-3.1567,-3.1467,-3.1219,-3.097,-3.0389,-2.924,-2.8048,-2.7196,-2.6117,-2.497,-2.2937,-2.0642,-3.961,-3.8879,-3.8344,-3.7622,-3.6606,-3.5432,-3.4793,-3.4521,-3.3641,-3.3287,-3.3235,-3.3024,-3.2917,-3.2971,-3.3182,-3.3114,-3.3024,-3.3617,-3.3323,-3.2327,-3.2216,-3.2231,-3.2231,-3.2216,-3.2398,-3.2749,-3.3735,-3.3453,-3.2026,-3.1117,-3.0225,-2.9243,-2.9717,-2.9821,-2.954,-2.9805,-2.9777,-2.954,-2.9821,-2.9995,-3.0081,-3.0393,-3.0435,-3.0156,-3.0608,-3.0967,-3.0967,-3.095,-3.1283,-3.1812,-3.1577,-3.1694,-3.2283,-3.1789,-3.1353,-3.1223,-3.129,-3.1277,-3.0923,-3.127,-3.1467,-3.1467,-3.1467,-3.1467,-3.1467,-3.1467,-3.1467,-3.1467,-3.1467,-3.1467,-3.1467,-3.1467,-3.1467,-3.1467,-3.1467,-3.1467,-3.1467,-3.1467,-3.1467,-3.1467,-3.1467,-3.1467,-3.1467,-3.1467,-3.1467,-3.1467,-3.1467,-3.1467,-3.1467,-3.1467,-3.1467,-3.1467,-3.1467,-3.1351,-3.1336,-3.1379,-3.1567,-3.1567,-3.164,-3.1524,-3.1409,-3.1467,-3.1409,-3.1409,-3.1219,-3.0837,-3.0389,-2.9875,-2.8752,-2.7354,-2.613,-2.4988,-2.3403,-2.153,-1.939,-3.9542,-3.8783,-3.8854,-3.788,-3.654,-3.5745,-3.517,-3.4349,-3.3154,-3.2586,-3.2532,-3.1894,-3.1739,-3.1739,-3.2327,-3.2216,-3.1894,-3.2422,-3.2327,-3.164,-3.1582,-3.1582,-3.1582,-3.1625,-3.2007,-3.2602,-3.3235,-3.2558,-3.097,-3.1033,-3.0321,-2.895,-2.912,-2.9316,-2.9316,-2.9316,-2.9361,-2.9271,-2.9316,-2.9406,-2.9406,-2.9544,-2.9592,-2.9566,-3.011,-3.0494,-3.0463,-3.0478,-3.0876,-3.1454,-3.1454,-3.174,-3.2196,-3.1779,-3.1689,-3.209,-3.1834,-3.1552,-3.148,-3.1495,-3.1467,-3.1467,-3.1467,-3.1467,-3.1467,-3.1467,-3.1467,-3.1467,-3.1467,-3.1467,-3.1482,-3.1409,-3.1409,-3.1467,-3.1467,-3.1467,-3.1467,-3.1467,-3.1467,-3.1467,-3.1467,-3.1482,-3.1482,-3.1351,-3.1351,-3.1336,-3.1219,-3.1204,-3.1219,-3.1146,-3.1336,-3.1351,-3.1029,-3.0703,-3.0777,-3.0911,-3.1146,-3.1394,-3.1467,-3.1482,-3.1292,-3.1278,-3.1087,-3.0955,-3.045,-3.0072,-2.9073,-2.8447,-2.7495,-2.6159,-2.5031,-2.3756,-2.2128,-2.04,-1.8498,-3.806,-3.735,-3.7306,-3.6734,-3.5784,-3.4652,-3.4025,-3.3704,-3.2394,-3.1853,-3.1796,-3.1582,-3.1467,-3.1524,-3.1739,-3.1739,-3.1524,-3.1739,-3.1697,-3.1524,-3.1467,-3.1467,-3.1467,-3.1467,-3.191,-3.2437,-3.2272,-3.1921,-3.1263,-3.0566,-2.9581,-2.8784,-2.868,-2.8559,-2.8271,-2.8543,-2.8591,-2.8255,-2.8606,-2.8779,-2.8873,-2.9656,-2.9894,-2.9562,-3.0107,-3.0468,-3.0486,-3.0851,-3.1437,-3.2107,-3.1656,-3.1517,-3.1726,-3.1576,-3.1554,-3.1751,-3.164,-3.1467,-3.1467,-3.1467,-3.1467,-3.1467,-3.1467,-3.1467,-3.1467,-3.1467,-3.1467,-3.1467,-3.1467,-3.1467,-3.1409,-3.097,-3.0911,-3.1409,-3.1467,-3.1409,-3.1336,-3.1409,-3.1467,-3.1467,-3.1467,-3.1278,-3.0837,-3.0644,-3.0644,-3.0584,-3.0269,-3.0011,-3.045,-3.0269,-2.9813,-2.9752,-2.9752,-2.9875,-2.9766,-2.9827,-3.0011,-3.0389,-3.0658,-3.0837,-3.0837,-3.0777,-3.0644,-3.0151,-2.9586,-2.8815,-2.7839,-2.6828,-2.5886,-2.4767,-2.3522,-2.2229,-2.1006,-1.9233,-1.7241,-3.7322,-3.6615,-3.66,-3.6165,-3.5355,-3.4068,-3.3499,-3.3305,-3.2093,-3.1467,-3.1524,-3.1467,-3.1467,-3.1467,-3.1467,-3.1467,-3.1467,-3.1467,-3.1467,-3.1467,-3.1467,-3.1467,-3.1467,-3.1467,-3.1682,-3.2023,-3.1754,-3.1392,-3.1151,-3.0135,-2.925,-2.8696,-2.8293,-2.7993,-2.7675,-2.7944,-2.7944,-2.771,-2.7993,-2.8189,-2.836,-2.9226,-2.9534,-2.9337,-3.002,-3.0463,-3.0503,-3.1082,-3.1644,-3.1949,-3.1651,-3.147,-3.1495,-3.1509,-3.1467,-3.1467,-3.1467,-3.1467,-3.1467,-3.1467,-3.1467,-3.1467,-3.1467,-3.1467,-3.1467,-3.1467,-3.1409,-3.1087,-3.1336,-3.1219,-3.0644,-3.0524,-3.045,-3.051,-3.051,-3.0584,-3.0569,-3.0584,-3.051,-3.045,-3.0524,-3.0329,-2.9997,-2.9813,-2.9813,-2.969,-2.938,-2.9066,-2.9566,-2.9393,-2.9066,-2.8989,-2.9178,-2.9066,-2.862,-2.8684,-2.8862,-2.9254,-2.9642,-2.9827,-2.9889,-2.995,-2.9889,-2.8837,-2.816,-2.7052,-2.6092,-2.5115,-2.4171,-2.2998,-2.1936,-2.1017,-1.9817,-1.7801,-1.5877,-3.7219,-3.6554,-3.6554,-3.6117,-3.5325,-3.4068,-3.3499,-3.329,-3.2108,-3.1467,-3.1467,-3.1467,-3.1467,-3.1467,-3.1467,-3.1467,-3.1467,-3.1467,-3.1467,-3.1467,-3.1467,-3.1467,-3.1467,-3.1467,-3.1582,-3.1582,-3.1539,-3.1195,-3.0769,-3.0083,-2.931,-2.8727,-2.8135,-2.7655,-2.764,-2.7625,-2.766,-2.7625,-2.761,-2.7675,-2.781,-2.8441,-2.8862,-2.8899,-2.9978,-3.0638,-3.0758,-3.1189,-3.1504,-3.1509,-3.1492,-3.1492,-3.1524,-3.1467,-3.1467,-3.1467,-3.1467,-3.1467,-3.1482,-3.1336,-3.1336,-3.1278,-3.1161,-3.1336,-3.1087,-3.1014,-3.0777,-3.0343,-3.0763,-3.0658,-2.9642,-2.9566,-2.9628,-2.8989,-2.9129,-2.924,-2.9052,-2.9129,-2.9317,-2.9178,-2.9052,-2.8989,-2.9002,-2.8939,-2.8939,-2.8876,-2.8748,-2.862,-2.8812,-2.8684,-2.8812,-2.862,-2.8363,-2.8168,-2.7736,-2.7802,-2.792,-2.7933,-2.8268,-2.8429,-2.8493,-2.8557,-2.8257,-2.7262,-2.6319,-2.5282,-2.4432,-2.3546,-2.2523,-2.1318,-2.0514,-1.9864,-1.8438,-1.6473,-1.4996,-3.5958,-3.5782,-3.5782,-3.5668,-3.531,-3.4068,-3.3499,-3.332,-3.2093,-3.1467,-3.1467,-3.1467,-3.1467,-3.1467,-3.1467,-3.1467,-3.1467,-3.1482,-3.1467,-3.1467,-3.1467,-3.1467,-3.1467,-3.1467,-3.1467,-3.1467,-3.1467,-3.145,-3.1225,-3.0537,-2.9909,-2.931,-2.8652,-2.8068,-2.7664,-2.7604,-2.756,-2.756,-2.7625,-2.7859,-2.8353,-2.8966,-2.9549,-3.0073,-3.0806,-3.121,-3.1255,-3.1362,-3.1467,-3.1467,-3.1467,-3.1467,-3.1467,-3.1467,-3.1467,-3.1409,-3.1467,-3.1467,-3.1351,-3.0896,-3.0644,-3.0524,-3.0147,-2.9704,-2.9642,-2.969,-2.9566,-2.938,-2.958,-2.9504,-2.8989,-2.862,-2.8051,-2.7471,-2.8182,-2.8876,-2.8862,-2.8989,-2.8989,-2.8989,-2.8925,-2.862,-2.8182,-2.8051,-2.8038,-2.7986,-2.7736,-2.7484,-2.7868,-2.7524,-2.7324,-2.7217,-2.7027,-2.696,-2.6905,-2.6973,-2.7015,-2.6803,-2.685,-2.6869,-2.6712,-2.6541,-2.5845,-2.4958,-2.4097,-2.3117,-2.274,-2.2229,-2.1027,-1.9619,-1.924,-1.864,-1.7065,-1.5296,-1.4196,-3.5489,-3.5489,-3.5489,-3.5325,-3.4966,-3.3933,-3.3335,-3.2916,-3.2018,-3.1467,-3.1467,-3.1467,-3.1467,-3.1467,-3.1467,-3.1278,-3.1087,-3.1351,-3.1292,-3.097,-3.0955,-3.1146,-3.1394,-3.1467,-3.1467,-3.1467,-3.1467,-3.1467,-3.1347,-3.0836,-3.0313,-2.9924,-2.9325,-2.8682,-2.8083,-2.8008,-2.7895,-2.7694,-2.7829,-2.8233,-2.8622,-2.952,-3.0058,-3.0582,-3.1165,-3.1467,-3.1467,-3.1467,-3.1467,-3.1467,-3.1467,-3.1467,-3.1467,-3.1467,-3.1351,-3.1087,-3.0955,-3.0851,-3.045,-3.0011,-2.9766,-2.9704,-2.9178,-2.9052,-2.9066,-2.8989,-2.8925,-2.8505,-2.8748,-2.862,-2.7986,-2.7484,-2.704,-2.6782,-2.7351,-2.7934,-2.7934,-2.7868,-2.7934,-2.792,-2.792,-2.7789,-2.7229,-2.7217,-2.7229,-2.7175,-2.6918,-2.6905,-2.7027,-2.6358,-2.5873,-2.5873,-2.5569,-2.5405,-2.5392,-2.5392,-2.5399,-2.5281,-2.499,-2.5044,-2.467,-2.4401,-2.3854,-2.2994,-2.198,-2.1235,-2.0888,-2.0286,-1.896,-1.7988,-1.7852,-1.7189,-1.5641,-1.4426,-1.3397,-3.5489,-3.5489,-3.5489,-3.5115,-3.4472,-3.3769,-3.314,-3.2497,-3.178,-3.1467,-3.1467,-3.1467,-3.1467,-3.1467,-3.1278,-3.097,-3.0404,-3.0763,-3.0644,-3.0329,-3.0208,-3.0418,-3.0925,-3.1176,-3.1351,-3.1467,-3.1467,-3.1467,-3.142,-3.0911,-3.0597,-3.0342,-2.9894,-2.9355,-2.8831,-2.8697,-2.8368,-2.818,-2.8457,-2.8816,-2.9116,-2.9909,-3.0462,-3.0776,-3.1195,-3.1452,-3.1467,-3.1467,-3.1467,-3.1467,-3.1467,-3.1467,-3.1467,-3.1467,-3.1087,-3.0584,-3.0389,-3.0086,-2.9254,-2.9066,-2.8876,-2.8812,-2.8748,-2.8748,-2.8556,-2.8427,-2.8233,-2.7604,-2.8298,-2.7868,-2.7027,-2.6589,-2.6589,-2.6521,-2.6577,-2.6533,-2.6383,-2.6452,-2.6521,-2.6521,-2.6521,-2.6521,-2.6452,-2.6383,-2.6383,-2.6701,-2.6302,-2.5836,-2.5824,-2.5346,-2.4992,-2.485,-2.4409,-2.3734,-2.3734,-2.3734,-2.3686,-2.3598,-2.3163,-2.2891,-2.2376,-2.2105,-2.1866,-2.1275,-2.0218,-1.9469,-1.9012,-1.8104,-1.7075,-1.6385,-1.628,-1.55,-1.4569,-1.3541,-1.2517,-3.5489,-3.5489,-3.5489,-3.5115,-3.4427,-3.3769,-3.311,-3.2437,-3.175,-3.1409,-3.1467,-3.1467,-3.1409,-3.1394,-3.0763,-3.0464,-3.0086,-2.9827,-2.9393,-2.9317,-2.9254,-2.9317,-2.9715,-3.0172,-3.0851,-3.1278,-3.1467,-3.1467,-3.1377,-3.12,-3.0959,-3.0425,-3.0179,-2.9998,-2.9406,-2.9247,-2.9325,-2.919,-2.931,-2.9594,-2.9939,-3.0242,-3.0663,-3.1008,-3.1261,-3.1394,-3.1467,-3.1467,-3.1467,-3.1467,-3.1409,-3.1278,-3.1467,-3.1467,-3.1029,-3.0389,-3.0208,-2.9813,-2.9052,-2.8298,-2.7999,-2.7934,-2.7537,-2.7027,-2.7027,-2.7162,-2.7027,-2.6769,-2.6905,-2.6973,-2.6508,-2.6452,-2.6383,-2.6383,-2.6383,-2.6094,-2.5664,-2.6013,-2.6383,-2.6383,-2.6302,-2.6452,-2.6383,-2.5581,-2.5652,-2.6094,-2.5569,-2.4767,-2.448,-2.4337,-2.4036,-2.3818,-2.3305,-2.2776,-2.2702,-2.2467,-2.1988,-2.1638,-2.1083,-2.0762,-2.0234,-1.9808,-1.961,-1.9182,-1.8438,-1.7827,-1.7362,-1.693,-1.6158,-1.5438,-1.4657,-1.3924,-1.3194,-1.2311,-1.1415,-3.5489,-3.5394,-3.4727,-3.4273,-3.3901,-3.2892,-3.2256,-3.1945,-3.1265,-3.0955,-3.0837,-3.0524,-3.0343,-3.0315,-2.9889,-2.9518,-2.9066,-2.8684,-2.862,-2.8812,-2.8684,-2.8638,-2.8899,-2.9099,-2.9656,-3.0717,-3.0925,-3.0955,-3.0955,-3.0881,-3.0454,-2.9838,-2.9795,-2.9668,-2.9516,-2.9498,-2.9474,-2.96,-2.9894,-3.0193,-3.0462,-3.0408,-3.0221,-3.0317,-3.0329,-3.0329,-3.0254,-3.0254,-3.0315,-3.0329,-3.0389,-3.0763,-3.1278,-3.1087,-3.0524,-2.9813,-2.9254,-2.8684,-2.7868,-2.7417,-2.7175,-2.7162,-2.6714,-2.6589,-2.6521,-2.6521,-2.6521,-2.6521,-2.6452,-2.6383,-2.5873,-2.5804,-2.5804,-2.5804,-2.5804,-2.5523,-2.5229,-2.5441,-2.5581,-2.5276,-2.4981,-2.4981,-2.4838,-2.4552,-2.4552,-2.4767,-2.4612,-2.3879,-2.3734,-2.3526,-2.2999,-2.2702,-2.2264,-2.1962,-2.1811,-2.1343,-2.0426,-1.9642,-1.8758,-1.8409,-1.8074,-1.766,-1.7399,-1.6985,-1.6729,-1.6404,-1.6,-1.5579,-1.5217,-1.4514,-1.365,-1.2625,-1.1736,-1.0989,-1.0018,-3.4934,-3.486,-3.3419,-3.2925,-3.2768,-3.1608,-3.1058,-3.0969,-3.0389,-3.0086,-3.0025,-2.9317,-2.9254,-2.9052,-2.8862,-2.8298,-2.7736,-2.7604,-2.7868,-2.8168,-2.7802,-2.7881,-2.813,-2.8078,-2.8352,-2.9783,-3.0007,-3.0072,-3.0072,-3.0072,-2.9785,-2.915,-2.9038,-2.9181,-2.9237,-2.9256,-2.9289,-2.9475,-2.9796,-3.0059,-3.0104,-3.0012,-2.9695,-2.9366,-2.9254,-2.924,-2.924,-2.924,-2.9115,-2.8989,-2.8989,-2.9752,-3.051,-3.0524,-2.9704,-2.8876,-2.8247,-2.7604,-2.704,-2.6658,-2.6589,-2.6521,-2.6521,-2.6533,-2.6521,-2.6452,-2.6314,-2.6082,-2.5943,-2.5511,-2.4862,-2.4779,-2.4779,-2.4779,-2.4791,-2.4707,-2.4552,-2.4552,-2.4108,-2.3963,-2.4036,-2.4108,-2.3806,-2.3588,-2.3514,-2.3379,-2.322,-2.3147,-2.2925,-2.2553,-2.2038,-2.1497,-2.1125,-2.0256,-2.0012,-1.9887,-1.8976,-1.8276,-1.7136,-1.6659,-1.6298,-1.584,-1.5644,-1.5443,-1.5188,-1.5021,-1.4807,-1.445,-1.4019,-1.3448,-1.2565,-1.1601,-1.0634,-0.9669,-0.8685,-3.2412,-3.2356,-3.1671,-3.1068,-3.0614,-3.0252,-2.9911,-2.9449,-2.9317,-2.9192,-2.9192,-2.9066,-2.8862,-2.8734,-2.8168,-2.7471,-2.6918,-2.685,-2.6905,-2.7095,-2.6837,-2.7027,-2.7027,-2.704,-2.7377,-2.8078,-2.8748,-2.9129,-2.9178,-2.9178,-2.9002,-2.8939,-2.8862,-2.8864,-2.8948,-2.9011,-2.9024,-2.9181,-2.9336,-2.9421,-2.9355,-2.9268,-2.9066,-2.8748,-2.8684,-2.8734,-2.8862,-2.8925,-2.8989,-2.8989,-2.8989,-2.9115,-2.9303,-2.9254,-2.8748,-2.8182,-2.7736,-2.7217,-2.6658,-2.6521,-2.6521,-2.6521,-2.6383,-2.6452,-2.6452,-2.6302,-2.5873,-2.5217,-2.4552,-2.3963,-2.3806,-2.3734,-2.3745,-2.3745,-2.3672,-2.3514,-2.285,-2.2702,-2.2925,-2.2999,-2.322,-2.322,-2.285,-2.2553,-2.2553,-2.2339,-2.2124,-2.2113,-2.2103,-2.1593,-2.0924,-2.0459,-1.9904,-1.8939,-1.7971,-1.7937,-1.7544,-1.7156,-1.6256,-1.5602,-1.5112,-1.439,-1.3992,-1.3803,-1.4011,-1.4163,-1.3875,-1.3375,-1.2785,-1.2191,-1.1304,-1.049,-0.9513,-0.8533,-0.7693,-3.1362,-3.1306,-3.0255,-2.9912,-2.9872,-2.91,-2.8893,-2.8903,-2.857,-2.8312,-2.8182,-2.792,-2.7723,-2.7604,-2.7351,-2.685,-2.6589,-2.6521,-2.6521,-2.6521,-2.6521,-2.6521,-2.6521,-2.6521,-2.6714,-2.7095,-2.755,-2.7986,-2.8298,-2.8312,-2.8117,-2.7736,-2.7736,-2.7934,-2.8247,-2.8285,-2.8556,-2.8798,-2.8939,-2.8939,-2.8862,-2.862,-2.8182,-2.7802,-2.7736,-2.7736,-2.7736,-2.7736,-2.767,-2.767,-2.7657,-2.7736,-2.7736,-2.7723,-2.7736,-2.7524,-2.7284,-2.6973,-2.6589,-2.6521,-2.6521,-2.6452,-2.6094,-2.5734,-2.5581,-2.5217,-2.4767,-2.4181,-2.3379,-2.2702,-2.2702,-2.2702,-2.2702,-2.2702,-2.2702,-2.2478,-2.2038,-2.1593,-2.1745,-2.2113,-2.1897,-2.1832,-2.1756,-2.1603,-2.1593,-2.1375,-2.1011,-2.0991,-2.1125,-2.0682,-2.0001,-1.9274,-1.8709,-1.7738,-1.6764,-1.6503,-1.6374,-1.5966,-1.5248,-1.4612,-1.3914,-1.3163,-1.256,-1.2117,-1.2478,-1.2997,-1.2478,-1.1822,-1.1378,-1.0932,-1.034,-0.9518,-0.838,-0.7318,-0.6546,-3.0282,-3.0174,-2.8796,-2.8678,-2.9064,-2.8,-2.7868,-2.8247,-2.7723,-2.7484,-2.7364,-2.685,-2.6589,-2.6521,-2.6521,-2.6521,-2.6521,-2.6521,-2.6521,-2.6521,-2.6521,-2.6521,-2.6521,-2.6521,-2.6521,-2.6577,-2.6645,-2.685,-2.7364,-2.7484,-2.7095,-2.6837,-2.6589,-2.6782,-2.7351,-2.7484,-2.7986,-2.8233,-2.8505,-2.8505,-2.8298,-2.7789,-2.7162,-2.6589,-2.6521,-2.6589,-2.6714,-2.6714,-2.6714,-2.6714,-2.6577,-2.6452,-2.6245,-2.6164,-2.6402,-2.6705,-2.6414,-2.6233,-2.6094,-2.5791,-2.5569,-2.5499,-2.5075,-2.4779,-2.4492,-2.3963,-2.322,-2.2999,-2.2328,-2.1745,-2.1735,-2.1735,-2.1745,-2.1745,-2.1745,-2.1669,-2.1441,-2.1155,-2.0867,-2.0867,-2.0576,-2.0644,-2.0857,-2.045,-2.044,-2.044,-2.007,-1.958,-1.9719,-1.9737,-1.9116,-1.8221,-1.7415,-1.6601,-1.5869,-1.5462,-1.5328,-1.5092,-1.4104,-1.3185,-1.2582,-1.1923,-1.1277,-1.0559,-1.1013,-1.131,-1.0789,-1.0415,-1.011,-0.9814,-0.9367,-0.8456,-0.7,-0.6069,-0.5372,-2.771,-2.7729,-2.7056,-2.6815,-2.6939,-2.6752,-2.6714,-2.6837,-2.6769,-2.6658,-2.6714,-2.6589,-2.6521,-2.6521,-2.6521,-2.6521,-2.6452,-2.6383,-2.6314,-2.6314,-2.6233,-2.6151,-2.6371,-2.6521,-2.6164,-2.6082,-2.6233,-2.6533,-2.6577,-2.6564,-2.6645,-2.6521,-2.6521,-2.6589,-2.6782,-2.685,-2.6714,-2.6837,-2.6905,-2.6918,-2.6837,-2.6701,-2.6508,-2.6371,-2.6302,-2.6233,-2.6094,-2.6094,-2.6164,-2.6233,-2.6383,-2.6025,-2.537,-2.5158,-2.4636,-2.4541,-2.4624,-2.5158,-2.5063,-2.4624,-2.4181,-2.4253,-2.3806,-2.3672,-2.3305,-2.2776,-2.2188,-2.2113,-2.1375,-2.0934,-2.0934,-2.0867,-2.0789,-2.0779,-2.0857,-2.0779,-2.0624,-2.0041,-1.9835,-1.9923,-1.9678,-2.0001,-2.0313,-1.9678,-1.9195,-1.9204,-1.9045,-1.863,-1.8132,-1.8132,-1.7463,-1.6324,-1.5403,-1.4587,-1.4176,-1.386,-1.384,-1.3858,-1.2964,-1.1878,-1.1425,-1.0721,-0.9514,-0.914,-0.9518,-0.9513,-0.8974,-0.8746,-0.8832,-0.8609,-0.8152,-0.6842,-0.5381,-0.4678,-0.4051,-2.6816,-2.6791,-2.6634,-2.6521,-2.6521,-2.6521,-2.6521,-2.6521,-2.6521,-2.6521,-2.6521,-2.6521,-2.6521,-2.6452,-2.6521,-2.6521,-2.6396,-2.5886,-2.5664,-2.5441,-2.5205,-2.4909,-2.4755,-2.4755,-2.4838,-2.4909,-2.4838,-2.4684,-2.5063,-2.5943,-2.6452,-2.6383,-2.6452,-2.6521,-2.6302,-2.6452,-2.6521,-2.6521,-2.6452,-2.6233,-2.5804,-2.5581,-2.5358,-2.4909,-2.4838,-2.4909,-2.4921,-2.485,-2.4838,-2.4767,-2.4767,-2.4624,-2.4253,-2.4108,-2.3891,-2.3672,-2.3294,-2.3588,-2.3963,-2.3672,-2.3452,-2.3294,-2.2914,-2.2414,-2.1962,-2.1517,-2.1231,-2.1231,-2.0857,-2.0644,-2.0566,-2.0576,-2.0576,-2.0489,-1.9923,-1.9766,-1.952,-1.8868,-1.855,-1.863,-1.8789,-1.8948,-1.9186,-1.8948,-1.8301,-1.806,-1.798,-1.773,-1.6976,-1.6226,-1.5321,-1.3917,-1.3159,-1.2395,-1.2145,-1.1895,-1.198,-1.1957,-1.1506,-1.0675,-1.0327,-0.9592,-0.8263,-0.731,-0.7226,-0.7145,-0.6992,-0.7379,-0.7761,-0.7306,-0.685,-0.5535,-0.4295,-0.3046,-0.2027,-2.5791,-2.5791,-2.6025,-2.6013,-2.5791,-2.6013,-2.6094,-2.6164,-2.6383,-2.6383,-2.6094,-2.5861,-2.5791,-2.6013,-2.5791,-2.5652,-2.6025,-2.5063,-2.4707,-2.4337,-2.3963,-2.3661,-2.3734,-2.3661,-2.3661,-2.3441,-2.3806,-2.3734,-2.4108,-2.4767,-2.5499,-2.5721,-2.5429,-2.5569,-2.5709,-2.5566,-2.5448,-2.5448,-2.5533,-2.5205,-2.4779,-2.4636,-2.4264,-2.3818,-2.3514,-2.3514,-2.3514,-2.3588,-2.3599,-2.3661,-2.3661,-2.3672,-2.322,-2.3147,-2.2861,-2.2563,-2.2038,-2.2038,-2.2489,-2.2563,-2.2787,-2.2563,-2.2264,-2.1451,-2.0944,-2.0576,-2.0644,-2.0722,-2.0245,-2.0157,-2.0157,-1.9923,-1.9511,-1.9195,-1.8957,-1.8709,-1.847,-1.79,-1.7658,-1.79,-1.79,-1.7415,-1.7577,-1.7819,-1.7568,-1.7082,-1.6838,-1.6748,-1.5741,-1.4559,-1.3393,-1.2145,-1.1804,-1.1209,-1.1037,-1.0783,-1.0611,-1.0162,-0.9771,-0.9399,-0.9152,-0.8137,-0.6817,-0.6002,-0.5384,-0.5065,-0.5057,-0.5912,-0.6538,-0.5761,-0.4988,-0.4448,-0.3361,-0.1877,-0.0078,-2.3672,-2.3818,-2.4707,-2.4552,-2.3891,-2.4707,-2.5075,-2.5217,-2.6013,-2.5804,-2.5075,-2.4337,-2.448,-2.4779,-2.448,-2.448,-2.5087,-2.4036,-2.3745,-2.3588,-2.3514,-2.322,-2.3073,-2.3073,-2.322,-2.322,-2.3073,-2.3147,-2.3368,-2.3294,-2.3734,-2.3734,-2.4108,-2.3879,-2.399,-2.4269,-2.4209,-2.4184,-2.4166,-2.3948,-2.3683,-2.3588,-2.3441,-2.3368,-2.3368,-2.3514,-2.3441,-2.322,-2.3147,-2.3073,-2.3073,-2.2776,-2.2264,-2.2113,-2.1821,-2.1375,-2.1165,-2.1088,-2.1231,-2.1231,-2.0944,-2.0867,-2.0789,-2.0789,-2.0323,-2.0489,-2.0566,-2.0167,-1.9441,-1.9125,-1.8798,-1.831,-1.8141,-1.798,-1.79,-1.7577,-1.7334,-1.709,-1.6927,-1.718,-1.6935,-1.6281,-1.5771,-1.6003,-1.6265,-1.5786,-1.5253,-1.5087,-1.3807,-1.2626,-1.1621,-1.0783,-1.0692,-1.0438,-1.0438,-1.0178,-0.9479,-0.8862,-0.8404,-0.8164,-0.7971,-0.6708,-0.5268,-0.4758,-0.4137,-0.3669,-0.3202,-0.3665,-0.3898,-0.3589,-0.3125,-0.2813,-0.1482,0.0312,0.1951,-2.3147,-2.2627,-2.2999,-2.3294,-2.3514,-2.3891,-2.4036,-2.4108,-2.448,-2.4469,-2.4047,-2.3672,-2.3672,-2.3818,-2.3806,-2.3672,-2.3891,-2.2999,-2.2702,-2.2328,-2.2113,-2.1745,-2.1756,-2.1821,-2.1669,-2.1821,-2.1745,-2.1745,-2.168,-2.1897,-2.1756,-2.1973,-2.285,-2.3441,-2.3543,-2.3312,-2.335,-2.3414,-2.3351,-2.3264,-2.266,-2.2553,-2.2328,-2.1756,-2.1745,-2.1756,-2.168,-2.1669,-2.1669,-2.1745,-2.1821,-2.1603,-2.1375,-2.1231,-2.1011,-2.0634,-2.0566,-2.0489,-2.0566,-2.0566,-2.0576,-2.0576,-2.0566,-2.0323,-1.9756,-1.9599,-1.9195,-1.8709,-1.831,-1.7989,-1.7827,-1.7585,-1.7415,-1.7172,-1.6846,-1.6437,-1.6108,-1.5861,-1.553,-1.5523,-1.5379,-1.4977,-1.4461,-1.4021,-1.4378,-1.4475,-1.3944,-1.3159,-1.1963,-1.0935,-1.0,-0.9222,-0.9048,-0.8786,-0.8694,-0.8524,-0.8261,-0.7631,-0.7008,-0.6628,-0.6258,-0.5065,-0.3832,-0.3398,-0.2971,-0.2425,-0.1956,-0.1566,-0.1644,-0.2345,-0.2032,-0.1486,0.0312,0.2343,0.3746,-2.2188,-2.1593,-2.1593,-2.1962,-2.2627,-2.2925,-2.3062,-2.3073,-2.3441,-2.3294,-2.3073,-2.2776,-2.2861,-2.2925,-2.2713,-2.285,-2.2702,-2.2113,-2.1745,-2.1375,-2.1088,-2.0644,-2.0576,-2.0644,-2.0867,-2.0576,-2.0576,-2.0722,-2.0789,-2.0644,-2.0799,-2.1231,-2.1821,-2.2339,-2.2489,-2.267,-2.2638,-2.264,-2.2558,-2.2366,-2.1614,-2.1517,-2.1451,-2.0789,-2.0789,-2.0789,-2.0867,-2.0867,-2.0789,-2.0789,-2.0799,-2.0722,-2.0644,-2.0576,-2.0576,-2.0489,-2.0323,-2.0167,-2.0167,-2.0489,-2.0245,-1.9511,-1.9923,-1.9441,-1.8877,-1.847,-1.8149,-1.7666,-1.718,-1.6854,-1.6772,-1.6363,-1.6041,-1.5718,-1.5553,-1.522,-1.488,-1.4545,-1.4041,-1.3704,-1.3457,-1.3021,-1.2845,-1.2316,-1.2407,-1.2413,-1.1724,-1.1198,-1.0514,-0.9479,-0.8619,-0.7921,-0.7478,-0.7041,-0.6602,-0.641,-0.613,-0.5739,-0.5135,-0.4692,-0.4103,-0.3117,-0.265,-0.2446,-0.2035,-0.1333,-0.0941,-0.0706,-0.1096,-0.18,-0.1017,0.0,0.1327,0.32,0.4598,-2.0722,-2.0634,-2.0644,-2.0722,-2.0944,-2.1659,-2.2027,-2.2113,-2.285,-2.2776,-2.1952,-2.1298,-2.1375,-2.1735,-2.1375,-2.1527,-2.1821,-2.1165,-2.0789,-2.0789,-2.0722,-2.0576,-2.0576,-2.0576,-2.0576,-2.0576,-2.0576,-2.0576,-2.0576,-2.0576,-2.0576,-2.0576,-2.1011,-2.1088,-2.0789,-2.0722,-2.0731,-2.0741,-2.0878,-2.0839,-2.0809,-2.0857,-2.0722,-2.0644,-2.0576,-2.0576,-2.0576,-2.0576,-2.0576,-2.0576,-2.0576,-2.0489,-2.0323,-2.0333,-2.0323,-2.0157,-1.9441,-1.9036,-1.9036,-1.9923,-1.9353,-1.8221,-1.8709,-1.847,-1.7666,-1.7334,-1.7172,-1.6527,-1.6198,-1.5786,-1.5379,-1.4977,-1.4741,-1.4489,-1.4405,-1.4055,-1.3711,-1.3112,-1.2595,-1.2339,-1.1477,-1.0783,-1.0778,-1.0692,-1.0611,-1.0351,-0.9579,-0.9061,-0.8798,-0.836,-0.7665,-0.6953,-0.6422,-0.5888,-0.5442,-0.4461,-0.4007,-0.3632,-0.3421,-0.3102,-0.2685,-0.2042,-0.1683,-0.1575,-0.1176,-0.0549,-0.0235,0.0078,0.0,0.0078,0.0704,0.1721,0.2891,0.4059,0.5381,-2.0576,-2.0576,-2.0576,-2.0576,-2.0644,-2.0934,-2.1078,-2.1155,-2.1385,-2.1385,-2.1078,-2.0712,-2.0712,-2.0857,-2.0867,-2.0789,-2.0944,-2.0944,-2.0576,-2.0576,-2.0576,-2.0576,-2.0576,-2.0576,-2.0576,-2.0576,-2.0576,-2.0576,-2.0576,-2.0576,-2.0576,-2.0576,-2.0576,-2.0576,-2.0644,-2.0576,-2.0654,-2.0654,-2.0664,-2.0654,-2.0576,-2.0576,-2.0576,-2.0576,-2.0576,-2.0576,-2.0566,-2.0566,-2.0489,-2.0411,-2.0411,-2.0079,-1.9678,-1.952,-1.9195,-1.8709,-1.79,-1.7496,-1.7334,-1.7649,-1.806,-1.7585,-1.7504,-1.7334,-1.6437,-1.6273,-1.5869,-1.547,-1.5144,-1.4734,-1.4489,-1.4405,-1.4243,-1.3984,-1.3724,-1.3105,-1.2583,-1.1729,-1.1214,-1.1214,-1.0611,-0.9923,-0.9662,-0.9396,-0.9226,-0.896,-0.8269,-0.8009,-0.7746,-0.7573,-0.7048,-0.6245,-0.5622,-0.4999,-0.4283,-0.3393,-0.2681,-0.2407,-0.2209,-0.192,-0.1441,0.0,-0.0723,-0.0554,-0.0236,0.0157,0.0706,0.1253,0.1878,0.2267,0.2657,0.2969,0.3748,0.4838,0.6167,-2.0576,-2.0576,-2.0576,-2.0576,-2.0576,-2.0576,-2.0576,-2.0576,-2.0576,-2.0576,-2.0644,-2.0644,-2.0644,-2.0644,-2.0576,-2.0576,-2.0576,-2.0576,-2.0576,-2.0576,-2.0576,-2.0576,-2.0576,-2.0576,-2.0576,-2.0566,-2.0566,-2.0576,-2.0576,-2.0576,-2.0576,-2.0576,-2.0566,-2.0576,-2.0576,-2.0576,-2.0576,-2.0576,-2.0576,-2.0576,-2.0576,-2.0576,-2.0576,-2.0576,-2.0576,-2.0576,-2.0489,-2.0323,-2.0079,-2.0001,-1.9678,-1.9195,-1.863,-1.831,-1.798,-1.7496,-1.6846,-1.6281,-1.5786,-1.5711,-1.6041,-1.6041,-1.6445,-1.6198,-1.5462,-1.5137,-1.4817,-1.4412,-1.4082,-1.3997,-1.3997,-1.3913,-1.3385,-1.3209,-1.2601,-1.1901,-1.1466,-1.0697,-1.0009,-1.0009,-0.957,-0.8969,-0.8536,-0.8185,-0.7921,-0.757,-0.7129,-0.6864,-0.6602,-0.6514,-0.6068,-0.5176,-0.4376,-0.3662,-0.2949,-0.2325,-0.1701,-0.1255,-0.0978,-0.0705,0.0,0.0,0.0,0.0478,0.079,0.1178,0.1957,0.2579,0.2969,0.3589,0.413,0.4365,0.4683,0.5696,0.6868,-2.0576,-2.0576,-2.0576,-2.0576,-2.0576,-2.0489,-2.0489,-2.0566,-2.0576,-2.0576,-2.0576,-2.0576,-2.0489,-2.0479,-2.0566,-2.0489,-2.0489,-2.0489,-2.0576,-2.0576,-2.0576,-2.0576,-2.0576,-2.0576,-2.0576,-2.0566,-2.0411,-2.0167,-2.0489,-1.9923,-2.0001,-2.0167,-1.9913,-1.9923,-1.9923,-1.9923,-2.0167,-2.0401,-2.0323,-2.0245,-2.0167,-2.0089,-1.9923,-1.9923,-1.9923,-1.9923,-1.9756,-1.9353,-1.9036,-1.863,-1.8069,-1.7577,-1.7253,-1.7261,-1.7261,-1.6854,-1.6034,-1.522,-1.4573,-1.458,-1.4314,-1.4468,-1.4949,-1.4803,-1.4566,-1.423,-1.3808,-1.3639,-1.3476,-1.3561,-1.3646,-1.2948,-1.2248,-1.1735,-1.1219,-1.0697,-1.0351,-0.9749,-0.9061,-0.8627,-0.8013,-0.7489,-0.7217,-0.6956,-0.6688,-0.5974,-0.5528,-0.5262,-0.5087,-0.5354,-0.4819,-0.3749,-0.2949,-0.2148,-0.1522,-0.1165,0.0,0.0,0.0,0.0,0.0,0.0,0.0,0.161,0.1743,0.22,0.2973,0.3515,0.3982,0.46,0.5523,0.5681,0.5925,0.6468,0.748,-2.0576,-2.0576,-2.0576,-2.0576,-2.0489,-1.9766,-1.9835,-2.0566,-2.0576,-2.0576,-2.0576,-2.0576,-2.0079,-1.9511,-2.0245,-2.0001,-2.0001,-2.0167,-2.0489,-2.0489,-2.0245,-2.0489,-2.0489,-2.0401,-2.0489,-2.0255,-1.9932,-1.9441,-1.9195,-1.8868,-1.8381,-1.8221,-1.8541,-1.847,-1.847,-1.831,-1.9274,-1.9835,-1.9678,-1.952,-1.9195,-1.8868,-1.8709,-1.855,-1.855,-1.855,-1.839,-1.806,-1.7819,-1.7666,-1.7423,-1.709,-1.6191,-1.6108,-1.5951,-1.5068,-1.4657,-1.4405,-1.4166,-1.4088,-1.373,-1.3027,-1.3171,-1.3704,-1.3633,-1.3294,-1.2857,-1.2687,-1.2431,-1.226,-1.2169,-1.1649,-1.1128,-1.0783,-1.0096,-0.9488,-0.9144,-0.8707,-0.8017,-0.7485,-0.6871,-0.6514,-0.6157,-0.5891,-0.5531,-0.4641,-0.4018,-0.3662,-0.3573,-0.384,-0.3573,-0.2503,-0.2058,-0.1344,-0.0807,0.0,0.0,0.0,0.0,0.1336,0.0,0.0,0.0,0.2925,0.3188,0.3544,0.4142,0.4683,0.5381,0.6307,0.7153,0.708,0.7161,0.7702,0.8309,-1.9687,-1.9353,-1.9756,-1.9756,-1.9195,-1.863,-1.8718,-1.9274,-1.9274,-1.9274,-1.9283,-1.9265,-1.8957,-1.847,-1.8877,-1.8868,-1.839,-1.8789,-1.9116,-1.9107,-1.9441,-1.914,-1.9298,-1.9335,-1.9152,-1.9002,-1.8816,-1.8301,-1.8069,-1.7827,-1.7342,-1.7423,-1.7342,-1.7261,-1.7423,-1.7585,-1.8069,-1.855,-1.8709,-1.839,-1.798,-1.7658,-1.7423,-1.718,-1.718,-1.718,-1.7098,-1.6927,-1.6683,-1.6527,-1.6445,-1.5794,-1.5054,-1.5061,-1.4977,-1.425,-1.425,-1.3808,-1.3379,-1.3288,-1.2681,-1.1986,-1.1638,-1.1992,-1.2163,-1.1906,-1.1729,-1.1558,-1.1042,-1.0697,-1.0438,-1.0269,-1.0096,-0.9927,-0.9061,-0.8281,-0.7841,-0.7489,-0.7048,-0.6514,-0.6068,-0.5622,-0.5267,-0.491,-0.4287,-0.3395,-0.2681,-0.2236,-0.2236,-0.2415,-0.2058,-0.1254,-0.1076,-0.0718,-0.009,0.0539,0.0,0.0,0.0,0.2397,0.2626,0.2921,0.3352,0.4014,0.4728,0.5154,0.5497,0.6247,0.7011,0.7859,0.8537,0.8827,0.8751,0.8761,0.9442,-1.831,-1.7496,-1.8399,-1.831,-1.7415,-1.7253,-1.7172,-1.7172,-1.709,-1.718,-1.7423,-1.7423,-1.7415,-1.7334,-1.7577,-1.7577,-1.7415,-1.7577,-1.7908,-1.7334,-1.7738,-1.7874,-1.7785,-1.7374,-1.7959,-1.7523,-1.7172,-1.709,-1.7017,-1.669,-1.6527,-1.7017,-1.6854,-1.6609,-1.6527,-1.6527,-1.6683,-1.6764,-1.7017,-1.6935,-1.709,-1.709,-1.7017,-1.6854,-1.6854,-1.6846,-1.6683,-1.6191,-1.5538,-1.522,-1.4901,-1.4334,-1.425,-1.3984,-1.3906,-1.3646,-1.347,-1.2863,-1.2419,-1.2163,-1.1558,-1.0864,-1.0438,-1.0351,-1.0265,-1.0524,-1.0524,-1.0351,-0.9836,-0.9488,-0.9226,-0.8965,-0.8707,-0.8444,-0.7834,-0.6949,-0.6236,-0.5974,-0.5708,-0.5354,-0.5087,-0.4641,-0.3838,-0.3484,-0.304,-0.2058,-0.1523,-0.1076,-0.0716,-0.0895,-0.0537,0.009,0.009,0.0358,0.0985,0.1612,0.1879,0.0,0.3129,0.3571,0.3804,0.3986,0.4227,0.4981,0.5716,0.64,0.688,0.7305,0.7795,0.8765,0.9518,1.049,1.0565,1.0121,1.0421,-1.7577,-1.7342,-1.7577,-1.7496,-1.718,-1.6437,-1.6116,-1.6026,-1.5228,-1.5801,-1.7098,-1.718,-1.6764,-1.6191,-1.6772,-1.6764,-1.6273,-1.6601,-1.718,-1.7098,-1.7098,-1.6796,-1.7139,-1.6862,-1.709,-1.7032,-1.6598,-1.5703,-1.5394,-1.5144,-1.4985,-1.4985,-1.5068,-1.5228,-1.5228,-1.5144,-1.5228,-1.5311,-1.5311,-1.5636,-1.6034,-1.5304,-1.4817,-1.4985,-1.4985,-1.5144,-1.4985,-1.4817,-1.4496,-1.4334,-1.425,-1.4173,-1.4088,-1.3209,-1.2766,-1.2589,-1.2083,-1.1558,-1.1214,-1.095,-1.0351,-0.9749,-0.9144,-0.8623,-0.8536,-0.9061,-0.9235,-0.8969,-0.8794,-0.836,-0.7921,-0.7658,-0.7217,-0.6953,-0.6599,-0.5706,-0.4725,-0.4639,-0.4461,-0.4194,-0.4016,-0.3393,-0.2592,-0.1968,-0.1522,-0.1076,-0.0628,-0.009,0.0806,0.0983,0.1073,0.1522,0.1343,0.1611,0.2236,0.2681,0.3038,0.3573,0.4285,0.4643,0.4912,0.5262,0.5584,0.6017,0.6675,0.7181,0.7509,0.7549,0.82,0.9463,1.0271,1.1093,1.162,1.1403,1.1626,-1.6281,-1.5876,-1.5876,-1.5884,-1.5794,-1.5228,-1.4977,-1.4894,-1.4328,-1.4741,-1.5718,-1.5876,-1.5545,-1.497,-1.5636,-1.5794,-1.522,-1.5553,-1.5636,-1.5801,-1.6049,-1.5748,-1.5922,-1.5989,-1.5756,-1.5612,-1.534,-1.4657,-1.4166,-1.4166,-1.425,-1.4088,-1.4088,-1.4088,-1.4088,-1.4088,-1.4088,-1.4166,-1.4088,-1.4405,-1.5054,-1.4412,-1.4088,-1.4088,-1.4088,-1.4088,-1.4088,-1.4088,-1.4088,-1.3822,-1.3561,-1.3294,-1.2948,-1.2163,-1.1643,-1.1381,-1.1042,-1.0356,-1.0009,-0.9662,-0.9318,-0.8623,-0.8101,-0.7661,-0.7665,-0.8013,-0.8101,-0.7925,-0.7837,-0.7577,-0.6773,-0.6334,-0.5706,-0.5262,-0.5082,-0.4548,-0.4103,-0.4014,-0.3482,-0.286,-0.2681,-0.2237,-0.1522,-0.0987,-0.0448,0.0447,0.0807,0.1254,0.2057,0.2681,0.286,0.3038,0.2949,0.2771,0.3037,0.3662,0.4287,0.491,0.5354,0.5711,0.6062,0.6549,0.6907,0.7062,0.7362,0.7865,0.8116,0.8351,0.9438,1.0899,1.1335,1.1694,1.2077,1.2452,1.2445,-1.4977,-1.4173,-1.4166,-1.4173,-1.4088,-1.4088,-1.4166,-1.4173,-1.4088,-1.4088,-1.425,-1.425,-1.4088,-1.4088,-1.4088,-1.4088,-1.425,-1.4573,-1.4419,-1.4334,-1.4334,-1.4671,-1.4587,-1.4334,-1.451,-1.451,-1.4334,-1.425,-1.4088,-1.4088,-1.4088,-1.4088,-1.4088,-1.4088,-1.4088,-1.4088,-1.4088,-1.4088,-1.4082,-1.399,-1.3997,-1.4004,-1.4088,-1.4088,-1.4088,-1.4088,-1.4088,-1.3906,-1.3906,-1.3385,-1.2687,-1.2248,-1.1729,-1.1042,-1.0611,-1.0265,-0.9826,-0.9314,-0.8882,-0.8623,-0.8101,-0.7489,-0.7136,-0.6871,-0.6871,-0.6691,-0.6691,-0.6602,-0.6602,-0.6425,-0.5625,-0.4999,-0.4374,-0.3571,-0.3482,-0.3392,-0.3304,0.0,0.0,0.0,-0.1344,-0.0986,-0.0448,0.009,0.0807,0.1611,0.2324,0.2948,0.3482,0.3838,0.4196,0.4552,0.473,0.455,0.4372,0.4641,0.5445,0.5802,0.6245,0.6782,0.7221,0.7446,0.7665,0.7598,0.7974,0.8721,0.9426,0.9792,1.1036,1.1845,1.1942,1.207,1.2579,1.2879,1.2879,-1.4334,-1.4088,-1.4088,-1.4088,-1.4088,-1.4088,-1.4088,-1.4088,-1.4082,-1.4088,-1.3997,-1.4088,-1.4088,-1.4088,-1.4088,-1.4088,-1.4088,-1.4088,-1.4088,-1.4173,-1.4088,-1.4088,-1.4088,-1.4088,-1.4088,-1.4088,-1.4088,-1.4088,-1.4088,-1.4088,-1.4082,-1.3997,-1.3997,-1.3997,-1.3997,-1.3913,-1.3737,-1.3652,-1.3561,-1.3385,-1.3027,-1.3294,-1.3997,-1.4088,-1.4088,-1.4088,-1.3906,-1.3112,-1.2766,-1.2328,-1.1643,-1.1123,-1.0519,-0.9918,-0.9401,-0.9052,-0.8619,-0.8185,-0.7837,-0.7753,-0.7316,-0.6956,-0.6514,-0.5891,-0.5534,-0.4905,-0.4816,-0.4639,-0.4641,-0.4819,-0.4374,-0.4016,-0.3482,-0.2325,-0.1791,-0.1879,-0.1969,0.0,0.0,0.0,-0.0359,0.0269,0.0985,0.1433,0.1969,0.2771,0.3215,0.3838,0.4819,0.5176,0.5445,0.58,0.6154,0.6514,0.6514,0.6065,0.6514,0.6782,0.7048,0.7485,0.7925,0.8193,0.8317,0.8517,0.9172,0.9927,1.0541,1.0976,1.1266,1.1928,1.2123,1.2372,1.3018,1.352,1.3593]},{"header":{"parameterUnit":"m.s-1","parameterCategory":1,"la1":31.0,"la2":29.5877,"lo1":-88.7671,"lo2":-86.6584,"dy":0.0162,"dx":0.0185,"nx":115,"ny":88,"refTime":"2023-09-14T18:00:00:Z","depth":0,"parameterNumber":3,"parameterNumberName":"V-component_of_WINDS"},"data":[0.0,0.0,0.0,0.0,0.0,0.0,0.0,0.0,0.0,0.0,0.0,0.0,0.0,0.0,0.0,0.0,0.0,0.0,0.0,0.0,0.0,0.0,0.0,0.0,0.0,0.0,0.0,0.0,0.0,0.0,0.0,0.0,0.0,0.0,0.0,0.0,0.0,0.0,0.0,0.0,0.0,0.0,0.0,0.0,0.0,0.0,0.0,0.0,0.0,0.0,0.0,0.0,0.0,0.0,0.0,0.0,0.0,0.0,0.0,0.0,0.0,0.0,0.0,0.0,0.0,0.0,0.0,0.0,0.0,0.0,0.0,0.0,0.0,0.0,0.0,0.0,0.0,0.0,0.0,0.0,0.0,0.0,0.0,0.0,0.0,0.0,0.0,0.0,0.0,0.0,0.0,0.0,0.0,0.0,0.0,0.0,0.0,0.0,0.0,0.0,0.0,0.0,0.0,0.0,0.0,0.0,0.0,0.0,0.0,0.0,0.0,0.0,0.0,0.0,0.0,0.0,0.0,0.0,0.0,0.0,0.0,0.0,0.0,0.0,0.0,0.0,0.0,0.0,0.0,0.0,0.0,0.0,0.0,0.0,0.0,0.0,0.0,0.0,0.0,0.0,0.0,0.0,0.0,0.0,0.0,0.0,0.0,0.0,0.0,0.0,0.0,0.0,0.0,0.0,0.0,0.0,0.0,0.0,0.0,0.0,0.0,0.0,0.0,0.0,0.0,0.0,0.0,0.0,0.0,0.0,0.0,0.0,0.0,0.0,0.0,0.0,0.0,0.0,0.0,0.0,0.0,0.0,0.0,0.0,0.0,0.0,0.0,0.0,0.0,0.0,0.0,0.0,0.0,0.0,0.0,0.0,0.0,0.0,0.0,0.0,0.0,0.0,0.0,0.0,0.0,0.0,0.0,0.0,0.0,0.0,0.0,0.0,0.0,0.0,0.0,0.0,0.0,0.0,0.0,0.0,0.0,0.0,0.0,0.0,0.0,0.0,0.0,0.0,0.0,0.0,0.0,0.0,0.0,0.0,0.0,0.0,0.0,0.0,0.0,0.0,0.0,0.0,0.0,0.0,0.0,0.0,0.0,0.0,0.0,0.0,0.0,0.0,0.0,0.0,0.0,0.0,0.0,0.0,0.0,0.0,0.0,0.0,0.0,0.0,0.0,0.0,0.0,0.0,0.0,0.0,0.0,0.0,0.0,0.0,0.0,0.0,0.0,0.0,0.0,0.0,0.0,0.0,0.0,0.0,0.0,0.0,0.0,0.0,0.0,0.0,0.0,0.0,0.0,0.0,0.0,0.0,0.0,0.0,0.0,0.0,0.0,0.0,0.0,0.0,0.0,0.0,0.0,0.0,0.0,0.0,0.0,0.0,0.0,0.0,0.0,0.0,0.0,0.0,0.0,0.0,0.0,0.0,0.0,0.0,0.0,0.0,0.0,0.0,0.0,0.0,0.0,0.0,0.0,0.0,0.0,0.0,0.0,0.0,0.0,0.0,0.0,0.0,0.0,0.0,0.0,0.0,0.0,0.0,0.0,0.0,0.0,0.0,0.0,0.0,0.0,0.0,0.0,0.0,0.0,0.0,0.0,0.0,0.0,0.0,0.0,0.0,0.0,0.0,0.0,0.0,0.0,0.0,0.0,0.0,0.0,0.0,0.0,0.0,0.0,0.0,0.0,0.0,0.0,0.0,0.0,0.0,0.0,0.0,0.0,0.0,0.0,0.0,0.0,0.0,0.0,0.0,0.0,0.0,0.0,0.0,0.0,0.0,0.0,0.0,0.0,0.0,0.0,0.0,0.0,0.0,0.0,0.0,0.0,0.0,0.0,0.0,0.0,0.0,0.0,0.0,0.0,0.0,0.0,0.0,0.0,0.0,0.0,0.0,0.0,0.0,0.0,0.0,0.0,0.0,0.0,0.0,0.0,0.0,0.0,0.0,0.0,0.0,0.0,0.0,0.0,0.0,0.0,0.0,0.0,0.0,0.0,0.0,0.0,0.0,0.0,0.0,0.0,0.0,0.0,0.0,0.0,0.0,0.0,0.0,0.0,0.0,0.0,0.0,0.0,0.0,0.0,0.0,0.0,0.0,0.0,0.0,0.0,0.0,0.0,0.0,0.0,0.0,0.0,0.0,0.0,0.0,0.0,0.0,0.0,0.0,0.0,0.0,0.0,0.0,0.0,0.0,0.0,0.0,0.0,0.0,0.0,0.0,0.0,0.0,0.0,0.0,0.0,0.0,0.0,0.0,0.0,0.0,0.0,0.0,0.0,0.0,0.0,0.0,0.0,0.0,0.0,0.0,0.0,0.0,0.0,0.0,0.0,0.0,0.0,0.0,0.0,0.0,0.0,0.0,0.0,0.0,0.0,0.0,0.0,0.0,0.0,0.0,0.0,0.0,0.0,0.0,0.0,0.0,0.0,0.0,0.0,0.0,0.0,0.0,0.0,0.0,0.0,0.0,0.0,0.0,0.0,0.0,0.0,0.0,0.0,0.0,0.0,0.0,0.0,0.0,0.0,0.0,0.0,0.0,0.0,0.0,0.0,0.0,0.0,0.0,0.0,0.0,0.0,0.0,0.0,0.0,0.0,0.0,0.0,0.0,0.0,0.0,0.0,0.0,0.0,0.0,0.0,0.0,0.0,0.0,0.0,0.0,0.0,0.0,0.0,0.0,0.0,0.0,0.0,0.0,0.0,0.0,0.0,0.0,0.0,0.0,0.0,0.0,0.0,0.0,0.0,0.0,0.0,0.0,0.0,0.0,0.0,0.0,0.0,0.0,0.0,0.0,0.0,0.0,0.0,0.0,0.0,0.0,0.0,0.0,0.0,0.0,0.0,0.0,0.0,0.0,0.0,0.0,0.0,0.0,0.0,0.0,0.0,0.0,0.0,0.0,0.0,0.0,0.0,0.0,0.0,0.0,0.0,0.0,0.0,0.0,0.0,0.0,0.0,0.0,0.0,0.0,0.0,0.0,0.0,0.0,0.0,0.0,0.0,0.0,0.0,0.0,0.0,0.0,0.0,0.0,0.0,0.0,0.0,0.0,0.0,0.0,0.0,0.0,0.0,0.0,0.0,0.0,0.0,0.0,0.0,0.0,0.0,0.0,0.0,0.0,0.0,0.0,0.0,0.0,0.0,0.0,0.0,0.0,0.0,0.0,0.0,0.0,0.0,0.0,0.0,0.0,0.0,0.0,0.0,0.0,0.0,0.0,0.0,0.0,0.0,0.0,0.0,0.0,0.0,0.0,0.0,0.0,0.0,0.0,0.0,0.0,0.0,0.0,0.0,0.0,0.0,0.0,0.0,0.0,0.0,0.0,0.0,0.0,0.0,0.0,0.0,0.0,0.0,0.0,0.0,0.0,0.0,0.0,0.0,0.0,0.0,0.0,0.0,0.0,0.0,0.0,0.0,0.0,0.0,0.0,0.0,0.0,0.0,0.0,0.0,0.0,0.0,0.0,0.0,0.0,0.0,0.0,0.0,0.0,0.0,0.0,0.0,0.0,0.0,0.0,0.0,0.0,0.0,0.0,0.0,0.0,0.0,0.0,0.0,0.0,0.0,0.0,0.0,0.0,0.0,0.0,0.0,0.0,0.0,0.0,0.0,0.0,0.0,0.0,0.0,0.0,0.0,0.0,0.0,0.0,0.0,0.0,0.0,0.0,0.0,0.0,0.0,0.0,0.0,0.0,0.0,0.0,0.0,0.0,0.0,0.0,0.0,0.0,0.0,0.0,0.0,0.0,0.0,0.0,0.0,0.0,0.0,0.0,0.0,0.0,0.0,0.0,0.0,0.0,0.0,0.0,0.0,0.0,0.0,0.0,0.0,0.0,0.0,0.0,0.0,0.0,0.0,0.0,0.0,0.0,0.0,0.0,0.0,0.0,0.0,0.0,0.0,0.0,0.0,0.0,0.0,0.0,0.0,0.0,0.0,0.0,0.0,0.0,0.0,0.0,0.0,0.0,0.0,0.0,0.0,0.0,0.0,0.0,0.0,0.0,0.0,0.0,0.0,0.0,0.0,0.0,0.0,0.0,0.0,0.0,0.0,0.0,0.0,0.0,0.0,0.0,0.0,0.0,0.0,0.0,0.0,0.0,0.0,0.0,0.0,0.0,0.0,0.0,0.0,0.0,0.0,0.0,0.0,0.0,0.0,0.0,0.0,0.0,0.0,0.0,0.0,0.0,0.0,0.0,0.0,0.0,0.0,0.0,0.0,0.0,0.0,0.0,0.0,0.0,0.0,0.0,0.0,0.0,0.0,0.0,2.4134,0.0,0.0,0.0,0.0,0.0,0.0,0.0,0.0,0.0,0.0,0.0,0.0,0.0,0.0,0.0,0.0,0.0,0.0,0.0,0.0,0.0,0.0,0.0,0.0,0.0,0.0,0.0,0.0,0.0,0.0,0.0,0.0,0.0,0.0,0.0,0.0,0.0,0.0,0.0,0.0,0.0,0.0,0.0,0.0,0.0,0.0,0.0,0.0,0.0,0.0,0.0,0.0,0.0,0.0,0.0,0.0,0.0,0.0,0.0,0.0,0.0,0.0,0.0,0.0,0.0,0.0,0.0,0.0,0.0,0.0,0.0,0.0,0.0,0.0,0.0,0.0,0.0,0.0,0.0,0.0,0.0,0.0,0.0,0.0,0.0,0.0,0.0,0.0,0.0,0.0,0.0,0.0,0.0,0.0,0.0,0.0,0.0,0.0,0.0,0.0,0.0,0.0,0.0,0.0,0.0,0.0,0.0,0.0,0.0,0.0,2.3808,2.4163,2.4341,2.4459,2.4554,0.0,0.0,0.0,0.0,0.0,0.0,0.0,0.0,0.0,0.0,0.0,0.0,0.0,0.0,0.0,0.0,0.0,0.0,0.0,0.0,0.0,0.0,0.0,0.0,0.0,0.0,0.0,0.0,0.0,0.0,0.0,0.0,0.0,0.0,0.0,0.0,0.0,0.0,0.0,0.0,0.0,0.0,0.0,0.0,0.0,0.0,0.0,0.0,0.0,0.0,0.0,0.0,0.0,0.0,0.0,0.0,0.0,0.0,0.0,0.0,0.0,0.0,0.0,0.0,0.0,0.0,0.0,0.0,0.0,0.0,0.0,0.0,0.0,0.0,0.0,0.0,0.0,0.0,0.0,0.0,0.0,0.0,0.0,0.0,0.0,0.0,0.0,0.0,0.0,0.0,0.0,0.0,0.0,0.0,0.0,0.0,0.0,0.0,0.0,0.0,0.0,0.0,0.0,0.0,0.0,0.0,0.0,0.0,0.0,0.0,0.0,0.0,2.5014,2.5079,2.516,0.0,0.0,0.0,0.0,0.0,0.0,0.0,0.0,0.0,0.0,0.0,0.0,0.0,0.0,0.0,0.0,0.0,0.0,0.0,0.0,0.0,0.0,0.0,0.0,0.0,0.0,0.0,0.0,0.0,0.0,0.0,0.0,0.0,0.0,0.0,0.0,0.0,0.0,0.0,0.0,0.0,0.0,0.0,0.0,0.0,0.0,0.0,0.0,0.0,0.0,0.0,0.0,0.0,0.0,0.0,0.0,0.0,0.0,0.0,0.0,0.0,0.0,0.0,0.0,0.0,0.0,0.0,0.0,0.0,0.0,0.0,0.0,0.0,0.0,0.0,0.0,0.0,0.0,0.0,0.0,0.0,0.0,0.0,0.0,0.0,0.0,0.0,0.0,0.0,0.0,0.0,0.0,0.0,0.0,0.0,0.0,0.0,0.0,0.0,0.0,0.0,0.0,0.0,0.0,0.0,0.0,0.0,0.0,0.0,0.0,2.5727,2.647,2.6539,0.0,2.6316,0.0,0.0,0.0,0.0,0.0,0.0,0.0,0.0,0.0,0.0,0.0,0.0,0.0,0.0,0.0,0.0,0.0,0.0,0.0,0.0,0.0,0.0,0.0,0.0,0.0,0.0,0.0,0.0,0.0,0.0,0.0,0.0,0.0,0.0,0.0,0.0,0.0,0.0,0.0,0.0,0.0,0.0,0.0,0.0,0.0,0.0,0.0,0.0,0.0,0.0,0.0,0.0,0.0,0.0,0.0,0.0,0.0,0.0,0.0,0.0,0.0,0.0,0.0,0.0,0.0,0.0,0.0,0.0,0.0,0.0,0.0,0.0,0.0,0.0,0.0,0.0,0.0,0.0,0.0,0.0,0.0,0.0,0.0,0.0,0.0,0.0,0.0,0.0,0.0,0.0,0.0,0.0,0.0,0.0,0.0,0.0,0.0,0.0,0.0,0.0,0.0,0.0,0.0,0.0,0.0,0.0,0.0,0.0,0.0,0.0,2.555,2.6387,2.6473,2.6268,0.0,0.0,0.0,0.0,0.0,0.0,0.0,0.0,0.0,0.0,0.0,0.0,0.0,0.0,0.0,0.0,0.0,0.0,0.0,0.0,0.0,0.0,0.0,0.0,0.0,0.0,0.0,0.0,0.0,0.0,0.0,0.0,0.0,0.0,0.0,0.0,0.0,0.0,0.0,0.0,0.0,0.0,0.0,0.0,0.0,0.0,0.0,0.0,0.0,0.0,0.0,0.0,0.0,0.0,0.0,0.0,0.0,0.0,0.0,0.0,0.0,0.0,0.0,0.0,0.0,0.0,0.0,0.0,0.0,0.0,0.0,0.0,0.0,0.0,0.0,0.0,0.0,0.0,0.0,0.0,0.0,0.0,0.0,0.0,0.0,0.0,0.0,0.0,0.0,0.0,0.0,0.0,0.0,0.0,0.0,0.0,0.0,0.0,0.0,0.0,0.0,0.0,0.0,0.0,0.0,0.0,0.0,0.0,0.0,0.0,2.5378,2.5669,2.6491,2.6361,2.6219,2.6072,0.0,0.0,0.0,0.0,0.0,0.0,0.0,0.0,0.0,0.0,0.0,0.0,0.0,0.0,0.0,0.0,0.0,0.0,0.0,0.0,0.0,0.0,0.0,0.0,0.0,0.0,0.0,0.0,0.0,0.0,0.0,0.0,0.0,0.0,0.0,0.0,0.0,0.0,0.0,0.0,0.0,0.0,0.0,0.0,0.0,0.0,0.0,0.0,0.0,0.0,0.0,0.0,0.0,0.0,0.0,0.0,0.0,0.0,0.0,0.0,0.0,0.0,0.0,0.0,0.0,0.0,0.0,0.0,0.0,0.0,0.0,0.0,0.0,0.0,0.0,0.0,0.0,0.0,0.0,0.0,0.0,0.0,0.0,0.0,0.0,0.0,0.0,0.0,0.0,0.0,0.0,0.0,0.0,0.0,0.0,0.0,0.0,0.0,0.0,0.0,0.0,0.0,0.0,0.0,0.0,0.0,0.0,0.0,2.7138,2.6448,2.6529,2.7257,2.6618,2.682,0.0,0.0,0.0,0.0,0.0,0.0,0.0,0.0,0.0,0.0,0.0,0.0,0.0,0.0,0.0,0.0,0.0,0.0,0.0,0.0,0.0,0.0,0.0,0.0,0.0,0.0,0.0,0.0,0.0,0.0,0.0,0.0,0.0,0.0,0.0,0.0,0.0,0.0,0.0,0.0,0.0,0.0,0.0,0.0,0.0,0.0,0.0,0.0,0.0,0.0,0.0,0.0,0.0,0.0,0.0,0.0,0.0,0.0,0.0,0.0,0.0,0.0,0.0,0.0,0.0,0.0,0.0,0.0,0.0,0.0,0.0,0.0,0.0,0.0,0.0,0.0,0.0,0.0,0.0,0.0,0.0,0.0,0.0,0.0,0.0,0.0,0.0,0.0,0.0,0.0,0.0,0.0,0.0,0.0,0.0,0.0,0.0,0.0,0.0,0.0,0.0,0.0,0.0,0.0,0.0,0.0,0.0,0.0,0.0,2.3947,2.3266,2.2984,2.3287,2.4282,2.5122,0.0,0.0,0.0,0.0,0.0,0.0,0.0,0.0,0.0,0.0,0.0,0.0,0.0,0.0,0.0,0.0,0.0,0.0,0.0,0.0,0.0,0.0,0.0,0.0,0.0,0.0,0.0,0.0,0.0,0.0,0.0,0.0,0.0,0.0,0.0,0.0,0.0,0.0,0.0,0.0,0.0,0.0,0.0,0.0,0.0,0.0,0.0,0.0,0.0,0.0,0.0,0.0,0.0,0.0,0.0,0.0,0.0,0.0,0.0,0.0,0.0,0.0,0.0,0.0,0.0,0.0,0.0,0.0,0.0,0.0,0.0,0.0,0.0,0.0,0.0,0.0,0.0,0.0,0.0,0.0,0.0,0.0,0.0,0.0,0.0,0.0,0.0,0.0,0.0,0.0,0.0,0.0,0.0,0.0,0.0,0.0,0.0,0.0,0.0,0.0,0.0,0.0,0.0,0.0,0.0,0.0,0.0,0.0,0.0,2.1744,0.0,2.1029,2.1049,2.2608,2.3552,0.0,0.0,0.0,0.0,0.0,0.0,0.0,0.0,0.0,0.0,0.0,0.0,0.0,0.0,0.0,0.0,0.0,0.0,0.0,0.0,0.0,0.0,0.0,0.0,0.0,0.0,0.0,0.0,0.0,0.0,0.0,0.0,0.0,0.0,0.0,0.0,0.0,0.0,0.0,0.0,0.0,0.0,0.0,0.0,0.0,0.0,0.0,0.0,0.0,0.0,0.0,0.0,0.0,0.0,0.0,0.0,0.0,0.0,0.0,0.0,0.0,0.0,0.0,0.0,0.0,0.0,0.0,0.0,0.0,0.0,0.0,0.0,0.0,0.0,0.0,0.0,0.0,0.0,0.0,0.0,0.0,0.0,0.0,0.0,0.0,0.0,0.0,0.0,0.0,0.0,0.0,0.0,0.0,0.0,0.0,0.0,0.0,0.0,0.0,0.0,0.0,0.0,0.0,0.0,0.0,0.0,0.0,0.0,2.072,2.0969,2.0923,2.0776,2.1029,2.1676,2.242,0.0,0.0,0.0,0.0,0.0,0.0,0.0,0.0,0.0,0.0,0.0,0.0,0.0,0.0,0.0,0.0,0.0,0.0,0.0,0.0,0.0,0.0,0.0,0.0,0.0,0.0,0.0,0.0,0.0,0.0,0.0,0.0,0.0,0.0,0.0,0.0,0.0,0.0,0.0,0.0,0.0,0.0,0.0,0.0,0.0,0.0,0.0,0.0,0.0,0.0,0.0,0.0,0.0,0.0,0.0,0.0,0.0,0.0,0.0,0.0,0.0,0.0,0.0,0.0,0.0,0.0,0.0,0.0,0.0,0.0,0.0,0.0,0.0,0.0,0.0,0.0,0.0,0.0,0.0,0.0,0.0,0.0,0.0,0.0,0.0,0.0,0.0,0.0,0.0,0.0,0.0,0.0,0.0,0.0,0.0,0.0,0.0,0.0,0.0,0.0,0.0,0.0,0.0,0.0,0.0,0.0,0.0,0.0,0.0,1.624,1.6303,1.66,1.7135,1.8602,1.9991,0.0,0.0,0.0,0.0,0.0,0.0,0.0,0.0,0.0,0.0,0.0,0.0,0.0,0.0,0.0,0.0,0.0,0.0,0.0,0.0,0.0,0.0,0.0,0.0,0.0,0.0,0.0,0.0,0.0,0.0,0.0,0.0,0.0,0.0,0.0,0.0,0.0,0.0,0.0,0.0,0.0,0.0,0.0,0.0,0.0,0.0,0.0,0.0,0.0,0.0,0.0,0.0,0.0,0.0,0.0,0.0,0.0,0.0,0.0,0.0,0.0,0.0,0.0,0.0,0.0,0.0,0.0,0.0,0.0,0.0,0.0,0.0,0.0,0.0,0.0,0.0,0.0,0.0,0.0,0.0,0.0,0.0,0.0,0.0,0.0,0.0,0.0,0.0,0.0,0.0,0.0,0.0,0.0,0.0,0.0,0.0,0.0,0.0,0.0,0.0,0.0,0.0,0.0,0.0,0.0,0.0,0.0,0.0,0.0,1.2882,1.3399,1.4127,1.4866,1.63,1.7832,1.9394,0.0,0.0,0.0,0.0,0.0,0.0,0.0,0.0,0.0,0.0,0.0,0.0,0.0,0.0,0.0,0.0,0.0,0.0,0.0,0.0,0.0,0.0,0.0,0.0,0.0,0.0,0.0,0.0,0.0,0.0,0.0,0.0,0.0,0.0,0.0,0.0,0.0,0.0,0.0,0.0,0.0,0.0,0.0,0.0,0.0,0.0,0.0,0.0,0.0,0.0,0.0,0.0,0.0,0.0,0.0,0.0,0.0,0.0,0.0,0.0,0.0,0.0,0.0,0.0,0.0,0.0,0.0,0.0,0.0,0.0,0.0,0.0,0.0,0.0,0.0,0.0,0.0,0.0,0.0,0.0,0.0,0.0,0.0,0.0,0.0,0.0,0.0,0.0,0.0,0.0,0.0,0.0,0.0,0.0,0.0,0.0,0.0,0.0,0.0,0.0,0.0,0.0,0.0,0.0,0.0,0.0,0.0,0.0,1.0491,1.1965,1.3114,1.4016,1.4798,1.5877,0.0,0.0,0.0,0.0,0.0,0.0,0.0,0.0,0.0,0.0,0.0,0.0,0.0,0.0,0.0,0.0,0.0,0.0,0.0,0.0,0.0,0.0,0.0,0.0,0.0,0.0,0.0,0.0,0.0,0.0,0.0,0.0,0.0,0.0,0.0,0.0,0.0,0.0,0.0,0.0,0.0,0.0,0.0,0.0,0.0,0.0,0.0,0.0,0.0,0.0,0.0,0.0,0.0,0.0,0.0,0.0,0.0,0.0,0.0,0.0,0.0,0.0,0.0,0.0,0.0,0.0,0.0,0.0,0.0,0.0,0.0,0.0,0.0,0.0,0.0,0.0,0.0,0.0,0.0,0.0,0.0,0.0,0.0,0.0,0.0,0.0,0.0,0.0,0.0,0.0,0.0,0.0,0.0,0.0,0.0,0.0,0.0,0.0,0.0,0.0,0.0,0.0,0.0,0.0,0.0,0.0,0.0,0.0,0.0,0.8748,0.9105,1.0299,1.2312,1.3116,1.4282,0.0,0.0,0.0,0.0,0.0,0.0,0.0,0.0,0.0,0.0,0.0,0.0,0.0,0.0,0.0,0.0,0.0,0.0,0.0,0.0,0.0,0.0,0.0,0.0,0.0,0.0,0.0,0.0,0.0,0.0,0.0,0.0,0.0,0.0,0.0,0.0,0.0,0.0,0.0,0.0,0.0,0.0,0.0,0.0,0.0,0.0,0.0,0.0,0.0,0.0,0.0,0.0,0.0,0.0,0.0,0.0,0.0,0.0,0.0,0.0,0.0,0.0,0.0,0.0,0.0,0.0,0.0,0.0,0.0,0.0,0.0,0.0,0.0,0.0,0.0,0.0,0.0,0.0,0.0,0.0,0.0,0.0,0.0,0.0,0.0,0.0,0.0,0.0,0.0,0.0,0.0,0.0,0.0,0.0,0.0,0.0,0.0,0.0,0.0,0.0,0.0,0.0,0.0,0.0,0.0,0.0,0.0,0.0,0.8721,0.8032,0.8027,0.8726,1.0179,1.1272,1.2781,0.0,0.0,0.0,0.0,0.0,0.0,0.0,0.0,0.0,0.0,0.0,0.0,0.0,0.0,0.0,0.0,0.0,0.0,0.0,0.0,0.0,0.0,0.0,0.0,0.0,0.0,0.0,0.0,0.0,0.0,0.0,0.0,0.0,0.0,0.0,0.0,0.0,0.0,0.0,0.0,0.0,0.0,0.0,0.0,0.0,0.0,0.0,0.0,0.0,0.0,0.0,0.0,0.0,0.0,0.0,0.0,0.0,0.0,0.0,0.0,0.0,0.0,0.0,0.0,0.0,0.0,0.0,0.0,0.0,0.0,0.0,0.0,0.0,0.0,0.0,0.0,0.0,0.0,0.0,0.0,0.0,0.0,0.0,0.0,0.0,0.0,0.0,0.0,0.0,0.0,0.0,0.0,0.0,0.0,0.0,0.0,0.0,0.0,0.0,0.0,0.0,0.0,0.0,0.0,0.0,0.0,0.0,0.0,0.7986,0.7775,0.7766,0.7831,0.7962,0.9512,1.145,0.0,0.0,0.0,0.0,0.0,0.0,0.0,0.0,0.0,0.0,0.0,0.0,0.0,0.0,0.0,0.0,0.0,0.0,0.0,0.0,0.0,0.0,0.0,0.0,0.0,0.0,0.0,0.0,0.0,0.0,0.0,0.0,0.0,0.0,0.0,0.0,0.0,0.0,0.0,0.0,0.0,0.0,0.0,0.0,0.0,0.0,0.0,0.0,0.0,0.0,0.0,0.0,0.0,0.0,0.0,0.0,0.0,0.0,0.0,0.0,0.0,0.0,0.0,0.0,0.0,0.0,0.0,0.0,0.0,0.0,0.0,0.0,0.0,0.0,0.0,0.0,0.0,0.0,0.0,0.0,0.0,0.0,0.0,0.0,0.0,0.0,0.0,0.0,0.0,0.0,0.0,0.0,0.0,0.0,0.0,0.0,0.0,0.0,0.0,0.0,0.0,0.0,0.0,0.0,0.0,0.0,0.0,0.0,0.7212,0.6268,0.6265,0.6612,0.7307,0.8739,1.0129,0.0,0.0,0.0,0.0,0.0,0.0,0.0,0.0,0.0,0.0,0.0,0.0,0.0,0.0,0.0,0.0,0.0,0.0,0.0,0.0,0.0,0.0,0.0,0.0,0.0,0.0,0.0,0.0,0.0,0.0,0.0,0.0,0.0,0.0,0.0,0.0,0.0,0.0,0.0,0.0,0.0,0.0,0.0,0.0,0.0,0.0,0.0,0.0,0.2748,0.0,0.0,0.0,0.0,0.0,0.0,0.0,0.0,0.0,0.0,0.0,0.0,0.0,0.0,0.0,0.0,0.0,0.0,0.0,0.0,0.0,0.0,0.0,0.0,0.0,0.0,0.0,0.0,0.0,0.0,0.0,0.0,0.0,0.0,0.0,0.0,0.0,0.0,0.0,0.0,0.0,0.0,0.0,0.0,0.0,0.0,0.0,0.0,0.0,0.0,0.0,0.0,0.0,0.0,0.0,0.0,0.0,0.0,0.0,0.6463,0.5806,0.58,0.6015,0.6508,0.7647,0.862,0.0,0.0,0.0,0.0,0.0,0.0,0.0,0.0,0.0,0.0,0.0,0.0,0.0,0.0,0.0,0.0,0.0,0.0,0.0,0.0,0.0,0.0,0.0,0.0,0.0,0.0,0.0,0.0,0.0,0.0,0.0,0.0,0.0,0.0,0.0,0.0,0.0,0.0,0.0,0.0,0.0,0.0,0.0,0.0,0.0,0.0,0.0,0.0,0.0,0.0,0.0,0.0,0.0,0.0,0.0,0.0,0.0,0.0,0.0,0.0,0.0,0.0,0.0,0.0,0.0,0.0,0.0,0.0,0.0,0.0,0.0,0.0,0.0,0.0,0.0,0.0,0.0,0.0,0.0,0.0,0.0,0.0,0.0,0.0,0.0,0.0,0.0,0.0,0.0,0.0,0.0,0.0,0.0,0.0,0.0,0.0,0.0,0.0,0.0,0.0,0.0,0.0,0.0,0.0,0.0,0.0,0.0,0.6506,0.6,0.5878,0.5874,0.5871,0.5871,0.6705,0.7324,0.7853,0.0,0.0,0.0,0.0,0.0,0.0,0.0,0.0,0.0,0.0,0.0,0.0,0.0,0.0,0.0,0.0,0.0,0.0,0.0,0.0,0.0,0.0,0.0,0.0,0.0,0.0,0.0,0.0,0.0,0.0,0.0,0.0,0.0,0.0,0.0,0.0,0.0,0.0,0.5079,0.4292,0.0,0.0,0.0,0.0,0.0,0.0,0.0,0.0,0.5861,0.0,0.0,0.0,0.0,0.0,0.0,0.0,0.0,0.0,0.0,0.0,0.0,0.0,0.0,0.0,0.0,0.0,0.0,0.0,0.0,0.0,0.0,0.0,0.0,0.0,0.0,0.0,0.0,0.0,0.0,0.0,0.0,0.0,0.0,0.0,0.0,0.0,0.0,0.0,0.0,0.0,0.0,0.0,0.0,0.0,0.0,0.0,0.0,0.0,0.0,0.0,0.0,0.0,0.0,0.0,0.0,0.6528,0.6374,0.621,0.6263,0.6263,0.6186,0.6259,0.6868,0.6992,0.6526,0.0,0.0,0.0,0.0,0.0,0.0,0.0,0.0,0.0,0.0,0.0,0.0,0.0,0.0,0.0,0.0,0.0,0.0,0.0,0.0,0.0,0.0,0.0,0.0,0.0,0.0,0.0,0.0,0.0,0.0,0.0,0.0,0.0,0.0,0.0,0.0,0.0,0.0,0.0,0.663,0.6696,0.0,0.0,0.0,0.0,0.0,0.0,0.0,0.0,0.8344,0.0,0.0,0.0,0.0,0.0,0.0,0.0,0.0,0.0,0.0,0.0,0.0,0.0,0.0,0.0,0.0,0.0,0.0,0.0,0.0,0.0,0.0,0.0,0.0,0.0,0.0,0.0,0.0,0.0,0.0,0.0,0.0,0.0,0.0,0.0,0.0,0.0,0.0,0.0,0.0,0.0,0.0,0.0,0.0,0.0,0.0,0.0,0.0,0.0,0.0,0.0,0.0,0.0,0.0,0.0,0.6335,0.6261,0.6261,0.6261,0.6261,0.6261,0.6257,0.6638,0.6554,0.0,0.0,0.0,0.0,0.0,0.0,0.0,0.0,0.0,0.0,0.0,0.0,0.0,0.0,0.0,0.0,0.0,0.0,0.0,0.0,0.0,0.0,0.0,0.0,0.0,0.0,0.0,0.0,0.0,0.0,0.0,0.0,0.0,0.0,0.0,0.0,0.0,0.0,0.0,0.0,0.748,0.7783,0.7859,0.0,0.0,0.0,0.0,0.0,0.0,0.9574,0.9357,0.0,0.0,0.0,0.0,0.0,0.0,0.0,0.0,0.0,0.0,0.0,0.0,0.0,0.0,0.0,0.0,0.0,0.0,0.0,0.0,0.0,0.0,0.0,0.0,0.0,0.0,0.0,0.0,0.0,0.0,0.0,0.0,0.0,0.0,0.0,0.0,0.0,0.0,0.0,0.0,0.0,0.0,0.0,0.0,0.0,0.0,0.0,0.0,0.0,0.0,0.0,0.0,0.0,0.0,0.0,0.6335,0.649,0.6493,0.6338,0.6261,0.6261,0.6261,0.6261,0.6203,0.0,0.0,0.0,0.0,0.0,0.0,0.0,0.0,0.0,0.0,0.0,0.0,0.0,0.0,0.0,0.0,0.0,0.0,0.0,0.0,0.0,0.0,0.0,0.0,0.0,0.0,0.0,0.0,0.0,0.0,0.0,0.0,0.0,0.0,0.0,0.0,0.0,0.0,0.0,0.0,0.0,0.8313,0.8917,0.9367,0.0,0.0,0.0,0.0,1.0938,1.0421,0.0,0.0,0.0,0.0,0.0,0.0,0.0,0.0,0.0,0.0,0.0,0.0,0.0,0.0,0.0,0.0,0.0,0.0,0.0,0.0,0.0,0.0,0.0,0.0,0.0,0.0,0.0,0.0,0.0,0.0,0.0,0.0,0.0,0.0,0.0,0.0,0.0,0.0,0.0,0.0,0.0,0.0,0.0,0.0,0.0,0.0,0.0,0.0,0.0,0.0,0.0,0.0,0.0,0.0,0.0,0.0,0.6416,0.7176,0.7176,0.6335,0.6261,0.6261,0.6261,0.6261,0.6254,0.0,0.0,0.0,0.0,0.0,0.0,0.0,0.0,0.0,0.0,0.0,0.0,0.0,0.0,0.0,0.0,0.0,0.0,0.0,0.0,0.0,0.0,0.0,0.0,0.0,0.0,0.0,0.0,0.0,0.0,0.0,0.0,0.0,0.0,0.0,0.0,0.0,0.0,0.0,0.0,0.0,0.8841,0.8084,0.9508,1.034,0.0,0.0,1.0938,1.1996,1.2003,0.0,0.0,0.0,0.0,0.0,0.0,0.0,0.0,0.0,0.0,0.0,0.0,0.0,0.0,0.0,0.0,0.0,0.0,0.0,0.0,0.0,0.0,0.0,0.0,0.0,0.0,0.0,0.0,0.0,0.0,0.0,0.0,0.0,0.0,0.0,0.0,0.0,0.0,0.0,0.0,0.0,0.0,0.0,0.0,0.0,0.0,0.0,0.0,0.0,0.0,0.0,0.0,0.0,0.0,0.0,0.8313,0.6416,0.7326,0.7326,0.6338,0.6261,0.6261,0.6261,0.6872,0.7176,0.0,0.0,0.0,0.0,0.0,0.0,0.0,0.0,0.0,0.0,0.0,0.0,0.0,0.0,0.0,0.0,0.0,0.0,0.0,0.0,0.0,0.0,0.0,0.0,0.0,0.0,0.0,0.0,0.0,0.0,0.0,0.0,0.0,0.0,0.0,0.0,0.0,0.0,0.0,0.0,0.0,0.0,1.034,1.1093,0.0,0.0,0.0,1.1774,1.2231,0.0,0.0,0.0,0.0,0.0,0.0,0.0,0.0,0.0,0.0,0.0,0.0,0.0,0.0,0.0,0.0,0.0,0.0,0.0,0.0,0.0,0.0,0.0,0.0,0.0,0.0,0.0,0.0,0.0,0.0,0.0,0.0,0.0,0.0,0.0,0.0,0.0,0.0,0.0,0.0,0.0,0.0,0.0,0.0,0.0,0.0,0.0,0.0,0.0,0.0,0.0,0.0,0.0,0.0,0.0,0.0,0.0,0.6718,0.7706,0.7553,0.6338,0.6261,0.6261,0.6338,0.7249,0.0,0.0,0.0,0.0,0.0,0.0,0.0,0.0,0.0,0.0,0.0,0.0,0.0,0.0,0.0,0.0,0.0,0.0,0.0,0.0,0.0,0.0,0.0,0.0,0.0,0.0,0.0,1.6636,0.0,0.0,0.0,0.0,0.0,0.0,0.0,0.0,0.0,0.0,0.0,0.0,0.0,0.0,1.1087,1.1848,1.215,1.2224,0.0,0.0,1.2378,1.2592,1.2666,1.2732,0.0,0.0,0.0,0.0,0.0,0.0,0.0,0.0,0.0,0.0,0.0,0.0,0.0,0.0,0.0,0.0,0.0,0.0,0.0,0.0,0.0,0.0,0.0,0.0,0.0,0.0,0.0,0.0,0.0,0.0,0.0,0.0,0.0,0.0,0.0,0.0,0.0,0.0,0.0,0.0,0.0,0.0,0.0,0.0,0.0,0.0,0.0,0.0,0.0,0.0,0.0,0.0,0.0,0.0,0.0,0.7859,0.8689,0.8237,0.6412,0.6261,0.6261,0.6338,0.7249,0.7403,0.0,0.0,0.0,0.0,0.0,0.0,0.0,0.0,0.0,0.0,0.0,0.0,0.0,0.0,0.0,0.0,0.0,0.0,0.0,0.0,0.0,0.0,0.0,0.0,0.0,0.0,0.0,0.0,0.0,0.0,0.0,0.0,0.0,0.0,0.0,0.0,0.0,0.0,0.0,0.0,0.0,1.0858,1.0864,1.1694,1.1996,0.0,0.0,1.2592,1.3455,1.36,1.3962,1.4807,0.0,0.0,0.0,0.0,0.0,0.0,0.0,0.0,0.0,0.0,0.0,0.0,0.0,0.0,0.0,0.0,0.0,0.0,0.0,0.0,0.0,0.0,0.0,0.0,0.0,0.0,0.0,0.0,0.0,0.0,0.0,0.0,0.0,0.0,0.0,0.0,0.0,0.0,0.0,0.0,0.0,0.0,0.0,0.0,0.0,0.0,0.0,0.0,0.0,0.0,0.0,0.0,0.0,1.0795,0.7859,0.9362,0.9216,0.7326,0.7859,0.8165,0.8161,0.9135,0.9432,0.0,0.0,0.0,0.0,0.0,0.0,0.0,0.0,0.0,0.0,0.0,0.0,0.0,0.0,0.0,0.0,0.0,0.0,0.0,0.0,0.0,0.0,0.0,0.0,0.0,0.0,0.0,0.0,1.6636,1.5579,1.445,0.0,0.0,0.0,0.0,0.0,0.0,0.0,0.0,0.0,0.0,1.1694,1.1694,1.207,0.0,0.0,1.2077,1.2452,1.2806,1.3317,1.3818,1.4235,1.445,0.0,0.0,0.0,0.0,0.0,0.0,0.0,0.0,0.0,0.0,0.0,0.0,0.0,0.0,0.0,0.0,0.0,0.0,0.0,0.0,0.0,0.0,0.0,0.0,0.0,0.0,0.0,0.0,0.0,0.0,0.0,0.0,0.0,0.0,0.0,0.0,0.0,0.0,0.0,0.0,0.0,0.0,0.0,0.0,0.0,0.0,0.0,0.0,0.0,0.0,0.0,0.0,1.095,0.8313,0.9965,0.9959,0.8313,0.8922,0.9296,0.9296,1.0265,1.0634,0.0,0.0,0.0,0.0,0.0,0.0,0.0,0.0,0.0,0.0,0.0,0.0,0.0,0.0,0.0,0.0,0.0,0.0,0.0,0.0,0.0,0.0,0.0,0.0,0.0,0.0,0.0,0.0,1.7148,1.607,1.4728,0.0,0.0,0.0,0.0,0.0,0.0,0.0,0.0,0.0,0.0,1.2305,1.2305,1.2378,1.2581,1.2871,1.2736,1.2791,1.3369,1.366,1.3895,1.3829,0.0,0.0,0.0,0.0,0.0,0.0,0.0,0.0,0.0,0.0,0.0,0.0,0.0,0.0,0.0,0.0,0.0,0.0,0.0,0.0,0.0,0.0,0.0,0.0,0.0,0.0,0.0,0.0,0.0,0.0,1.3944,0.0,0.0,0.0,0.0,0.0,0.0,0.0,0.0,0.0,0.0,0.0,0.0,0.0,0.0,0.0,0.0,0.0,0.0,0.0,0.0,0.0,0.0,1.1323,0.9296,1.034,1.034,0.9296,0.9296,0.9372,0.9372,1.0265,1.034,0.9448,0.0,0.0,0.0,0.0,0.0,0.0,0.0,0.0,0.0,0.0,0.0,0.0,0.0,0.0,0.0,0.0,0.0,0.0,0.0,0.0,0.0,0.0,0.0,0.0,0.0,0.0,1.794,1.7139,1.6567,0.0,0.0,0.0,0.0,0.0,0.0,0.0,0.0,0.0,0.0,1.2305,1.2305,1.2311,1.2559,1.3113,1.4156,1.367,1.386,1.5655,1.5023,1.4156,0.0,0.0,0.0,0.0,0.0,0.0,0.0,0.0,0.0,0.0,0.0,0.0,0.0,0.0,0.0,0.0,0.0,0.0,0.0,0.0,0.0,0.0,0.0,0.0,0.0,0.0,0.0,1.2077,1.3464,0.0,0.0,0.0,0.0,0.0,0.0,0.0,0.0,0.0,0.0,0.0,1.5553,1.6271,0.0,0.0,0.0,0.0,0.0,0.0,0.0,0.0,0.0,0.0,0.0,0.0,1.1626,1.0415,1.1316,1.1316,1.034,1.095,1.1323,1.1329,1.1626,1.162,1.1323,0.0,0.0,0.0,0.0,0.0,0.0,0.0,0.0,0.0,0.0,0.0,0.0,0.0,0.0,0.0,0.0,0.0,0.0,0.0,0.0,0.0,0.0,0.0,0.0,0.0,1.7716,0.0,0.0,0.0,0.0,0.0,0.0,0.0,0.0,0.0,0.0,0.0,1.2305,1.2305,1.2472,1.2599,1.2674,1.2859,1.3209,0.0,0.0,0.0,0.0,0.0,0.0,0.0,0.0,0.0,0.0,0.0,0.0,0.0,0.0,1.373,1.5367,1.6114,1.6807,1.7813,0.0,0.0,0.0,0.0,0.0,0.0,0.0,0.0,0.0,0.0,0.0,0.0,0.0,0.0,1.2942,0.0,1.4088,0.0,0.0,0.0,0.0,0.0,0.0,0.0,0.0,1.6272,1.6447,1.6158,1.6784,1.7417,0.0,1.6413,1.5728,0.0,0.0,0.0,0.0,0.0,0.0,0.0,0.0,1.1761,1.0697,1.1768,1.1996,1.1391,1.1996,1.2305,1.2305,1.2305,1.2305,1.2305,1.2305,1.2305,0.0,0.0,0.0,0.0,0.0,0.0,0.0,0.0,0.0,0.0,0.0,0.0,0.0,0.0,0.0,0.0,0.0,0.0,0.0,0.0,0.0,0.0,0.0,1.7725,0.0,0.0,0.0,0.0,0.0,0.0,0.0,0.0,0.0,1.381,1.2886,1.2345,1.2445,1.2996,1.3231,1.297,0.0,0.0,0.0,0.0,0.0,0.0,0.0,1.6106,1.5286,1.6121,1.6362,1.4686,1.3812,1.3375,1.3673,0.0,0.0,1.586,1.6618,1.7229,1.7823,1.87,1.9365,1.9694,2.1043,2.236,0.0,0.0,0.0,0.0,0.0,0.0,0.0,0.0,1.2407,1.3105,0.0,1.425,0.0,0.0,0.0,0.0,0.0,1.6405,0.0,0.0,1.8203,1.8358,1.7979,1.7949,1.8008,1.794,1.707,1.6636,1.6636,1.5728,0.0,0.0,0.0,0.0,0.0,0.0,1.1681,1.0444,1.1681,1.2305,1.2305,1.2305,1.2305,1.2305,1.2305,1.2305,1.2305,1.2305,1.2305,1.2305,1.3171,0.0,0.0,0.0,0.0,0.0,0.0,0.0,0.0,0.0,0.0,0.0,0.0,0.0,0.0,0.0,0.0,0.0,0.0,0.0,0.0,1.8008,0.0,0.0,0.0,0.0,0.0,0.0,0.0,0.0,0.0,0.0,1.4122,1.3046,1.2574,1.2871,0.0,0.0,0.0,0.0,1.6868,1.6789,1.7015,1.7488,1.8541,1.7734,1.6859,1.6834,0.0,0.0,1.5913,1.5508,1.4927,1.3977,1.4705,1.5251,1.5376,1.6789,1.7861,1.7968,1.8747,1.9628,2.0398,2.0707,2.1026,1.1552,0.0,0.0,0.0,0.0,1.1809,1.2504,1.3639,1.4364,1.4949,1.5296,1.6041,0.0,0.0,0.0,0.0,0.0,0.0,1.7463,1.8096,1.8017,1.7959,1.8002,1.7988,1.8008,1.8008,1.7716,1.7569,1.7579,1.7295,1.6018,1.3745,0.0,0.0,0.0,0.0,1.2144,1.1761,1.207,1.2305,1.2305,1.2305,1.2305,1.2305,1.2305,1.2305,1.2305,1.2305,1.2305,1.2305,1.3171,0.0,0.0,0.0,0.0,0.0,0.0,0.0,0.0,0.0,0.0,0.0,0.0,0.0,0.0,0.0,0.0,0.0,0.0,0.0,1.8076,1.8008,1.8008,0.0,0.0,0.0,0.0,0.0,0.0,0.0,0.0,0.0,1.6283,1.5397,1.493,0.0,0.0,1.6113,1.5835,1.5981,1.6036,1.6036,1.5486,0.0,1.5477,1.644,1.6846,1.5888,1.6081,1.6338,1.6238,1.613,1.6062,1.611,1.6427,1.6715,1.7135,1.7571,1.814,1.8793,1.9607,2.0268,2.0526,2.1049,2.1616,1.3027,1.2942,1.2504,1.2589,1.3027,1.3027,1.3379,1.4166,1.4817,1.5054,1.5137,1.5718,1.6281,1.6683,1.7098,0.0,0.0,0.0,1.8338,1.8898,1.8666,1.8349,1.8014,1.8191,1.8164,1.8018,1.7647,1.7647,1.8008,1.7226,1.6009,1.4378,0.0,0.0,1.2305,1.2305,1.2305,1.2305,1.2305,1.2305,1.2305,1.2305,1.2305,1.2305,1.2305,1.2305,1.2305,1.2305,1.2452,1.2879,1.381,1.4442,0.0,0.0,0.0,0.0,0.0,0.0,0.0,0.0,0.0,0.0,0.0,2.0204,2.059,0.0,0.0,0.0,1.8395,1.8008,1.8008,1.8008,0.0,0.0,0.0,0.0,0.0,0.0,0.0,1.8252,1.8128,1.807,1.8229,1.7788,1.7032,1.611,1.6477,1.6665,1.5867,0.0,1.6191,1.5779,1.5545,1.5394,1.5394,1.6445,1.7179,1.6805,1.7002,1.7225,1.7208,1.6784,1.653,1.6798,1.7187,1.756,1.7911,1.8311,1.8775,1.9264,2.0009,2.0655,2.1049,2.1553,2.2013,1.4257,1.4166,1.2936,1.3112,1.4166,1.425,1.425,1.4328,1.4496,1.4503,1.4496,1.458,1.5137,1.6101,1.709,0.0,1.9116,1.9116,1.9403,1.9961,1.9932,1.9286,1.8251,1.8482,1.8418,1.794,1.7139,1.7139,1.7862,1.6298,1.5376,1.5296,1.5234,1.4227,1.2378,1.2305,1.2305,1.2305,1.2305,1.2305,1.2305,1.2305,1.2305,1.2305,1.2305,1.2305,1.2378,1.2378,1.2806,1.373,1.4728,1.5649,1.6558,0.0,0.0,0.0,0.0,0.0,0.0,0.0,0.0,0.0,0.0,0.0,0.0,0.0,0.0,0.0,1.911,0.0,1.8076,1.8008,0.0,0.0,0.0,1.8018,1.8057,1.8398,1.8582,1.8682,0.0,0.0,1.9863,1.9941,1.8868,1.5959,1.6507,1.6549,1.4699,1.6281,1.7098,1.6026,1.6683,1.7261,1.7098,1.7342,1.7819,1.8603,1.8728,1.8493,1.8389,1.7585,1.6725,1.6876,1.742,1.81,1.8156,1.9293,1.9965,1.9786,2.0259,2.0974,2.1815,2.2002,2.2249,1.5296,1.5213,1.4146,1.43,1.5296,1.5304,1.5786,1.6609,1.7496,1.7827,1.79,1.87,1.9186,1.9423,1.9678,2.0001,2.0245,2.0245,2.0265,2.0391,2.0068,1.994,1.9907,1.9071,1.8418,1.8027,1.7794,1.7794,1.794,1.7588,1.6941,1.6289,1.5579,1.4235,1.2378,1.2305,1.2305,1.2305,1.2305,1.2305,1.2305,1.2305,1.2305,1.2305,1.2305,1.2659,1.3317,1.3382,1.3556,1.4119,1.5458,1.6262,1.6209,1.7326,0.0,0.0,0.0,0.0,0.0,0.0,0.0,0.0,0.0,2.1365,2.1565,0.0,2.059,0.0,1.9628,1.8977,1.8967,1.8395,0.0,0.0,1.8008,1.8135,1.8447,1.8574,1.8769,1.9092,1.9512,1.9805,1.9902,2.0205,1.9849,1.8329,1.904,1.9243,1.8052,1.823,1.8221,1.7172,1.709,1.7342,1.7342,1.8069,1.863,1.8957,1.8955,1.89,1.8891,1.8662,1.8491,1.8976,1.9221,1.9619,1.998,2.0909,2.1709,2.2281,2.204,2.1815,2.2628,2.2823,2.2884,1.6437,1.6355,1.5794,1.6116,1.7082,1.6108,1.6273,1.7334,1.798,1.823,1.831,1.9353,1.9844,1.9923,2.0401,2.0576,2.0576,2.0576,2.0576,2.0557,2.0312,2.0371,2.0548,1.9426,1.8611,1.8016,1.8008,1.8008,1.8008,1.7569,1.7139,1.6558,1.5649,1.445,1.2952,1.2519,1.2305,1.2305,1.2305,1.2305,1.2305,1.2305,1.2305,1.2305,1.2732,1.3171,1.3673,1.4099,1.4625,1.5275,1.6096,1.6688,1.6945,1.7628,1.8008,0.0,0.0,0.0,0.0,0.0,0.0,0.0,0.0,0.0,0.0,0.0,2.1049,2.0655,2.0139,1.9879,1.989,1.9431,1.9177,1.9177,1.9354,1.9583,1.9823,2.0198,2.0623,2.0885,2.0872,2.0848,2.0868,2.0718,2.0401,1.9766,2.0235,2.0001,1.855,1.823,1.7989,1.7415,1.7342,1.7342,1.7342,1.823,1.9045,1.9045,1.9353,1.9687,1.9678,1.9687,1.9837,2.0101,2.0205,2.0289,2.0703,2.1248,2.2033,2.2765,2.2874,2.2886,2.338,2.3314,2.3198,1.7504,1.7504,1.7334,1.7989,1.8877,1.6919,1.6756,1.7738,1.7747,1.7747,1.7738,1.8798,1.9195,1.9274,2.0157,2.0576,2.0576,2.0576,2.0576,2.0576,2.0576,2.0621,2.0532,1.9748,1.8909,1.7995,1.8085,1.8057,1.8018,1.7148,1.6784,1.6775,1.5869,1.4879,1.3882,1.3011,1.2505,1.2305,1.2305,1.2305,1.2305,1.2305,1.2305,1.2305,1.3237,1.3745,1.3882,1.4879,1.5799,1.6706,1.6775,1.7139,1.794,1.8008,1.8008,0.0,1.8854,0.0,0.0,0.0,0.0,0.0,0.0,0.0,0.0,2.2075,2.1741,2.0974,2.0846,2.0782,2.0782,2.0711,2.068,2.0702,2.1062,2.1308,2.1408,2.2073,2.2535,2.2601,2.2157,2.1811,2.1725,2.1078,2.0576,2.0566,2.0566,2.0001,1.8221,1.79,1.79,1.7577,1.7658,1.7989,1.7989,1.863,1.9204,1.9204,1.9687,2.0411,2.0245,2.0323,2.0401,2.0557,2.0537,2.0615,2.0712,2.1254,2.2034,2.2947,2.3511,2.3826,2.3991,2.3665,2.3504,1.8718,1.863,1.7666,1.798,1.8957,1.855,1.8948,2.0001,2.0001,2.0001,2.0001,2.0157,2.0333,2.0313,2.0489,2.0576,2.0576,2.0576,2.0576,2.0576,2.0576,2.0621,2.0542,2.0043,1.919,1.8033,1.8366,1.834,1.8008,1.7794,1.7725,1.7716,1.6784,1.586,1.4942,0.0,0.0,0.0,1.2305,1.2305,1.2305,1.2305,1.2305,1.2298,1.3237,0.0,1.4879,1.586,1.6793,1.7647,1.7725,0.0,0.0,0.0,0.0,0.0,0.0,0.0,0.0,0.0,0.0,0.0,2.1175,2.1227,2.2689,2.2884,2.2823,2.2628,2.2002,2.1628,2.1628,2.1415,2.125,2.1207,2.109,2.1047,2.1339,2.0896,2.0622,2.0994,2.0961,2.0867,2.1011,2.0712,2.0644,2.0644,2.0576,2.0489,2.0001,1.9835,1.959,1.8957,1.9274,1.9923,1.9991,2.0079,1.9923,1.9362,1.9116,1.9362,1.9441,1.9362,1.9678,2.0411,2.0576,2.0867,2.1517,2.2477,2.3285,2.4341,2.4905,2.5087,2.4693,2.423,2.4063,1.9953,0.0,1.9195,1.9274,0.0,1.9756,2.0089,2.0576,2.0576,2.0576,2.0576,2.0576,2.0576,2.0576,2.0576,2.0576,2.0576,2.0576,2.0576,2.0576,2.0576,2.0633,2.0619,2.0124,1.9697,1.9268,1.8848,1.8525,1.8311,1.8115,1.8008,1.8008,1.7501,1.6576,1.5234,1.5174,1.4832,1.416,1.4168,1.4065,1.3738,1.3237,1.3025,1.3025,1.3455,0.0,0.0,0.0,0.0,0.0,0.0,0.0,0.0,1.8008,0.0,1.8586,1.9044,1.9694,2.0526,2.0579,2.1101,2.2384,2.2051,2.2175,2.3005,2.3125,2.3125,2.3065,2.2763,2.2616,2.2897,2.2775,2.2769,2.3019,2.3147,2.3282,2.3386,2.3273,2.3234,2.3374,2.3073,2.2798,2.2798,2.1811,2.1288,2.1221,2.0867,2.0644,2.0576,2.0576,2.0323,1.9923,2.0167,2.0566,2.0576,2.0576,2.0489,1.9913,1.9766,1.9756,1.9756,1.9766,2.001,2.0489,2.0576,2.0789,2.1298,2.2478,2.3672,2.4241,2.5211,2.5895,2.5636,2.4983,2.4772,2.1016,2.0684,2.0596,2.0576,2.0576,2.0576,2.0576,2.0576,0.0,0.0,0.0,2.0576,2.0576,2.0576,2.0576,2.0576,2.0576,2.0576,2.0576,2.0576,2.0576,2.0576,2.0557,2.0195,2.02,2.0502,1.9324,1.8711,1.8543,1.8213,1.8008,1.8008,1.8008,1.7217,1.5816,1.6048,1.6234,1.6378,1.6245,1.5769,1.5242,1.4386,1.3962,1.3954,1.4099,1.4593,1.5446,1.6358,1.7207,1.794,1.8008,1.8008,1.8008,1.8008,1.8395,1.9243,1.9299,2.0009,2.1553,2.169,2.2002,2.2823,2.3005,2.3125,2.3125,2.3125,2.3125,2.3125,2.3226,2.3489,2.3954,2.4192,2.4456,2.4921,2.529,2.5468,2.5493,2.5716,2.5627,2.5873,2.4838,2.4492,2.4492,2.2999,2.2103,2.2103,2.1669,2.1011,2.0867,2.0722,2.0566,2.0489,2.0566,2.0576,2.0576,2.0576,2.0576,2.0566,2.0566,2.0576,2.0576,2.0576,2.0576,2.0566,2.0722,2.0857,2.1001,2.2489,2.3661,2.3745,2.5205,2.6521,2.6445,2.5883,2.5781,2.1201,2.1103,2.0723,2.0576,2.0576,2.0576,2.0576,2.0576,2.0576,2.0576,2.0576,2.0576,2.0576,2.0576,2.0576,2.0576,2.0576,2.0576,2.0576,2.0576,2.0576,2.0576,2.0557,2.0508,2.0572,2.0522,1.962,1.9004,1.8623,1.8213,1.8008,1.8008,1.8008,1.7862,1.7588,1.6899,1.6908,1.7686,1.6632,1.5769,1.5234,1.5092,1.5021,1.5021,1.572,1.628,1.6428,1.7285,1.7862,1.8008,1.8008,1.8008,1.8008,1.8008,1.8395,1.9243,1.9299,1.9759,2.0719,2.0782,2.1164,2.2002,2.2689,2.3125,2.3125,2.3125,2.3125,2.315,2.3577,2.3904,2.4042,2.482,2.5347,2.5432,2.5269,2.5109,2.5155,2.4554,2.4181,2.4181,2.3062,2.2999,2.3745,2.2925,2.2478,2.3062,2.2925,2.2713,2.1886,2.1078,2.0644,2.0576,2.0576,2.0576,2.0576,2.0576,2.0576,2.0576,2.0576,2.0576,2.0576,2.0576,2.0576,2.0576,2.1155,2.1669,2.1811,2.3441,2.448,2.4707,2.5734,2.6452,2.6589,2.6876,2.7404,2.166,2.123,2.1016,2.0781,2.0576,2.0576,2.0576,2.0576,2.0576,2.0576,2.0576,2.0576,2.0576,2.0576,2.0576,2.0576,2.0576,2.0576,2.0576,2.0644,2.1165,2.1078,2.0712,2.1165,2.1084,2.0552,1.9928,1.9404,1.8984,1.8555,1.8232,1.7959,1.751,1.7217,1.7207,1.6844,1.6853,1.7207,1.7135,1.6987,1.6724,1.6228,1.593,1.593,1.593,1.607,1.6567,1.7001,1.7501,1.8008,1.8008,1.8008,1.8008,1.8008,1.8395,1.9233,1.9299,1.9879,2.1239,2.1741,2.2113,2.2519,2.317,2.3602,2.3615,2.3602,2.3602,2.3615,2.4104,2.4569,2.4833,2.531,2.5711,2.6025,2.5946,2.5804,2.5804,2.5429,2.5122,2.5063,2.4755,2.4612,2.5063,2.4253,2.3734,2.4192,2.3891,2.3294,2.2914,2.2478,2.1756,2.0867,2.0576,2.0576,2.0644,2.0576,2.0576,2.0576,2.0576,2.0576,2.0576,2.0644,2.0644,2.0644,2.1375,2.1886,2.2038,2.3599,2.4707,2.5087,2.5816,2.6508,2.7095,2.8182,2.9161,2.2129,2.1523,2.1416,2.1113,2.0713,2.0605,2.0576,2.0576,2.0576,2.0576,2.0576,2.0576,2.0576,2.0576,2.0576,2.0576,2.0644,2.0857,2.0789,2.0712,2.1593,2.1634,2.1121,2.1492,2.1288,2.0585,2.0117,1.9697,1.9277,1.8848,1.8418,1.7979,1.7285,1.6922,1.6922,1.6922,1.6922,1.7001,1.7638,1.8008,1.8008,1.7285,1.6922,1.6853,1.6228,1.6149,1.6853,1.6922,1.7217,1.794,1.8008,1.8008,1.8008,1.8202,1.8654,1.9497,1.9748,2.0526,2.2013,2.2886,2.3326,2.3339,2.3866,2.4192,2.4192,2.4305,2.4293,2.4268,2.4669,2.5159,2.5498,2.5724,2.5975,2.6471,2.6521,2.6452,2.6452,2.6521,2.6521,2.6521,2.6314,2.6094,2.6245,2.5664,2.5075,2.5146,2.4624,2.4181,2.3891,2.3818,2.3073,2.1897,2.1231,2.1231,2.1011,2.0934,2.0934,2.0934,2.0924,2.1155,2.1231,2.1308,2.1308,2.1527,2.2113,2.2776,2.2925,2.4108,2.5217,2.5523,2.622,2.7095,2.8233,2.9414,3.0763,2.2461,2.2344,2.1973,2.1572,2.1123,2.0732,2.0576,2.0576,2.0576,2.0576,2.0576,2.0576,2.0576,2.0576,2.0576,2.0576,2.0644,2.1441,2.1375,2.0789,2.1593,2.214,2.2092,2.1228,2.0712,2.0595,2.0137,1.9727,1.934,1.8828,1.8418,1.8057,1.793,1.7862,1.7862,1.7862,1.7862,1.7862,1.794,1.8008,1.8008,1.794,1.7862,1.7862,1.7794,1.7794,1.7784,1.7862,1.794,1.8008,1.8008,1.8008,1.8066,1.8731,1.9562,2.0322,2.1175,2.2063,2.2921,2.3553,2.3904,2.3954,2.4418,2.4745,2.477,2.5172,2.5234,2.4971,2.5234,2.5561,2.5624,2.6038,2.642,2.6496,2.6521,2.6521,2.6521,2.6521,2.6521,2.6521,2.5804,2.5511,2.6233,2.5664,2.5441,2.6094,2.6013,2.5664,2.5004,2.485,2.4552,2.3599,2.322,2.285,2.2178,2.1886,2.1886,2.1886,2.1886,2.2188,2.2627,2.2999,2.3147,2.2776,2.3829,2.4337,2.4707,2.5594,2.6233,2.6289,2.6947,2.8051,2.9614,3.0572,3.1576,2.2734,2.25,2.2324,2.1865,2.1221,2.0762,2.0576,2.0576,2.0576,2.0576,2.0576,2.0576,2.0576,2.0576,2.0576,2.0576,2.0644,2.1011,2.1298,2.1527,2.2403,2.2339,2.1497,2.2124,2.2145,2.1665,2.0775,2.0242,1.9971,1.8874,1.8174,1.8027,1.8008,1.8008,1.8008,1.8008,1.8008,1.8008,1.8008,1.8008,1.8008,1.8008,1.8008,1.8008,1.8008,1.8008,1.8008,1.8008,1.8008,1.8008,1.8008,1.8008,1.8008,1.8337,1.8654,1.9121,2.0675,2.1999,2.2858,2.3839,2.4494,2.4494,2.4983,2.5285,2.531,2.5774,2.6,2.5862,2.6,2.6101,2.6113,2.6382,2.6521,2.6521,2.6521,2.6521,2.6521,2.6521,2.6521,2.6452,2.6164,2.6025,2.6383,2.6164,2.6094,2.6452,2.6521,2.6245,2.5943,2.5873,2.5721,2.5358,2.5288,2.4552,2.3294,2.285,2.2925,2.2914,2.2925,2.3147,2.3368,2.3514,2.3514,2.3514,2.4409,2.5004,2.4933,2.5804,2.6521,2.6837,2.7723,2.8876,3.0072,3.0832,3.1851,2.2969,2.2685,2.2568,2.209,2.1387,2.0937,2.0674,2.0644,2.0867,2.1011,2.1011,2.1231,2.1375,2.1308,2.0867,2.0712,2.1021,2.1231,2.1745,2.2478,2.3452,2.3036,2.169,2.2815,2.3106,2.2338,2.1395,2.0917,2.0623,1.9033,1.8262,1.8289,1.8144,1.8008,1.8008,1.8008,1.8008,1.8008,1.8008,1.8008,1.8008,1.8008,1.8008,1.8008,1.8008,1.8008,1.8008,1.8008,1.8008,1.8008,1.8008,1.8008,1.8008,1.831,1.8819,1.9552,2.1252,2.2603,2.3276,2.4372,2.5034,2.5071,2.5523,2.5837,2.5912,2.6226,2.6508,2.6496,2.6521,2.6508,2.6521,2.6521,2.6521,2.6521,2.6521,2.6521,2.6521,2.6521,2.6521,2.6521,2.6452,2.6521,2.6521,2.6452,2.6452,2.6452,2.6521,2.6521,2.6521,2.6452,2.6452,2.6521,2.6452,2.5721,2.4253,2.3891,2.3891,2.3891,2.3891,2.4036,2.4181,2.4325,2.4325,2.4992,2.5217,2.5441,2.5652,2.6302,2.7162,2.767,2.8465,2.9501,3.0249,3.1021,3.1836,2.3135,2.3047,2.2666,2.234,2.1899,2.1448,2.1026,2.0906,2.1593,2.1962,2.2113,2.2861,2.3294,2.3147,2.1527,2.1155,2.1962,2.2776,2.3231,2.3526,2.442,2.4325,2.3419,2.3441,2.2999,2.2349,2.1962,2.1417,2.0542,1.9294,1.8804,1.9198,1.8462,1.8076,1.8144,1.8134,1.8008,1.8202,1.8134,1.8076,1.8008,1.8008,1.8008,1.8066,1.8008,1.8008,1.8008,1.8008,1.8008,1.8018,1.8105,1.8095,1.8135,1.9196,2.0733,2.2689,2.3916,2.4589,2.4691,2.5206,2.5573,2.5636,2.6038,2.6458,2.6408,2.6471,2.6521,2.6521,2.6521,2.6521,2.6521,2.6521,2.6521,2.6521,2.6521,2.6521,2.6521,2.6521,2.6521,2.6521,2.6521,2.6521,2.6521,2.6521,2.6521,2.6521,2.6521,2.6521,2.6521,2.6521,2.6521,2.6521,2.6452,2.6094,2.5146,2.4933,2.4933,2.4921,2.4992,2.5146,2.5873,2.6383,2.6233,2.6164,2.6164,2.6233,2.6508,2.7217,2.8233,2.8898,2.9487,3.0234,3.058,3.1626,3.2225,2.356,2.4159,2.3739,2.3867,2.4277,2.3538,2.3088,2.2982,2.2981,2.2999,2.2999,2.3368,2.3514,2.3452,2.2787,2.2638,2.2925,2.2702,2.3231,2.4337,2.4862,2.4779,2.448,2.4492,2.4337,2.3818,2.2606,2.1481,2.0715,2.0408,2.0277,2.002,1.9233,1.911,1.9497,1.911,1.911,1.9562,1.9166,1.8854,1.8787,1.8269,1.8269,1.8777,1.8269,1.8008,1.8008,1.8008,1.8125,1.8398,1.901,1.9486,1.9823,2.0812,2.1992,2.329,2.408,2.4743,2.5306,2.5837,2.6151,2.6163,2.6327,2.6521,2.6521,2.6521,2.6521,2.6521,2.6521,2.6521,2.6521,2.6521,2.6521,2.6521,2.6521,2.6521,2.6521,2.6521,2.6521,2.6521,2.6521,2.6521,2.6521,2.6521,2.6521,2.6521,2.6521,2.6521,2.6521,2.6521,2.6521,2.6521,2.6452,2.6383,2.6107,2.5955,2.5943,2.5955,2.6025,2.6013,2.6452,2.6452,2.6383,2.6371,2.6521,2.6782,2.704,2.7604,2.8734,2.9685,3.0337,3.058,3.0973,3.1571,3.1937,2.38,2.465,2.4545,2.4902,2.5632,2.4925,2.4475,2.4284,2.4107,2.3963,2.4036,2.4325,2.4469,2.4397,2.4108,2.4169,2.4325,2.343,2.3879,2.537,2.5511,2.5523,2.5523,2.5511,2.5312,2.4791,2.3294,2.2142,2.1501,2.1586,2.1361,2.0955,2.0139,2.002,2.0398,2.0009,2.0085,2.0398,2.002,1.9759,1.9628,1.9177,1.911,1.9584,1.9312,1.9069,1.9069,1.9059,1.9264,1.9782,2.0408,2.0978,2.1469,2.2363,2.32,2.3958,2.4667,2.5215,2.5832,2.6239,2.6521,2.6521,2.6521,2.6521,2.6521,2.6521,2.6521,2.6521,2.6521,2.6521,2.6521,2.6521,2.6521,2.6521,2.6521,2.6521,2.6521,2.6521,2.6521,2.6521,2.6521,2.6521,2.6521,2.6521,2.6521,2.6521,2.6521,2.6521,2.6521,2.6521,2.6521,2.6521,2.6521,2.6658,2.6645,2.6564,2.6371,2.6371,2.6314,2.6452,2.6589,2.6521,2.6589,2.6589,2.6782,2.7162,2.7604,2.8103,2.9004,3.0115,3.0594,3.0858,3.1056,3.118,3.1641,2.3877,2.4946,2.4872,2.5431,2.6064,2.5496,2.4856,2.4728,2.487,2.5004,2.5075,2.5943,2.6164,2.6164,2.537,2.5511,2.5943,2.5217,2.537,2.6314,2.6383,2.6383,2.6383,2.6302,2.5804,2.5016,2.4036,2.3438,2.3127,2.2547,2.2131,2.1816,2.106,2.0719,2.0719,2.0719,2.0655,2.0782,2.0719,2.059,2.059,2.0495,2.0529,2.0702,2.1083,2.1352,2.143,2.1341,2.1419,2.1922,2.2127,2.2432,2.3072,2.3839,2.4536,2.5071,2.5894,2.6358,2.6414,2.6427,2.6521,2.6521,2.6521,2.6521,2.6521,2.6521,2.6521,2.6521,2.6521,2.6521,2.6533,2.6589,2.6589,2.6521,2.6521,2.6521,2.6521,2.6521,2.6521,2.6521,2.6521,2.6533,2.6533,2.6658,2.6658,2.6645,2.6782,2.6769,2.6782,2.6837,2.6645,2.6658,2.6973,2.7284,2.7229,2.7108,2.6837,2.6577,2.6521,2.6533,2.6726,2.6714,2.6905,2.7027,2.7537,2.792,2.8821,2.933,2.9614,3.0493,3.0773,3.0959,3.1022,3.1116,3.1561,2.6036,2.7012,2.7105,2.7681,2.8336,2.7563,2.7065,2.6809,2.635,2.6025,2.6094,2.6383,2.6521,2.6452,2.6164,2.6164,2.6452,2.6164,2.6245,2.6452,2.6521,2.6521,2.6521,2.6521,2.5955,2.5229,2.5441,2.4939,2.4098,2.3881,2.3741,2.3205,2.2106,2.1815,2.2187,2.1803,2.1741,2.2175,2.1753,2.1491,2.1463,2.1251,2.1422,2.2075,2.2585,2.3273,2.4141,2.2829,2.2218,2.2691,2.3317,2.4184,2.5123,2.5684,2.5896,2.6057,2.6314,2.6521,2.6521,2.6521,2.6521,2.6521,2.6521,2.6521,2.6521,2.6521,2.6521,2.6521,2.6521,2.6521,2.6589,2.704,2.7108,2.6589,2.6521,2.6589,2.6645,2.6589,2.6521,2.6521,2.6521,2.6714,2.7162,2.7351,2.7351,2.7417,2.7736,2.7986,2.7537,2.7736,2.8168,2.8233,2.8233,2.8103,2.8247,2.8182,2.7986,2.7604,2.7364,2.7162,2.7162,2.7229,2.7351,2.7749,2.8322,2.8941,2.9854,3.0324,3.0443,3.0585,3.0794,3.0878,3.0852,3.1233,3.1754,2.7116,2.8096,2.8084,2.8767,2.9666,2.8586,2.8109,2.7946,2.6929,2.6521,2.6452,2.6521,2.6521,2.6521,2.6521,2.6521,2.6521,2.6521,2.6521,2.6521,2.6521,2.6521,2.6521,2.6521,2.6233,2.5816,2.6176,2.5878,2.4779,2.4731,2.4544,2.3867,2.2911,2.2567,2.3017,2.2628,2.2628,2.2944,2.2567,2.2322,2.2357,2.2325,2.2662,2.3232,2.3879,2.4669,2.5482,2.4394,2.3954,2.4294,2.484,2.5598,2.6427,2.644,2.6521,2.6521,2.6521,2.6521,2.6521,2.6521,2.6521,2.6521,2.6521,2.6521,2.6521,2.6521,2.6589,2.6905,2.6645,2.6782,2.7351,2.7484,2.7537,2.7471,2.7471,2.7417,2.7404,2.7417,2.7471,2.7537,2.7484,2.767,2.7973,2.8168,2.8168,2.8298,2.862,2.8939,2.8427,2.8634,2.8939,2.8989,2.8798,2.8939,2.938,2.9317,2.9115,2.8748,2.8376,2.8182,2.8117,2.8051,2.8117,2.8837,2.9417,2.9782,3.055,3.0603,3.0661,3.0798,3.0895,3.0868,3.0958,3.1623,3.2196,2.729,2.8176,2.8176,2.8858,2.9641,2.8586,2.8109,2.7934,2.6942,2.6521,2.6521,2.6521,2.6521,2.6521,2.6521,2.6521,2.6521,2.6521,2.6521,2.6521,2.6521,2.6521,2.6521,2.6521,2.6383,2.6383,2.6465,2.6176,2.559,2.5131,2.4594,2.4104,2.3503,2.3103,2.309,2.3078,2.3005,2.3078,2.3065,2.3017,2.313,2.3654,2.4004,2.4142,2.5043,2.5594,2.5695,2.594,2.6202,2.644,2.6308,2.6308,2.6452,2.6521,2.6521,2.6521,2.6521,2.6521,2.6533,2.6645,2.6645,2.6714,2.685,2.6645,2.6905,2.696,2.7229,2.7683,2.7217,2.7364,2.8376,2.8427,2.8363,2.8989,2.8876,2.8734,2.8925,2.8876,2.8684,2.8798,2.8925,2.8989,2.9002,2.9066,2.9066,2.9129,2.9254,2.938,2.9192,2.9317,2.9192,2.938,2.9628,2.9813,3.0269,3.0208,3.0072,2.9954,2.9529,2.9184,2.9122,2.9059,2.9133,2.9882,3.0277,3.0669,3.0853,3.0825,3.0858,3.1017,3.0994,3.0882,3.1301,3.1984,3.253,2.9118,2.9365,2.9365,2.9534,2.9628,2.8586,2.8109,2.7959,2.6929,2.6521,2.6521,2.6521,2.6521,2.6521,2.6521,2.6521,2.6521,2.6533,2.6521,2.6521,2.6521,2.6521,2.6521,2.6521,2.6521,2.6521,2.6521,2.6389,2.6201,2.5624,2.5096,2.4594,2.4042,2.3552,2.3213,2.3163,2.3125,2.3125,2.3078,2.3376,2.3791,2.4305,2.4795,2.5234,2.585,2.6189,2.6226,2.6433,2.6521,2.6521,2.6521,2.6521,2.6521,2.6521,2.6521,2.6589,2.6521,2.6521,2.6658,2.7095,2.7351,2.7484,2.7868,2.8312,2.8376,2.8298,2.8427,2.862,2.8441,2.8492,2.8989,2.938,2.995,3.051,2.9827,2.9129,2.9115,2.8989,2.8989,2.8989,2.9052,2.938,2.9827,2.995,2.9936,3.0011,3.0269,3.0524,3.0147,3.0435,3.0615,3.0763,3.0955,3.1014,3.1087,3.1029,3.094,3.0969,3.0617,3.0105,3.0192,3.0264,3.0529,3.0958,3.0843,3.1099,3.1013,3.0878,3.1027,3.1246,3.1091,3.1022,3.176,3.2433,3.2845,2.9779,2.9779,2.9779,2.9641,2.934,2.8473,2.7971,2.762,2.6866,2.6521,2.6521,2.6521,2.6521,2.6521,2.6521,2.6714,2.6905,2.6658,2.6726,2.704,2.7027,2.6837,2.6577,2.6521,2.6521,2.6521,2.6521,2.6521,2.642,2.5875,2.5435,2.5109,2.4607,2.4067,2.3565,2.3502,2.3303,2.3238,2.3351,2.369,2.4017,2.477,2.5222,2.5661,2.6151,2.6521,2.6521,2.6521,2.6521,2.6521,2.6521,2.6521,2.6521,2.6521,2.6658,2.6905,2.7027,2.7175,2.7537,2.7986,2.8247,2.8312,2.8798,2.8925,2.8939,2.8989,2.9052,2.9518,2.9254,2.938,3.0011,3.0524,3.097,3.1219,3.0644,3.0086,3.0086,3.0147,3.0086,3.0072,3.0072,3.0194,3.0777,3.0763,3.0777,3.0851,3.1102,3.1087,3.0955,3.1552,3.1951,3.1951,3.2145,3.2226,3.221,3.221,3.1931,3.1925,3.1558,3.1065,3.0738,3.0952,3.1228,3.136,3.139,3.1334,3.1261,3.1237,3.1399,3.1472,3.1235,3.1493,3.2247,3.2787,3.3158,2.9779,2.9779,2.9779,2.9465,2.8925,2.8335,2.7808,2.7268,2.6785,2.6521,2.6521,2.6521,2.6521,2.6521,2.6714,2.704,2.7617,2.7217,2.7351,2.767,2.7802,2.763,2.724,2.6863,2.6658,2.6521,2.6521,2.6521,2.6364,2.5937,2.5674,2.546,2.5084,2.4632,2.4192,2.4079,2.3803,2.3541,2.3879,2.418,2.4431,2.5096,2.5561,2.5824,2.6176,2.6508,2.6521,2.6521,2.6521,2.6521,2.6521,2.6521,2.6521,2.6521,2.6905,2.7417,2.7604,2.7934,2.8748,2.8939,2.9129,2.9192,2.9254,2.9254,2.9442,2.9566,2.9752,3.0389,2.969,3.0147,3.0955,3.1409,3.1409,3.1467,3.1394,3.1482,3.1582,3.1524,3.1467,3.1467,3.1467,3.1467,3.1524,3.1582,3.1582,3.1263,3.1625,3.1905,3.189,3.2296,3.2571,3.268,3.2986,3.3427,3.3427,3.3427,3.3054,3.278,3.2323,3.1797,3.094,3.099,3.1374,3.1542,3.1583,3.1615,3.1641,3.1676,3.1777,3.1985,3.1951,3.2315,3.2723,3.3099,3.3479,2.9779,2.9779,2.9779,2.9465,2.8888,2.8335,2.7783,2.7218,2.676,2.6589,2.6521,2.6521,2.6589,2.6577,2.7217,2.755,2.7934,2.8182,2.8634,2.8684,2.8748,2.8935,2.8695,2.8013,2.7175,2.6714,2.6521,2.6521,2.6445,2.6413,2.6093,2.5757,2.5775,2.5172,2.4784,2.476,2.4607,2.4494,2.4594,2.4833,2.5121,2.5489,2.5958,2.6367,2.6582,2.6577,2.6521,2.6521,2.6521,2.6521,2.6589,2.6714,2.6521,2.6521,2.6973,2.7604,2.7802,2.8168,2.8925,2.969,3.0025,3.0086,3.045,3.0955,3.0955,3.0837,3.0955,3.1204,3.1087,3.1029,3.1452,3.1524,3.1582,3.1582,3.1582,3.1796,3.212,3.1838,3.1582,3.1582,3.1625,3.1524,3.1582,3.216,3.2104,3.1796,3.2145,3.2718,3.2933,3.3039,3.3235,3.3391,3.3751,3.4087,3.4137,3.4105,3.3858,3.3479,3.3093,3.2278,3.1457,3.1242,3.1689,3.1767,3.1776,3.1832,3.1977,3.2009,3.2056,3.2366,3.2727,3.3003,3.3281,3.3597,3.387,2.9779,2.9831,2.9922,2.9401,2.8573,2.8341,2.7793,2.7044,2.7058,2.7027,2.7162,2.7484,2.7683,2.7657,2.8117,2.8505,2.8939,2.9317,2.938,2.9192,2.9317,2.9526,2.9408,2.9099,2.839,2.7416,2.7121,2.7027,2.7027,2.7082,2.7181,2.7222,2.7183,2.6713,2.5884,2.5756,2.5396,2.4947,2.5084,2.5335,2.5561,2.6317,2.6973,2.7538,2.767,2.767,2.7723,2.7723,2.7657,2.767,2.7604,2.7217,2.6714,2.6905,2.7484,2.8168,2.8748,2.9317,3.0147,3.0584,3.0851,3.0837,3.1278,3.1409,3.1467,3.1467,3.1467,3.1467,3.1524,3.1582,3.1951,3.2007,3.2007,3.2007,3.2007,3.2231,3.2437,3.2272,3.216,3.2351,3.2555,3.2555,3.2664,3.2879,3.2879,3.2718,3.281,3.3323,3.3427,3.3598,3.3937,3.4137,3.4447,3.464,3.4736,3.4659,3.4505,3.4193,3.384,3.2872,3.1783,3.1859,3.2046,3.2113,3.2137,3.2194,3.2267,3.2298,3.2449,3.2791,3.316,3.3543,3.3843,3.4073,3.437,3.0101,3.0037,3.0223,2.9516,2.8485,2.8585,2.8088,2.7159,2.7604,2.7934,2.7999,2.8684,2.8748,2.8925,2.9115,2.969,3.0269,3.0389,3.0147,2.9813,3.0208,3.0162,2.9903,2.9979,2.9747,2.8511,2.8105,2.792,2.792,2.792,2.8141,2.8771,2.8911,2.818,2.7384,2.7163,2.6839,2.6078,2.6246,2.6361,2.6517,2.738,2.8179,2.8607,2.8748,2.8734,2.8734,2.8734,2.8862,2.8989,2.8989,2.8233,2.7471,2.7484,2.8312,2.9129,2.9766,3.0389,3.097,3.1351,3.1409,3.1467,3.1467,3.1482,3.1467,3.1524,3.164,3.1781,3.1894,3.2216,3.2695,3.2734,3.2734,3.2734,3.2749,3.2788,3.2879,3.2879,3.3182,3.3287,3.3235,3.3182,3.3375,3.3531,3.3582,3.37,3.3786,3.3836,3.3987,3.4235,3.4592,3.4908,3.5157,3.562,3.5735,3.5693,3.5501,3.4921,3.4559,3.3596,3.2511,3.2476,3.2614,3.2558,3.257,3.2583,3.2681,3.284,3.3027,3.3284,3.3607,3.3931,3.4246,3.4572,3.4832,3.13,3.1246,3.0718,3.0133,2.9564,2.9599,2.9138,2.8688,2.8684,2.8812,2.8812,2.8939,2.9115,2.924,2.9813,3.051,3.1102,3.1161,3.1087,3.0896,3.1146,3.0955,3.0955,3.097,3.0673,2.9979,2.9254,2.8876,2.8798,2.8798,2.9002,2.9066,2.9115,2.8864,2.8697,2.8634,2.8397,2.7813,2.7961,2.8042,2.8224,2.8511,2.8939,2.9254,2.9317,2.924,2.9115,2.9052,2.8989,2.8989,2.8989,2.8862,2.8671,2.8748,2.9254,2.9827,3.0269,3.0763,3.1351,3.1467,3.1467,3.1467,3.1582,3.1524,3.1524,3.1625,3.1951,3.2422,3.2879,3.3287,3.3375,3.3427,3.3443,3.3443,3.3495,3.3582,3.4037,3.4137,3.3987,3.3937,3.3786,3.3786,3.4037,3.4235,3.4235,3.4399,3.456,3.4544,3.4528,3.4894,3.5345,3.5616,3.5907,3.6381,3.6847,3.6777,3.6576,3.5766,3.5261,3.4636,3.3743,3.3293,3.3165,3.3118,3.3009,3.2965,3.3087,3.3314,3.3524,3.3723,3.4031,3.4311,3.4595,3.487,3.5064,3.1089,3.1034,3.0922,3.0438,2.9872,3.0003,2.9659,2.9156,2.9456,2.9704,2.9827,3.0072,3.0254,3.0389,3.0644,3.1161,3.1409,3.1467,3.1467,3.1467,3.1467,3.1467,3.1467,3.1467,3.1278,3.0896,3.0464,3.0011,2.969,2.9704,2.9889,3.0269,3.0269,3.0086,2.9766,2.9676,2.9442,2.9178,2.9066,2.9066,2.9115,2.938,2.9827,3.0208,3.0269,3.0269,3.0269,3.0269,3.0329,3.0329,3.0315,3.0269,3.0269,3.0254,3.0269,3.0435,3.0703,3.1029,3.1409,3.1467,3.1467,3.1524,3.1796,3.2064,3.216,3.2422,3.2718,3.313,3.37,3.4137,3.4137,3.4137,3.4137,3.4137,3.4137,3.4284,3.4592,3.4894,3.48,3.4544,3.4704,3.4769,3.4816,3.4911,3.4894,3.5052,3.5316,3.5283,3.5157,3.5464,3.5898,3.6249,3.6522,3.6981,3.7433,3.7506,3.7435,3.6718,3.5921,3.5277,3.4655,3.4069,3.3817,3.375,3.3597,3.3421,3.3597,3.3854,3.4006,3.4152,3.4357,3.4614,3.4906,3.5184,3.5316,3.095,3.0974,3.1151,3.0754,3.0228,3.0424,3.0147,2.9766,3.0254,3.0524,3.0658,3.1161,3.1409,3.1467,3.1467,3.1467,3.1467,3.1467,3.1467,3.1467,3.1467,3.1467,3.1467,3.1467,3.1467,3.1394,3.1336,3.1161,3.0658,3.0524,3.0896,3.1146,3.1409,3.1219,3.0644,3.0524,3.0011,2.9752,2.9518,2.9518,2.969,3.0194,3.0837,3.1409,3.1467,3.1409,3.1278,3.1278,3.1278,3.1278,3.1394,3.1524,3.1697,3.1739,3.1465,3.113,3.148,3.1682,3.1796,3.1992,3.2145,3.2201,3.2532,3.2734,3.2949,3.3287,3.3786,3.3937,3.4382,3.48,3.4783,3.4783,3.48,3.48,3.48,3.4847,3.4988,3.5207,3.5424,3.5424,3.5639,3.5577,3.5407,3.5599,3.5582,3.5582,3.5837,3.6062,3.5942,3.5977,3.6333,3.6746,3.7135,3.7506,3.7843,3.8032,3.7938,3.7591,3.6741,3.5981,3.5285,3.4626,3.4451,3.4269,3.4147,3.4049,3.4218,3.4334,3.4405,3.451,3.4655,3.4888,3.5189,3.5322,3.5415,3.2301,3.2182,3.1679,3.1396,3.1264,3.1322,3.1278,3.1146,3.1204,3.1351,3.1278,3.1409,3.1467,3.1467,3.1467,3.1467,3.1524,3.1582,3.164,3.164,3.1682,3.1724,3.1567,3.1467,3.1739,3.1781,3.1682,3.1482,3.1394,3.1379,3.1336,3.1467,3.1467,3.1409,3.1219,3.1161,3.1278,3.1146,3.1087,3.1102,3.1146,3.1263,3.1452,3.1567,3.1625,3.1682,3.1796,3.1796,3.1739,3.1682,3.1582,3.1853,3.2327,3.2492,3.2841,3.2864,3.2826,3.2492,3.2516,3.2826,3.313,3.3077,3.3375,3.3495,3.3751,3.4087,3.4496,3.4544,3.5052,3.5362,3.5362,3.5424,3.547,3.5453,3.5407,3.5453,3.5543,3.5786,3.5968,3.5941,3.6054,3.5898,3.5722,3.6054,3.6291,3.6308,3.6392,3.6563,3.6768,3.6768,3.7026,3.7542,3.7887,3.825,3.8425,3.8603,3.8548,3.8334,3.7386,3.6556,3.5963,3.5343,3.4898,3.4715,3.4614,3.4595,3.4698,3.4756,3.4775,3.4851,3.4961,3.52,3.5473,3.5533,3.5551,3.1958,3.1928,3.1601,3.1467,3.1467,3.1467,3.1467,3.1467,3.1467,3.1467,3.1467,3.1467,3.1467,3.1524,3.1467,3.1467,3.1597,3.1966,3.212,3.2272,3.2407,3.261,3.2703,3.2703,3.2664,3.261,3.2664,3.2756,3.2516,3.1894,3.1524,3.1582,3.1524,3.1467,3.1625,3.1524,3.1467,3.1467,3.1524,3.1682,3.2007,3.216,3.2312,3.261,3.2664,3.261,3.2625,3.268,3.2664,3.2718,3.2718,3.2826,3.3077,3.3182,3.3339,3.3495,3.3735,3.3531,3.3287,3.3495,3.3649,3.3735,3.3971,3.435,3.464,3.4941,3.5161,3.5161,3.5407,3.5577,3.5622,3.5639,3.5639,3.5667,3.5941,3.6028,3.6139,3.644,3.6603,3.6563,3.6481,3.6399,3.6274,3.6399,3.6706,3.6825,3.6865,3.6964,3.7251,3.7542,3.792,3.8499,3.8765,3.9016,3.9115,3.9212,3.9186,3.8805,3.7636,3.6925,3.6618,3.6111,3.5436,3.5146,3.5124,3.512,3.5151,3.5092,3.5009,3.5127,3.5239,3.5449,3.5621,3.571,3.5704,3.1992,3.1992,3.1853,3.1838,3.1992,3.1838,3.1796,3.1739,3.1582,3.1582,3.1796,3.1936,3.1992,3.1838,3.1992,3.2104,3.1853,3.2516,3.2788,3.3039,3.3287,3.3479,3.3427,3.3479,3.3479,3.3633,3.3375,3.3427,3.3182,3.2718,3.2201,3.2048,3.2256,3.2145,3.2033,3.1998,3.1992,3.1992,3.2099,3.2407,3.2734,3.2841,3.3093,3.3391,3.3582,3.3582,3.3582,3.3531,3.3547,3.3479,3.3479,3.3495,3.3786,3.3836,3.4053,3.4252,3.4592,3.4592,3.4301,3.4252,3.4103,3.4252,3.4447,3.5005,3.5379,3.5639,3.5577,3.5532,3.5783,3.581,3.581,3.5941,3.6122,3.6291,3.6416,3.6522,3.6643,3.6904,3.702,3.6904,3.6904,3.7135,3.7058,3.6943,3.7041,3.7268,3.7379,3.7397,3.7769,3.8177,3.8623,3.9115,3.9219,3.9414,3.9462,3.9552,3.9599,3.9293,3.8123,3.7351,3.705,3.6326,3.5484,3.5393,3.5492,3.548,3.5422,3.5329,3.5278,3.5374,3.5491,3.5582,3.5721,3.581,3.5801,3.3495,3.3391,3.2788,3.2879,3.3339,3.2788,3.2532,3.2422,3.1838,3.2007,3.2532,3.3039,3.2933,3.2734,3.2933,3.2933,3.2547,3.3235,3.3443,3.3531,3.3582,3.3786,3.3887,3.3887,3.3786,3.3786,3.3887,3.3836,3.3684,3.3735,3.3427,3.3427,3.3182,3.3323,3.3171,3.2798,3.2867,3.2982,3.3261,3.3419,3.3511,3.3531,3.3633,3.3684,3.3684,3.3582,3.3633,3.3786,3.3836,3.3887,3.3887,3.4087,3.4447,3.4544,3.4752,3.5052,3.5224,3.527,3.5161,3.5161,3.5379,3.5424,3.547,3.547,3.5739,3.5667,3.5622,3.5827,3.6182,3.635,3.6498,3.6724,3.6786,3.6865,3.6904,3.7058,3.7173,3.7285,3.736,3.7266,3.7377,3.7667,3.7841,3.7701,3.7631,3.7877,3.799,3.8056,3.8456,3.8859,3.9233,3.9552,3.9557,3.9645,3.9645,3.9712,3.9865,3.9566,3.8707,3.8,3.7502,3.6637,3.5786,3.5542,3.562,3.5652,3.5696,3.5613,3.5588,3.564,3.5723,3.5749,3.5731,3.576,3.5728,3.3836,3.4186,3.3937,3.3735,3.3582,3.3339,3.3235,3.3182,3.2933,3.2917,3.3251,3.3495,3.3495,3.3391,3.3375,3.3495,3.3339,3.3937,3.4137,3.4382,3.4544,3.48,3.4816,3.4752,3.4847,3.4752,3.48,3.48,3.4864,3.4704,3.4816,3.4657,3.4037,3.3633,3.3467,3.3604,3.3815,3.4387,3.4619,3.4653,3.4235,3.4235,3.4382,3.4816,3.48,3.4816,3.4864,3.4847,3.4847,3.48,3.4752,3.4911,3.5052,3.5161,3.5316,3.556,3.5622,3.5667,3.5622,3.5622,3.5639,3.5639,3.5622,3.5739,3.6011,3.6097,3.6291,3.6522,3.6724,3.6882,3.696,3.7076,3.7135,3.7248,3.7396,3.7578,3.772,3.7825,3.7962,3.7943,3.8065,3.8267,3.8423,3.8524,3.8455,3.846,3.8573,3.8765,3.913,3.943,3.9738,3.9945,3.9985,4.0043,4.0043,4.01,4.0155,3.9723,3.9242,3.8575,3.7905,3.7215,3.6459,3.611,3.5756,3.5797,3.5825,3.5864,3.5861,3.5783,3.5782,3.5828,3.5799,3.5744,3.5643,3.4496,3.4894,3.4894,3.464,3.4186,3.3987,3.3871,3.3887,3.3633,3.3735,3.3887,3.4087,3.4053,3.3987,3.4153,3.4037,3.4137,3.4544,3.48,3.5052,3.527,3.5577,3.5639,3.5577,3.5424,3.5639,3.5639,3.5532,3.547,3.5577,3.5487,3.5161,3.4752,3.4399,3.4301,3.4251,3.4693,3.5366,3.558,3.5448,3.4927,3.4941,3.5005,3.547,3.547,3.547,3.5424,3.5424,3.547,3.547,3.5487,3.5532,3.5577,3.5639,3.5639,3.5667,3.5739,3.5827,3.5827,3.5667,3.5783,3.6122,3.5941,3.6182,3.6457,3.6643,3.6803,3.7038,3.7266,3.7414,3.7451,3.7632,3.7791,3.7948,3.8016,3.815,3.8263,3.8392,3.8579,3.87,3.8807,3.8915,3.8952,3.9061,3.9053,3.9072,3.9264,3.9376,3.9584,3.9865,4.012,4.0283,4.0348,4.0446,4.054,4.0472,4.0417,4.0198,3.9669,3.8917,3.8237,3.7507,3.674,3.6109,3.5841,3.5913,3.5925,3.593,3.5882,3.5834,3.5845,3.5859,3.5757,3.5677,3.5524,3.5532,3.556,3.5577,3.5532,3.5379,3.483,3.4576,3.4544,3.4037,3.4087,3.4624,3.5098,3.5052,3.4783,3.5052,3.4958,3.4752,3.5224,3.547,3.547,3.5532,3.5639,3.5639,3.5639,3.5639,3.5639,3.5639,3.5639,3.5639,3.5639,3.5639,3.5639,3.5316,3.527,3.547,3.5532,3.5549,3.5566,3.5621,3.5554,3.5503,3.5407,3.5532,3.5577,3.5639,3.5639,3.5639,3.5639,3.5639,3.5639,3.5639,3.5667,3.5739,3.5756,3.5739,3.581,3.6182,3.6374,3.6374,3.5941,3.6207,3.6746,3.6522,3.6643,3.7038,3.7173,3.7248,3.756,3.7703,3.7877,3.8065,3.8267,3.8401,3.8496,3.8528,3.8615,3.8718,3.8905,3.9054,3.9136,3.9377,3.9552,3.9534,3.9557,3.9599,3.9668,3.9901,4.0042,4.0101,4.0194,4.0372,4.0462,4.0549,4.061,4.0653,4.0733,4.0682,4.0501,4.0108,3.9409,3.8402,3.7405,3.67,3.6079,3.5918,3.5953,3.5956,3.5976,3.5898,3.5801,3.5852,3.5838,3.5743,3.5629,3.5473,3.5639,3.5639,3.5639,3.5639,3.5577,3.5362,3.5253,3.5207,3.5068,3.5068,3.5253,3.5515,3.5515,3.5407,3.5424,3.547,3.5379,3.5379,3.5639,3.5639,3.5639,3.5639,3.5639,3.5639,3.5639,3.5639,3.5639,3.5639,3.5639,3.5639,3.5639,3.5639,3.5639,3.5639,3.5577,3.5639,3.5594,3.5594,3.5611,3.5594,3.5639,3.5639,3.5639,3.5639,3.5639,3.5639,3.5622,3.5622,3.5667,3.5711,3.5711,3.5854,3.6054,3.6139,3.6291,3.6522,3.6904,3.7097,3.7173,3.7002,3.6825,3.7076,3.7114,3.7173,3.7578,3.7649,3.7843,3.805,3.8201,3.8382,3.8496,3.8528,3.8609,3.8683,3.8755,3.8886,3.9017,3.9282,3.9432,3.9432,3.9599,3.9797,3.9861,3.9905,3.9964,4.0005,4.0193,4.0266,4.0317,4.037,4.0485,4.0577,4.0648,4.071,4.0752,4.0836,4.0908,4.0808,4.0467,3.9973,3.884,3.7539,3.6809,3.6265,3.6112,3.5976,3.593,3.5876,3.583,3.5788,3.5761,3.5736,3.5663,3.5551,3.5424,3.5639,3.5639,3.5639,3.5639,3.5639,3.5639,3.5639,3.5639,3.5639,3.5639,3.5577,3.5577,3.5577,3.5577,3.5639,3.5639,3.5639,3.5639,3.5639,3.5639,3.5639,3.5639,3.5639,3.5639,3.5639,3.5622,3.5622,3.5639,3.5639,3.5639,3.5639,3.5639,3.5622,3.5639,3.5639,3.5639,3.5639,3.5639,3.5639,3.5639,3.5639,3.5639,3.5639,3.5639,3.5639,3.5639,3.5667,3.5739,3.5854,3.5898,3.6054,3.6291,3.6563,3.6724,3.6865,3.7097,3.7396,3.7667,3.7877,3.7929,3.7791,3.7791,3.7596,3.7703,3.8032,3.8183,3.835,3.8546,3.8689,3.8719,3.8719,3.875,3.8873,3.8913,3.9073,3.9231,3.9339,3.9576,3.9775,3.9775,3.9863,4.0043,4.0157,4.023,4.0283,4.0351,4.0431,4.0477,4.054,4.0554,4.0604,4.0688,4.0781,4.0832,4.089,4.095,4.1019,4.1074,4.075,4.0365,3.9141,3.7832,3.7148,3.6481,3.6202,3.5977,3.5845,3.5766,3.5736,3.564,3.5562,3.5553,3.5572,3.5463,3.5335,3.5639,3.5639,3.5639,3.5639,3.5639,3.5667,3.5667,3.5622,3.5639,3.5639,3.5639,3.5639,3.5667,3.565,3.5622,3.5667,3.5667,3.5667,3.5639,3.5639,3.5639,3.5639,3.5639,3.5639,3.5639,3.5622,3.5711,3.5827,3.5667,3.5941,3.5898,3.5827,3.5924,3.5941,3.5941,3.5941,3.5827,3.5694,3.5739,3.5783,3.5827,3.5871,3.5941,3.5941,3.5941,3.5941,3.6011,3.6207,3.6374,3.6563,3.6843,3.7058,3.721,3.7228,3.7228,3.7414,3.7773,3.815,3.8465,3.8483,3.8541,3.8442,3.8194,3.8314,3.8446,3.8572,3.8725,3.8785,3.8862,3.8833,3.8803,3.898,3.9144,3.9301,3.9451,3.9576,3.9668,3.984,4.0042,4.0158,4.0285,4.0406,4.0415,4.0481,4.0506,4.0578,4.0622,4.0657,4.0699,4.0665,4.0712,4.0805,4.089,4.0979,4.1026,4.1058,4.1094,4.1133,4.1035,4.0605,3.9316,3.8242,3.7519,3.6879,3.6286,3.5968,3.5775,3.5687,3.5638,3.5543,3.5372,3.5367,3.5406,3.5331,3.519,3.5639,3.5639,3.5639,3.5639,3.5667,3.6028,3.5968,3.5622,3.5639,3.5639,3.5639,3.5639,3.5854,3.6122,3.5783,3.5898,3.5898,3.5827,3.5667,3.5667,3.5783,3.5667,3.5667,3.5694,3.5667,3.58,3.5958,3.6182,3.6291,3.644,3.6666,3.6746,3.6586,3.6643,3.6643,3.6724,3.6249,3.5968,3.6054,3.6139,3.6291,3.644,3.6522,3.6603,3.6603,3.6603,3.6684,3.6825,3.6943,3.7038,3.7152,3.7285,3.7685,3.772,3.7808,3.8252,3.8433,3.8528,3.8658,3.8707,3.8773,3.8933,3.8802,3.87,3.8766,3.8884,3.899,3.9045,3.9127,3.9181,3.9189,3.9327,3.9457,3.9552,3.9754,3.9903,4.0003,4.0101,4.0304,4.0386,4.0515,4.0554,4.059,4.063,4.0641,4.0732,4.0799,4.0832,4.084,4.0816,4.084,4.092,4.0983,4.1052,4.1105,4.1152,4.1172,4.1172,4.1055,4.0798,3.9863,3.8848,3.7969,3.717,3.6443,3.5978,3.5659,3.5572,3.5473,3.532,3.5159,3.5193,3.5197,3.5102,3.4944,3.6071,3.6207,3.6011,3.6011,3.6291,3.6563,3.6539,3.6249,3.6249,3.6249,3.6266,3.6232,3.6416,3.6643,3.6457,3.644,3.6684,3.6481,3.6333,3.6316,3.6182,3.6187,3.6104,3.6172,3.6402,3.6502,3.6533,3.6706,3.6843,3.696,3.719,3.7152,3.719,3.7228,3.7152,3.7076,3.6843,3.6603,3.6522,3.6684,3.6865,3.702,3.7152,3.7266,3.7266,3.7266,3.7303,3.736,3.747,3.756,3.7596,3.7895,3.8216,3.8234,3.8267,3.8627,3.8627,3.8725,3.8855,3.8865,3.9027,3.9205,3.9289,3.9223,3.9171,3.9249,3.9282,3.9333,3.9481,3.9576,3.9645,3.9709,3.9754,3.9816,4.0042,4.0251,4.0339,4.0406,4.0485,4.0554,4.0604,4.0648,4.0696,4.0721,4.0791,4.0855,4.0908,4.0955,4.0955,4.0944,4.0983,4.1055,4.108,4.1126,4.1152,4.1149,4.1113,4.1094,4.1016,4.0652,4.007,3.9306,3.8311,3.7402,3.6531,3.6099,3.5712,3.543,3.5247,3.5088,3.4889,3.4756,3.4775,3.4813,3.4634,3.6724,3.7097,3.6701,3.6724,3.7135,3.721,3.7248,3.7248,3.7285,3.7266,3.7152,3.7152,3.7135,3.7173,3.7058,3.7058,3.7135,3.7058,3.6921,3.7173,3.6981,3.6851,3.6872,3.7046,3.7027,3.7365,3.7463,3.7285,3.734,3.7487,3.756,3.734,3.7414,3.7524,3.756,3.756,3.747,3.7433,3.734,3.7377,3.7285,3.7285,3.734,3.7414,3.7414,3.7396,3.747,3.7685,3.798,3.815,3.8318,3.8596,3.8627,3.8683,3.8732,3.8803,3.8844,3.9008,3.909,3.9171,3.9333,3.951,3.9645,3.9668,3.969,3.9622,3.9622,3.9668,3.9819,3.9903,3.9964,4.0024,4.0101,4.0157,4.03,4.0442,4.0519,4.0578,4.0616,4.0665,4.0699,4.0732,4.0796,4.0848,4.0903,4.0983,4.1046,4.108,4.1029,4.1006,4.1032,4.1094,4.1094,4.1073,4.1043,4.1023,4.0992,4.0957,4.0896,4.0821,4.0427,3.9585,3.8597,3.7837,3.7141,3.6295,3.581,3.5506,3.5162,3.4832,3.4614,3.4311,3.4288,3.4442,3.4353,3.7058,3.719,3.7058,3.7097,3.7266,3.7578,3.7738,3.7755,3.8168,3.7913,3.7303,3.7266,3.7433,3.7685,3.7451,3.7433,3.7649,3.7506,3.7266,3.7303,3.7303,3.7504,3.7392,3.7432,3.75,3.7591,3.7721,3.7911,3.8101,3.8201,3.8285,3.8285,3.8252,3.8168,3.8168,3.8201,3.8168,3.8135,3.8135,3.7982,3.7773,3.8117,3.835,3.8285,3.8285,3.8201,3.8285,3.835,3.8515,3.8596,3.8627,3.8676,3.8707,3.8913,3.8999,3.9036,3.9216,3.9333,3.9432,3.9486,3.9668,3.984,4.0003,4.0139,4.0157,4.0042,4.0002,4.0043,4.0082,4.0194,4.0283,4.0334,4.0415,4.0462,4.0521,4.0597,4.0683,4.0713,4.0733,4.0761,4.0779,4.0836,4.0914,4.0968,4.1026,4.108,4.1128,4.1133,4.1027,4.0965,4.0962,4.1007,4.1013,4.1003,4.0955,4.0908,4.0883,4.084,4.0771,4.0752,4.074,3.9968,3.9115,3.8537,3.7853,3.6945,3.6102,3.5515,3.517,3.471,3.4398,3.4141,3.3986,3.408,3.4005,3.7667,3.7861,3.7861,3.7879,3.7895,3.8168,3.8267,3.83,3.8578,3.8401,3.7948,3.7861,3.7998,3.8249,3.7982,3.7895,3.815,3.8016,3.7982,3.7913,3.7809,3.802,3.7969,3.7898,3.8038,3.816,3.8207,3.8433,3.8658,3.8658,3.8627,3.8707,3.8707,3.8707,3.8707,3.8707,3.8707,3.8658,3.8707,3.8528,3.8216,3.8546,3.8707,3.8707,3.8707,3.8707,3.8707,3.8707,3.8707,3.8762,3.8833,3.8884,3.898,3.9171,3.9308,3.9364,3.9481,3.9687,3.9775,3.9861,3.9963,4.0139,4.0267,4.0353,4.0372,4.0285,4.0267,4.0302,4.0319,4.0389,4.0472,4.0563,4.0597,4.0657,4.066,4.0704,4.0751,4.076,4.0828,4.0896,4.0908,4.0974,4.1026,4.1101,4.1111,4.1013,4.1086,4.1055,4.0964,4.0908,4.0896,4.0883,4.089,4.0902,4.0864,4.0832,4.0791,4.0721,4.0665,4.0636,4.0565,4.0212,3.9677,3.9054,3.8323,3.7405,3.6611,3.5817,3.4919,3.4306,3.4124,3.3961,3.3868,3.3753,3.3734,3.8267,3.8676,3.8658,3.8676,3.8707,3.8707,3.8658,3.8676,3.8707,3.8707,3.8627,3.8627,3.8707,3.8707,3.8707,3.8707,3.8627,3.8465,3.8564,3.8596,3.8596,3.8469,3.8501,3.8596,3.8551,3.8551,3.8596,3.8627,3.8707,3.8707,3.8707,3.8707,3.8707,3.8707,3.8707,3.8707,3.8707,3.8707,3.8689,3.8701,3.8719,3.8738,3.8707,3.8707,3.8707,3.8707,3.8707,3.8732,3.8732,3.8873,3.9045,3.9144,3.9282,3.9481,3.9599,3.969,3.9781,3.9944,4.0062,4.0139,4.0267,4.0406,4.0469,4.0515,4.0515,4.0526,4.0526,4.054,4.054,4.0568,4.0667,4.071,4.0762,4.0821,4.0828,4.0816,4.0843,4.0859,4.0937,4.1016,4.1052,4.1082,4.1091,4.1152,4.1105,4.1003,4.093,4.087,4.0828,4.0796,4.0781,4.0742,4.0722,4.0723,4.0743,4.0732,4.0672,4.0642,4.0577,4.053,4.0434,4.0175,3.9895,3.955,3.8759,3.7776,3.678,3.5916,3.5001,3.4157,3.3957,3.385,3.3643,3.355,3.355,3.8596,3.8707,3.8707,3.8707,3.8707,3.8707,3.8707,3.8707,3.8689,3.8707,3.8719,3.8707,3.8707,3.8707,3.8707,3.8707,3.8707,3.8707,3.8707,3.8676,3.8707,3.8707,3.8707,3.8707,3.8707,3.8707,3.8707,3.8707,3.8707,3.8707,3.8689,3.8719,3.8719,3.8719,3.8719,3.875,3.8792,3.8822,3.8833,3.8873,3.8933,3.8884,3.8719,3.8707,3.8707,3.8707,3.8732,3.8905,3.8999,3.9099,3.9308,3.9438,3.9603,3.9778,3.9924,4.0004,4.012,4.023,4.0319,4.0356,4.0457,4.0481,4.0554,4.063,4.066,4.0682,4.0692,4.0713,4.0732,4.0712,4.0762,4.0779,4.0828,4.095,4.1016,4.0992,4.0988,4.1035,4.1113,4.1133,4.1131,4.1093,4.1023,4.103,4.0988,4.0902,4.085,4.0796,4.0712,4.0688,4.0672,4.0623,4.0571,4.0554,4.0554,4.0584,4.0554,4.053,4.0485,4.0386,4.0302,4.0269,3.9984,3.9642,3.8954,3.8042,3.7065,3.6184,3.5194,3.4397,3.3997,3.3762,3.3476,3.3255,3.3225]}]]